<?xml version="1.0" encoding="UTF-8" standalone="no" ?>
<gpx xmlns="http://www.topografix.com/GPX/1/1" xmlns:xsi="http://www.w3.org/2001/XMLSchema-instance" xsi:schemaLocation="http://www.topografix.com/GPX/1/1 http://www.topografix.com/GPX/1/1/gpx.xsd" version="1.1" creator="VisuGPX - https://www.visugpx.com">
  <metadata>
    <name>Col-de Menté et col Ares depuis Mazeres</name>
  </metadata>
  <trk>
    <name><![CDATA[Col-de Menté et Col des Ares]]></name>
    <trkseg>
      <trkpt lat="43.07113" lon="0.54167">
        <ele>430.68351</ele>
        <time>2021-10-12T15:35:54.759Z</time>
      </trkpt>
      <trkpt lat="43.07111" lon="0.54199">
        <ele>430.68351</ele>
        <time>2021-10-12T15:35:59.644Z</time>
      </trkpt>
      <trkpt lat="43.07115" lon="0.54251">
        <ele>430.68351</ele>
        <time>2021-10-12T15:36:07.655Z</time>
      </trkpt>
      <trkpt lat="43.07116" lon="0.54276">
        <ele>430.68351</ele>
        <time>2021-10-12T15:36:11.248Z</time>
      </trkpt>
      <trkpt lat="43.07116" lon="0.54281">
        <ele>430.68351</ele>
        <time>2021-10-12T15:36:11.910Z</time>
      </trkpt>
      <trkpt lat="43.07116" lon="0.5429">
        <ele>430.679555</ele>
        <time>2021-10-12T15:36:13.268Z</time>
      </trkpt>
      <trkpt lat="43.07114" lon="0.543">
        <ele>430.610484</ele>
        <time>2021-10-12T15:36:14.700Z</time>
      </trkpt>
      <trkpt lat="43.07111" lon="0.54306">
        <ele>430.556504</ele>
        <time>2021-10-12T15:36:15.837Z</time>
      </trkpt>
      <trkpt lat="43.07108" lon="0.54313">
        <ele>430.498423</ele>
        <time>2021-10-12T15:36:17.026Z</time>
      </trkpt>
      <trkpt lat="43.07104" lon="0.54332">
        <ele>430.36124</ele>
        <time>2021-10-12T15:36:19.704Z</time>
      </trkpt>
      <trkpt lat="43.07103" lon="0.54347">
        <ele>430.249856</ele>
        <time>2021-10-12T15:36:21.982Z</time>
      </trkpt>
      <trkpt lat="43.07103" lon="0.5435">
        <ele>430.232063</ele>
        <time>2021-10-12T15:36:22.353Z</time>
      </trkpt>
      <trkpt lat="43.07102" lon="0.54373">
        <ele>430.0663</ele>
        <time>2021-10-12T15:36:25.633Z</time>
      </trkpt>
      <trkpt lat="43.07103" lon="0.54394">
        <ele>429.917317</ele>
        <time>2021-10-12T15:36:28.584Z</time>
      </trkpt>
      <trkpt lat="43.07104" lon="0.544">
        <ele>429.869159</ele>
        <time>2021-10-12T15:36:29.561Z</time>
      </trkpt>
      <trkpt lat="43.07108" lon="0.54417">
        <ele>429.745274</ele>
        <time>2021-10-12T15:36:31.985Z</time>
      </trkpt>
      <trkpt lat="43.07117" lon="0.54455">
        <ele>429.46519</ele>
        <time>2021-10-12T15:36:37.518Z</time>
      </trkpt>
      <trkpt lat="43.07123" lon="0.54476">
        <ele>429.298943</ele>
        <time>2021-10-12T15:36:40.694Z</time>
      </trkpt>
      <trkpt lat="43.07161" lon="0.54556">
        <ele>428.770374</ele>
        <time>2021-10-12T15:36:54.168Z</time>
      </trkpt>
      <trkpt lat="43.07195" lon="0.54675">
        <ele>428.295115</ele>
        <time>2021-10-12T15:37:12.061Z</time>
      </trkpt>
      <trkpt lat="43.07058" lon="0.54745">
        <ele>430.649793</ele>
        <time>2021-10-12T15:37:48.631Z</time>
      </trkpt>
      <trkpt lat="43.06998" lon="0.54811">
        <ele>432.880075</ele>
        <time>2021-10-12T15:38:22.508Z</time>
      </trkpt>
      <trkpt lat="43.06993" lon="0.54818">
        <ele>433.092032</ele>
        <time>2021-10-12T15:38:26.104Z</time>
      </trkpt>
      <trkpt lat="43.0699" lon="0.54819">
        <ele>433.169654</ele>
        <time>2021-10-12T15:38:27.188Z</time>
      </trkpt>
      <trkpt lat="43.06988" lon="0.54821">
        <ele>433.290626</ele>
        <time>2021-10-12T15:38:28.381Z</time>
      </trkpt>
      <trkpt lat="43.06982" lon="0.54827">
        <ele>433.735933</ele>
        <time>2021-10-12T15:38:31.630Z</time>
      </trkpt>
      <trkpt lat="43.06961" lon="0.54851">
        <ele>435.441487</ele>
        <time>2021-10-12T15:38:44.323Z</time>
      </trkpt>
      <trkpt lat="43.06926" lon="0.54888">
        <ele>438.188743</ele>
        <time>2021-10-12T15:39:05.095Z</time>
      </trkpt>
      <trkpt lat="43.0692" lon="0.54893">
        <ele>438.60902</ele>
        <time>2021-10-12T15:39:08.327Z</time>
      </trkpt>
      <trkpt lat="43.06918" lon="0.54896">
        <ele>438.816643</ele>
        <time>2021-10-12T15:39:09.906Z</time>
      </trkpt>
      <trkpt lat="43.06916" lon="0.54898">
        <ele>438.948167</ele>
        <time>2021-10-12T15:39:10.890Z</time>
      </trkpt>
      <trkpt lat="43.06909" lon="0.54906">
        <ele>439.494303</ele>
        <time>2021-10-12T15:39:15.453Z</time>
      </trkpt>
      <trkpt lat="43.06906" lon="0.54929">
        <ele>440.556856</ele>
        <time>2021-10-12T15:39:23.405Z</time>
      </trkpt>
      <trkpt lat="43.06943" lon="0.55025">
        <ele>445.149379</ele>
        <time>2021-10-12T15:40:03.869Z</time>
      </trkpt>
      <trkpt lat="43.06959" lon="0.55118">
        <ele>448.050016</ele>
        <time>2021-10-12T15:40:32.106Z</time>
      </trkpt>
      <trkpt lat="43.06957" lon="0.55123">
        <ele>448.212974</ele>
        <time>2021-10-12T15:40:33.752Z</time>
      </trkpt>
      <trkpt lat="43.06953" lon="0.55125">
        <ele>448.40127</ele>
        <time>2021-10-12T15:40:35.391Z</time>
      </trkpt>
      <trkpt lat="43.06947" lon="0.55127">
        <ele>448.650296</ele>
        <time>2021-10-12T15:40:37.183Z</time>
      </trkpt>
      <trkpt lat="43.06915" lon="0.55114">
        <ele>450.065884</ele>
        <time>2021-10-12T15:40:49.012Z</time>
      </trkpt>
      <trkpt lat="43.0691" lon="0.55113">
        <ele>450.254839</ele>
        <time>2021-10-12T15:40:50.422Z</time>
      </trkpt>
      <trkpt lat="43.06891" lon="0.55108">
        <ele>451.051221</ele>
        <time>2021-10-12T15:40:57.029Z</time>
      </trkpt>
      <trkpt lat="43.06775" lon="0.55087">
        <ele>453.335696</ele>
        <time>2021-10-12T15:41:35.600Z</time>
      </trkpt>
      <trkpt lat="43.06716" lon="0.5509">
        <ele>454.205047</ele>
        <time>2021-10-12T15:41:49.881Z</time>
      </trkpt>
      <trkpt lat="43.06677" lon="0.55106">
        <ele>454.351705</ele>
        <time>2021-10-12T15:41:58.526Z</time>
      </trkpt>
      <trkpt lat="43.06647" lon="0.55119">
        <ele>453.983256</ele>
        <time>2021-10-12T15:42:04.671Z</time>
      </trkpt>
      <trkpt lat="43.06633" lon="0.55125">
        <ele>453.801628</ele>
        <time>2021-10-12T15:42:07.464Z</time>
      </trkpt>
      <trkpt lat="43.06604" lon="0.55127">
        <ele>453.464617</ele>
        <time>2021-10-12T15:42:12.973Z</time>
      </trkpt>
      <trkpt lat="43.06539" lon="0.55106">
        <ele>452.67891</ele>
        <time>2021-10-12T15:42:24.992Z</time>
      </trkpt>
      <trkpt lat="43.06525" lon="0.55107">
        <ele>452.515953</ele>
        <time>2021-10-12T15:42:27.278Z</time>
      </trkpt>
      <trkpt lat="43.06448" lon="0.55132">
        <ele>451.987902</ele>
        <time>2021-10-12T15:42:42.025Z</time>
      </trkpt>
      <trkpt lat="43.06425" lon="0.55126">
        <ele>451.845753</ele>
        <time>2021-10-12T15:42:46.730Z</time>
      </trkpt>
      <trkpt lat="43.06394" lon="0.55108">
        <ele>451.6387</ele>
        <time>2021-10-12T15:42:53.897Z</time>
      </trkpt>
      <trkpt lat="43.06329" lon="0.55088">
        <ele>451.585059</ele>
        <time>2021-10-12T15:43:09.613Z</time>
      </trkpt>
      <trkpt lat="43.06306" lon="0.55091">
        <ele>451.932029</ele>
        <time>2021-10-12T15:43:15.965Z</time>
      </trkpt>
      <trkpt lat="43.06299" lon="0.55096">
        <ele>452.050973</ele>
        <time>2021-10-12T15:43:17.611Z</time>
      </trkpt>
      <trkpt lat="43.06288" lon="0.55105">
        <ele>452.243645</ele>
        <time>2021-10-12T15:43:21.675Z</time>
      </trkpt>
      <trkpt lat="43.06223" lon="0.55162">
        <ele>453.390474</ele>
        <time>2021-10-12T15:43:43.944Z</time>
      </trkpt>
      <trkpt lat="43.06119" lon="0.55219">
        <ele>454.977877</ele>
        <time>2021-10-12T15:44:18.343Z</time>
      </trkpt>
      <trkpt lat="43.06073" lon="0.55233">
        <ele>455.614457</ele>
        <time>2021-10-12T15:44:31.489Z</time>
      </trkpt>
      <trkpt lat="43.06022" lon="0.55228">
        <ele>456.317828</ele>
        <time>2021-10-12T15:44:44.692Z</time>
      </trkpt>
      <trkpt lat="43.06004" lon="0.55234">
        <ele>456.476825</ele>
        <time>2021-10-12T15:44:49.227Z</time>
      </trkpt>
      <trkpt lat="43.05951" lon="0.55283">
        <ele>456.474157</ele>
        <time>2021-10-12T15:45:03.514Z</time>
      </trkpt>
      <trkpt lat="43.05913" lon="0.55304">
        <ele>456.472477</ele>
        <time>2021-10-12T15:45:12.109Z</time>
      </trkpt>
      <trkpt lat="43.05815" lon="0.55335">
        <ele>456.723866</ele>
        <time>2021-10-12T15:45:33.609Z</time>
      </trkpt>
      <trkpt lat="43.0574" lon="0.55372">
        <ele>457.348068</ele>
        <time>2021-10-12T15:45:52.667Z</time>
      </trkpt>
      <trkpt lat="43.05677" lon="0.55388">
        <ele>457.856057</ele>
        <time>2021-10-12T15:46:09.870Z</time>
      </trkpt>
      <trkpt lat="43.0565" lon="0.55396">
        <ele>458.58931</ele>
        <time>2021-10-12T15:46:19.117Z</time>
      </trkpt>
      <trkpt lat="43.05645" lon="0.55398">
        <ele>458.736659</ele>
        <time>2021-10-12T15:46:20.667Z</time>
      </trkpt>
      <trkpt lat="43.05583" lon="0.55413">
        <ele>460.601946</ele>
        <time>2021-10-12T15:46:42.326Z</time>
      </trkpt>
      <trkpt lat="43.05556" lon="0.55425">
        <ele>461.447125</ele>
        <time>2021-10-12T15:46:51.483Z</time>
      </trkpt>
      <trkpt lat="43.05531" lon="0.55461">
        <ele>462.514267</ele>
        <time>2021-10-12T15:47:04.614Z</time>
      </trkpt>
      <trkpt lat="43.05529" lon="0.55464">
        <ele>462.613185</ele>
        <time>2021-10-12T15:47:06.205Z</time>
      </trkpt>
      <trkpt lat="43.05524" lon="0.55466">
        <ele>462.774396</ele>
        <time>2021-10-12T15:47:09.175Z</time>
      </trkpt>
      <trkpt lat="43.05486" lon="0.55448">
        <ele>463.719651</ele>
        <time>2021-10-12T15:47:24.369Z</time>
      </trkpt>
      <trkpt lat="43.05463" lon="0.55425">
        <ele>464.297704</ele>
        <time>2021-10-12T15:47:34.130Z</time>
      </trkpt>
      <trkpt lat="43.0542" lon="0.55365">
        <ele>465.547183</ele>
        <time>2021-10-12T15:47:53.406Z</time>
      </trkpt>
      <trkpt lat="43.05384" lon="0.5534">
        <ele>466.361976</ele>
        <time>2021-10-12T15:48:05.089Z</time>
      </trkpt>
      <trkpt lat="43.05376" lon="0.55334">
        <ele>466.543718</ele>
        <time>2021-10-12T15:48:07.618Z</time>
      </trkpt>
      <trkpt lat="43.05229" lon="0.55227">
        <ele>465.354945</ele>
        <time>2021-10-12T15:48:39.259Z</time>
      </trkpt>
      <trkpt lat="43.05122" lon="0.55153">
        <ele>464.13539</ele>
        <time>2021-10-12T15:49:01.122Z</time>
      </trkpt>
      <trkpt lat="43.05099" lon="0.55132">
        <ele>463.86157</ele>
        <time>2021-10-12T15:49:06.669Z</time>
      </trkpt>
      <trkpt lat="43.05083" lon="0.55114">
        <ele>463.649463</ele>
        <time>2021-10-12T15:49:11.117Z</time>
      </trkpt>
      <trkpt lat="43.04928" lon="0.55224">
        <ele>462.527674</ele>
        <time>2021-10-12T15:49:47.220Z</time>
      </trkpt>
      <trkpt lat="43.04878" lon="0.55262">
        <ele>462.20072</ele>
        <time>2021-10-12T15:49:58.414Z</time>
      </trkpt>
      <trkpt lat="43.04863" lon="0.55269">
        <ele>462.085348</ele>
        <time>2021-10-12T15:50:02.044Z</time>
      </trkpt>
      <trkpt lat="43.04851" lon="0.55271">
        <ele>461.998824</ele>
        <time>2021-10-12T15:50:04.159Z</time>
      </trkpt>
      <trkpt lat="43.04842" lon="0.5527">
        <ele>461.930072</ele>
        <time>2021-10-12T15:50:06.207Z</time>
      </trkpt>
      <trkpt lat="43.04815" lon="0.55263">
        <ele>461.733121</ele>
        <time>2021-10-12T15:50:11.479Z</time>
      </trkpt>
      <trkpt lat="43.04807" lon="0.55264">
        <ele>461.676957</ele>
        <time>2021-10-12T15:50:13.082Z</time>
      </trkpt>
      <trkpt lat="43.04778" lon="0.55276">
        <ele>461.460066</ele>
        <time>2021-10-12T15:50:18.803Z</time>
      </trkpt>
      <trkpt lat="43.04752" lon="0.55288">
        <ele>461.259977</ele>
        <time>2021-10-12T15:50:24.232Z</time>
      </trkpt>
      <trkpt lat="43.04747" lon="0.55292">
        <ele>461.215325</ele>
        <time>2021-10-12T15:50:25.374Z</time>
      </trkpt>
      <trkpt lat="43.04738" lon="0.55305">
        <ele>461.126496</ele>
        <time>2021-10-12T15:50:28.144Z</time>
      </trkpt>
      <trkpt lat="43.04715" lon="0.55357">
        <ele>461.004695</ele>
        <time>2021-10-12T15:50:37.722Z</time>
      </trkpt>
      <trkpt lat="43.04679" lon="0.55397">
        <ele>461.035779</ele>
        <time>2021-10-12T15:50:48.386Z</time>
      </trkpt>
      <trkpt lat="43.04523" lon="0.55485">
        <ele>461.592446</ele>
        <time>2021-10-12T15:51:27.015Z</time>
      </trkpt>
      <trkpt lat="43.04433" lon="0.55519">
        <ele>462.33909</ele>
        <time>2021-10-12T15:51:51.019Z</time>
      </trkpt>
      <trkpt lat="43.04406" lon="0.55554">
        <ele>462.769326</ele>
        <time>2021-10-12T15:52:01.415Z</time>
      </trkpt>
      <trkpt lat="43.04389" lon="0.55556">
        <ele>463.116025</ele>
        <time>2021-10-12T15:52:06.453Z</time>
      </trkpt>
      <trkpt lat="43.04334" lon="0.55536">
        <ele>464.241958</ele>
        <time>2021-10-12T15:52:24.187Z</time>
      </trkpt>
      <trkpt lat="43.04307" lon="0.55536">
        <ele>464.776523</ele>
        <time>2021-10-12T15:52:32.595Z</time>
      </trkpt>
      <trkpt lat="43.04249" lon="0.55572">
        <ele>466.057197</ele>
        <time>2021-10-12T15:52:52.646Z</time>
      </trkpt>
      <trkpt lat="43.0423" lon="0.55592">
        <ele>466.364268</ele>
        <time>2021-10-12T15:52:59.925Z</time>
      </trkpt>
      <trkpt lat="43.04224" lon="0.55602">
        <ele>466.470639</ele>
        <time>2021-10-12T15:53:02.745Z</time>
      </trkpt>
      <trkpt lat="43.04081" lon="0.55945">
        <ele>469.060102</ele>
        <time>2021-10-12T15:54:16.901Z</time>
      </trkpt>
      <trkpt lat="43.04056" lon="0.5598">
        <ele>469.282089</ele>
        <time>2021-10-12T15:54:24.931Z</time>
      </trkpt>
      <trkpt lat="43.04019" lon="0.56004">
        <ele>469.211</ele>
        <time>2021-10-12T15:54:33.791Z</time>
      </trkpt>
      <trkpt lat="43.03984" lon="0.56014">
        <ele>469.097889</ele>
        <time>2021-10-12T15:54:41.504Z</time>
      </trkpt>
      <trkpt lat="43.03897" lon="0.56024">
        <ele>468.820531</ele>
        <time>2021-10-12T15:54:59.899Z</time>
      </trkpt>
      <trkpt lat="43.03864" lon="0.56035">
        <ele>468.640643</ele>
        <time>2021-10-12T15:55:06.777Z</time>
      </trkpt>
      <trkpt lat="43.03776" lon="0.56119">
        <ele>467.67806</ele>
        <time>2021-10-12T15:55:27.321Z</time>
      </trkpt>
      <trkpt lat="43.03724" lon="0.56171">
        <ele>467.06392</ele>
        <time>2021-10-12T15:55:40.258Z</time>
      </trkpt>
      <trkpt lat="43.03708" lon="0.56184">
        <ele>466.722972</ele>
        <time>2021-10-12T15:55:43.853Z</time>
      </trkpt>
      <trkpt lat="43.03687" lon="0.56198">
        <ele>466.306958</ele>
        <time>2021-10-12T15:55:48.287Z</time>
      </trkpt>
      <trkpt lat="43.03634" lon="0.56217">
        <ele>465.299057</ele>
        <time>2021-10-12T15:55:58.460Z</time>
      </trkpt>
      <trkpt lat="43.03579" lon="0.56251">
        <ele>464.19089</ele>
        <time>2021-10-12T15:56:08.638Z</time>
      </trkpt>
      <trkpt lat="43.03573" lon="0.56267">
        <ele>463.945962</ele>
        <time>2021-10-12T15:56:10.953Z</time>
      </trkpt>
      <trkpt lat="43.03566" lon="0.56302">
        <ele>463.173781</ele>
        <time>2021-10-12T15:56:15.755Z</time>
      </trkpt>
      <trkpt lat="43.0358" lon="0.56358">
        <ele>461.80488</ele>
        <time>2021-10-12T15:56:23.226Z</time>
      </trkpt>
      <trkpt lat="43.03581" lon="0.56363">
        <ele>461.682241</ele>
        <time>2021-10-12T15:56:23.841Z</time>
      </trkpt>
      <trkpt lat="43.03582" lon="0.56371">
        <ele>461.491366</ele>
        <time>2021-10-12T15:56:24.745Z</time>
      </trkpt>
      <trkpt lat="43.03577" lon="0.56398">
        <ele>460.861754</ele>
        <time>2021-10-12T15:56:28.461Z</time>
      </trkpt>
      <trkpt lat="43.0353" lon="0.56479">
        <ele>458.431346</ele>
        <time>2021-10-12T15:56:41.202Z</time>
      </trkpt>
      <trkpt lat="43.03536" lon="0.56575">
        <ele>457.076901</ele>
        <time>2021-10-12T15:56:53.186Z</time>
      </trkpt>
      <trkpt lat="43.03533" lon="0.56608">
        <ele>456.659686</ele>
        <time>2021-10-12T15:56:57.837Z</time>
      </trkpt>
      <trkpt lat="43.03496" lon="0.56673">
        <ele>455.610942</ele>
        <time>2021-10-12T15:57:10.083Z</time>
      </trkpt>
      <trkpt lat="43.03478" lon="0.56724">
        <ele>455.023792</ele>
        <time>2021-10-12T15:57:18.879Z</time>
      </trkpt>
      <trkpt lat="43.03443" lon="0.56792">
        <ele>455.097791</ele>
        <time>2021-10-12T15:57:33.043Z</time>
      </trkpt>
      <trkpt lat="43.03434" lon="0.56838">
        <ele>455.139551</ele>
        <time>2021-10-12T15:57:41.262Z</time>
      </trkpt>
      <trkpt lat="43.03432" lon="0.56887">
        <ele>455.183216</ele>
        <time>2021-10-12T15:57:49.870Z</time>
      </trkpt>
      <trkpt lat="43.03429" lon="0.56905">
        <ele>455.199696</ele>
        <time>2021-10-12T15:57:52.901Z</time>
      </trkpt>
      <trkpt lat="43.03421" lon="0.5692">
        <ele>455.216207</ele>
        <time>2021-10-12T15:57:56.735Z</time>
      </trkpt>
      <trkpt lat="43.03409" lon="0.56932">
        <ele>455.236735</ele>
        <time>2021-10-12T15:58:00.239Z</time>
      </trkpt>
      <trkpt lat="43.03393" lon="0.56948">
        <ele>455.436565</ele>
        <time>2021-10-12T15:58:05.625Z</time>
      </trkpt>
      <trkpt lat="43.03355" lon="0.56977">
        <ele>455.867416</ele>
        <time>2021-10-12T15:58:16.930Z</time>
      </trkpt>
      <trkpt lat="43.03323" lon="0.57">
        <ele>456.225779</ele>
        <time>2021-10-12T15:58:26.600Z</time>
      </trkpt>
      <trkpt lat="43.0331" lon="0.57008">
        <ele>456.372659</ele>
        <time>2021-10-12T15:58:30.248Z</time>
      </trkpt>
      <trkpt lat="43.03294" lon="0.57021">
        <ele>456.553278</ele>
        <time>2021-10-12T15:58:35.759Z</time>
      </trkpt>
      <trkpt lat="43.0326" lon="0.57059">
        <ele>456.992247</ele>
        <time>2021-10-12T15:58:48.096Z</time>
      </trkpt>
      <trkpt lat="43.03242" lon="0.57071">
        <ele>457.300657</ele>
        <time>2021-10-12T15:58:53.816Z</time>
      </trkpt>
      <trkpt lat="43.03173" lon="0.57104">
        <ele>458.518261</ele>
        <time>2021-10-12T15:59:15.940Z</time>
      </trkpt>
      <trkpt lat="43.03112" lon="0.57125">
        <ele>459.549158</ele>
        <time>2021-10-12T15:59:34.911Z</time>
      </trkpt>
      <trkpt lat="43.03067" lon="0.57119">
        <ele>460.209937</ele>
        <time>2021-10-12T15:59:48.415Z</time>
      </trkpt>
      <trkpt lat="43.03052" lon="0.57125">
        <ele>460.393793</ele>
        <time>2021-10-12T15:59:53.002Z</time>
      </trkpt>
      <trkpt lat="43.03048" lon="0.57133">
        <ele>460.473646</ele>
        <time>2021-10-12T15:59:55.392Z</time>
      </trkpt>
      <trkpt lat="43.03033" lon="0.57137">
        <ele>460.651189</ele>
        <time>2021-10-12T15:59:59.662Z</time>
      </trkpt>
      <trkpt lat="43.0302" lon="0.57136">
        <ele>460.81327</ele>
        <time>2021-10-12T16:00:03.527Z</time>
      </trkpt>
      <trkpt lat="43.02986" lon="0.57129">
        <ele>461.214285</ele>
        <time>2021-10-12T16:00:13.079Z</time>
      </trkpt>
      <trkpt lat="43.02979" lon="0.57139">
        <ele>461.32716</ele>
        <time>2021-10-12T16:00:16.133Z</time>
      </trkpt>
      <trkpt lat="43.02973" lon="0.5715">
        <ele>461.454706</ele>
        <time>2021-10-12T16:00:18.769Z</time>
      </trkpt>
      <trkpt lat="43.02944" lon="0.57232">
        <ele>462.124729</ele>
        <time>2021-10-12T16:00:35.808Z</time>
      </trkpt>
      <trkpt lat="43.02913" lon="0.57313">
        <ele>462.213216</ele>
        <time>2021-10-12T16:00:52.860Z</time>
      </trkpt>
      <trkpt lat="43.02919" lon="0.57322">
        <ele>462.224701</ele>
        <time>2021-10-12T16:00:54.679Z</time>
      </trkpt>
      <trkpt lat="43.0293" lon="0.57358">
        <ele>462.26273</ele>
        <time>2021-10-12T16:01:01.327Z</time>
      </trkpt>
      <trkpt lat="43.0293" lon="0.57371">
        <ele>462.27566</ele>
        <time>2021-10-12T16:01:03.275Z</time>
      </trkpt>
      <trkpt lat="43.02897" lon="0.57448">
        <ele>462.312525</ele>
        <time>2021-10-12T16:01:17.039Z</time>
      </trkpt>
      <trkpt lat="43.02879" lon="0.57482">
        <ele>462.192125</ele>
        <time>2021-10-12T16:01:23.409Z</time>
      </trkpt>
      <trkpt lat="43.02777" lon="0.57595">
        <ele>461.685012</ele>
        <time>2021-10-12T16:01:50.851Z</time>
      </trkpt>
      <trkpt lat="43.02743" lon="0.57623">
        <ele>461.50476</ele>
        <time>2021-10-12T16:01:58.991Z</time>
      </trkpt>
      <trkpt lat="43.02736" lon="0.57627">
        <ele>461.469598</ele>
        <time>2021-10-12T16:02:00.540Z</time>
      </trkpt>
      <trkpt lat="43.02729" lon="0.57631">
        <ele>461.433704</ele>
        <time>2021-10-12T16:02:02.138Z</time>
      </trkpt>
      <trkpt lat="43.02726" lon="0.57633">
        <ele>461.417758</ele>
        <time>2021-10-12T16:02:02.935Z</time>
      </trkpt>
      <trkpt lat="43.02737" lon="0.57665">
        <ele>461.29732</ele>
        <time>2021-10-12T16:02:08.359Z</time>
      </trkpt>
      <trkpt lat="43.02747" lon="0.57686">
        <ele>461.212582</ele>
        <time>2021-10-12T16:02:12.264Z</time>
      </trkpt>
      <trkpt lat="43.02789" lon="0.5774">
        <ele>460.935908</ele>
        <time>2021-10-12T16:02:24.686Z</time>
      </trkpt>
      <trkpt lat="43.02822" lon="0.57767">
        <ele>460.745996</ele>
        <time>2021-10-12T16:02:32.963Z</time>
      </trkpt>
      <trkpt lat="43.02824" lon="0.57771">
        <ele>460.726084</ele>
        <time>2021-10-12T16:02:33.853Z</time>
      </trkpt>
      <trkpt lat="43.02811" lon="0.57852">
        <ele>460.392967</ele>
        <time>2021-10-12T16:02:46.763Z</time>
      </trkpt>
      <trkpt lat="43.0281" lon="0.57863">
        <ele>460.346674</ele>
        <time>2021-10-12T16:02:48.511Z</time>
      </trkpt>
      <trkpt lat="43.02811" lon="0.57907">
        <ele>460.169768</ele>
        <time>2021-10-12T16:02:55.318Z</time>
      </trkpt>
      <trkpt lat="43.02843" lon="0.58051">
        <ele>459.700651</ele>
        <time>2021-10-12T16:03:18.557Z</time>
      </trkpt>
      <trkpt lat="43.02865" lon="0.5818">
        <ele>459.466674</ele>
        <time>2021-10-12T16:03:40.306Z</time>
      </trkpt>
      <trkpt lat="43.02879" lon="0.5824">
        <ele>459.415669</ele>
        <time>2021-10-12T16:03:50.924Z</time>
      </trkpt>
      <trkpt lat="43.029" lon="0.58327">
        <ele>459.778573</ele>
        <time>2021-10-12T16:04:07.189Z</time>
      </trkpt>
      <trkpt lat="43.02919" lon="0.58422">
        <ele>460.168834</ele>
        <time>2021-10-12T16:04:25.767Z</time>
      </trkpt>
      <trkpt lat="43.02922" lon="0.58458">
        <ele>460.31413</ele>
        <time>2021-10-12T16:04:32.985Z</time>
      </trkpt>
      <trkpt lat="43.02881" lon="0.58732">
        <ele>461.75314</ele>
        <time>2021-10-12T16:05:27.581Z</time>
      </trkpt>
      <trkpt lat="43.02863" lon="0.58816">
        <ele>461.609424</ele>
        <time>2021-10-12T16:05:42.336Z</time>
      </trkpt>
      <trkpt lat="43.02845" lon="0.58896">
        <ele>461.473147</ele>
        <time>2021-10-12T16:05:55.360Z</time>
      </trkpt>
      <trkpt lat="43.0278" lon="0.59048">
        <ele>460.487076</ele>
        <time>2021-10-12T16:06:21.869Z</time>
      </trkpt>
      <trkpt lat="43.02763" lon="0.59108">
        <ele>460.023813</ele>
        <time>2021-10-12T16:06:31.436Z</time>
      </trkpt>
      <trkpt lat="43.02759" lon="0.59123">
        <ele>459.903407</ele>
        <time>2021-10-12T16:06:33.944Z</time>
      </trkpt>
      <trkpt lat="43.02752" lon="0.59134">
        <ele>459.800804</ele>
        <time>2021-10-12T16:06:35.949Z</time>
      </trkpt>
      <trkpt lat="43.02739" lon="0.59151">
        <ele>459.62417</ele>
        <time>2021-10-12T16:06:39.579Z</time>
      </trkpt>
      <trkpt lat="43.02737" lon="0.59156">
        <ele>459.525316</ele>
        <time>2021-10-12T16:06:40.459Z</time>
      </trkpt>
      <trkpt lat="43.02727" lon="0.59159">
        <ele>459.263106</ele>
        <time>2021-10-12T16:06:42.435Z</time>
      </trkpt>
      <trkpt lat="43.02707" lon="0.5917">
        <ele>458.741485</ele>
        <time>2021-10-12T16:06:46.405Z</time>
      </trkpt>
      <trkpt lat="43.02576" lon="0.5961">
        <ele>449.354012</ele>
        <time>2021-10-12T16:08:30.675Z</time>
      </trkpt>
      <trkpt lat="43.02574" lon="0.59615">
        <ele>449.245832</ele>
        <time>2021-10-12T16:08:31.236Z</time>
      </trkpt>
      <trkpt lat="43.02518" lon="0.5987">
        <ele>444.766502</ele>
        <time>2021-10-12T16:09:05.548Z</time>
      </trkpt>
      <trkpt lat="43.02518" lon="0.59928">
        <ele>444.421842</ele>
        <time>2021-10-12T16:09:14.358Z</time>
      </trkpt>
      <trkpt lat="43.02511" lon="0.59954">
        <ele>444.261116</ele>
        <time>2021-10-12T16:09:18.622Z</time>
      </trkpt>
      <trkpt lat="43.02492" lon="0.60007">
        <ele>443.908116</ele>
        <time>2021-10-12T16:09:28.499Z</time>
      </trkpt>
      <trkpt lat="43.0245" lon="0.60134">
        <ele>444.321989</ele>
        <time>2021-10-12T16:09:54.453Z</time>
      </trkpt>
      <trkpt lat="43.02444" lon="0.60149">
        <ele>444.444316</ele>
        <time>2021-10-12T16:09:57.987Z</time>
      </trkpt>
      <trkpt lat="43.02386" lon="0.60292">
        <ele>445.574618</ele>
        <time>2021-10-12T16:10:31.879Z</time>
      </trkpt>
      <trkpt lat="43.02377" lon="0.60312">
        <ele>445.723954</ele>
        <time>2021-10-12T16:10:36.719Z</time>
      </trkpt>
      <trkpt lat="43.02383" lon="0.60342">
        <ele>445.917453</ele>
        <time>2021-10-12T16:10:42.869Z</time>
      </trkpt>
      <trkpt lat="43.02389" lon="0.60417">
        <ele>446.391038</ele>
        <time>2021-10-12T16:10:57.322Z</time>
      </trkpt>
      <trkpt lat="43.02413" lon="0.60488">
        <ele>446.883833</ele>
        <time>2021-10-12T16:11:11.425Z</time>
      </trkpt>
      <trkpt lat="43.02417" lon="0.60497">
        <ele>446.932058</ele>
        <time>2021-10-12T16:11:13.019Z</time>
      </trkpt>
      <trkpt lat="43.02419" lon="0.60501">
        <ele>446.929772</ele>
        <time>2021-10-12T16:11:13.777Z</time>
      </trkpt>
      <trkpt lat="43.02414" lon="0.6051">
        <ele>446.923675</ele>
        <time>2021-10-12T16:11:15.832Z</time>
      </trkpt>
      <trkpt lat="43.02362" lon="0.60604">
        <ele>446.860897</ele>
        <time>2021-10-12T16:11:34.761Z</time>
      </trkpt>
      <trkpt lat="43.02356" lon="0.60617">
        <ele>446.852888</ele>
        <time>2021-10-12T16:11:36.948Z</time>
      </trkpt>
      <trkpt lat="43.02341" lon="0.60644">
        <ele>446.834812</ele>
        <time>2021-10-12T16:11:42.542Z</time>
      </trkpt>
      <trkpt lat="43.02341" lon="0.6065">
        <ele>446.831653</ele>
        <time>2021-10-12T16:11:43.385Z</time>
      </trkpt>
      <trkpt lat="43.02339" lon="0.60654">
        <ele>446.828776</ele>
        <time>2021-10-12T16:11:44.153Z</time>
      </trkpt>
      <trkpt lat="43.0231" lon="0.60702">
        <ele>446.789273</ele>
        <time>2021-10-12T16:11:53.892Z</time>
      </trkpt>
      <trkpt lat="43.02309" lon="0.60704">
        <ele>446.787431</ele>
        <time>2021-10-12T16:11:54.191Z</time>
      </trkpt>
      <trkpt lat="43.02306" lon="0.60709">
        <ele>446.781067</ele>
        <time>2021-10-12T16:11:55.259Z</time>
      </trkpt>
      <trkpt lat="43.02292" lon="0.6073">
        <ele>446.750846</ele>
        <time>2021-10-12T16:11:59.671Z</time>
      </trkpt>
      <trkpt lat="43.02285" lon="0.60739">
        <ele>446.737677</ele>
        <time>2021-10-12T16:12:01.724Z</time>
      </trkpt>
      <trkpt lat="43.02255" lon="0.60777">
        <ele>446.679698</ele>
        <time>2021-10-12T16:12:10.557Z</time>
      </trkpt>
      <trkpt lat="43.02233" lon="0.60806">
        <ele>446.636535</ele>
        <time>2021-10-12T16:12:17.132Z</time>
      </trkpt>
      <trkpt lat="43.02182" lon="0.60873">
        <ele>446.526024</ele>
        <time>2021-10-12T16:12:32.719Z</time>
      </trkpt>
      <trkpt lat="43.02173" lon="0.60885">
        <ele>446.490574</ele>
        <time>2021-10-12T16:12:35.687Z</time>
      </trkpt>
      <trkpt lat="43.02168" lon="0.60893">
        <ele>446.469802</ele>
        <time>2021-10-12T16:12:37.422Z</time>
      </trkpt>
      <trkpt lat="43.02165" lon="0.60897">
        <ele>446.458713</ele>
        <time>2021-10-12T16:12:38.324Z</time>
      </trkpt>
      <trkpt lat="43.02163" lon="0.60901">
        <ele>446.449283</ele>
        <time>2021-10-12T16:12:39.077Z</time>
      </trkpt>
      <trkpt lat="43.02155" lon="0.60914">
        <ele>446.415487</ele>
        <time>2021-10-12T16:12:41.635Z</time>
      </trkpt>
      <trkpt lat="43.02144" lon="0.60931">
        <ele>446.367599</ele>
        <time>2021-10-12T16:12:45.449Z</time>
      </trkpt>
      <trkpt lat="43.02139" lon="0.60939">
        <ele>446.347684</ele>
        <time>2021-10-12T16:12:47.001Z</time>
      </trkpt>
      <trkpt lat="43.02117" lon="0.60972">
        <ele>446.258131</ele>
        <time>2021-10-12T16:12:53.845Z</time>
      </trkpt>
      <trkpt lat="43.02114" lon="0.60976">
        <ele>446.246993</ele>
        <time>2021-10-12T16:12:54.651Z</time>
      </trkpt>
      <trkpt lat="43.02108" lon="0.60982">
        <ele>446.226419</ele>
        <time>2021-10-12T16:12:56.120Z</time>
      </trkpt>
      <trkpt lat="43.02084" lon="0.61">
        <ele>446.150312</ele>
        <time>2021-10-12T16:13:02.059Z</time>
      </trkpt>
      <trkpt lat="43.02079" lon="0.61003">
        <ele>446.135636</ele>
        <time>2021-10-12T16:13:03.062Z</time>
      </trkpt>
      <trkpt lat="43.02042" lon="0.61026">
        <ele>446.062229</ele>
        <time>2021-10-12T16:13:11.521Z</time>
      </trkpt>
      <trkpt lat="43.01979" lon="0.61063">
        <ele>446.11995</ele>
        <time>2021-10-12T16:13:25.769Z</time>
      </trkpt>
      <trkpt lat="43.01921" lon="0.61098">
        <ele>446.173767</ele>
        <time>2021-10-12T16:13:40.833Z</time>
      </trkpt>
      <trkpt lat="43.01912" lon="0.61104">
        <ele>446.182083</ele>
        <time>2021-10-12T16:13:43.194Z</time>
      </trkpt>
      <trkpt lat="43.01897" lon="0.61111">
        <ele>446.196154</ele>
        <time>2021-10-12T16:13:47.381Z</time>
      </trkpt>
      <trkpt lat="43.01888" lon="0.61115">
        <ele>446.20396</ele>
        <time>2021-10-12T16:13:49.679Z</time>
      </trkpt>
      <trkpt lat="43.0188" lon="0.6112">
        <ele>446.224325</ele>
        <time>2021-10-12T16:13:51.739Z</time>
      </trkpt>
      <trkpt lat="43.01871" lon="0.61123">
        <ele>446.250792</ele>
        <time>2021-10-12T16:13:54.171Z</time>
      </trkpt>
      <trkpt lat="43.01768" lon="0.6117">
        <ele>446.554229</ele>
        <time>2021-10-12T16:14:20.563Z</time>
      </trkpt>
      <trkpt lat="43.01745" lon="0.61181">
        <ele>446.624512</ele>
        <time>2021-10-12T16:14:26.093Z</time>
      </trkpt>
      <trkpt lat="43.017" lon="0.61203">
        <ele>446.578108</ele>
        <time>2021-10-12T16:14:36.296Z</time>
      </trkpt>
      <trkpt lat="43.01703" lon="0.61218">
        <ele>446.489672</ele>
        <time>2021-10-12T16:14:38.581Z</time>
      </trkpt>
      <trkpt lat="43.0172" lon="0.61286">
        <ele>446.090563</ele>
        <time>2021-10-12T16:14:49.555Z</time>
      </trkpt>
      <trkpt lat="43.01723" lon="0.61297">
        <ele>446.02415</ele>
        <time>2021-10-12T16:14:51.189Z</time>
      </trkpt>
      <trkpt lat="43.01604" lon="0.61375">
        <ele>445.331021</ele>
        <time>2021-10-12T16:15:17.569Z</time>
      </trkpt>
      <trkpt lat="43.01445" lon="0.61473">
        <ele>445.640657</ele>
        <time>2021-10-12T16:16:00.820Z</time>
      </trkpt>
      <trkpt lat="43.01275" lon="0.61569">
        <ele>447.137573</ele>
        <time>2021-10-12T16:16:50.606Z</time>
      </trkpt>
      <trkpt lat="43.01232" lon="0.61581">
        <ele>447.441438</ele>
        <time>2021-10-12T16:17:02.289Z</time>
      </trkpt>
      <trkpt lat="43.01155" lon="0.61592">
        <ele>447.974278</ele>
        <time>2021-10-12T16:17:21.909Z</time>
      </trkpt>
      <trkpt lat="43.01143" lon="0.61595">
        <ele>448.063545</ele>
        <time>2021-10-12T16:17:25.206Z</time>
      </trkpt>
      <trkpt lat="43.0109" lon="0.61593">
        <ele>448.086464</ele>
        <time>2021-10-12T16:17:37.765Z</time>
      </trkpt>
      <trkpt lat="43.0103" lon="0.61597">
        <ele>448.063172</ele>
        <time>2021-10-12T16:17:51.811Z</time>
      </trkpt>
      <trkpt lat="43.00343" lon="0.61917">
        <ele>446.187068</ele>
        <time>2021-10-12T16:20:30.625Z</time>
      </trkpt>
      <trkpt lat="43.00016" lon="0.62077">
        <ele>449.002055</ele>
        <time>2021-10-12T16:22:02.239Z</time>
      </trkpt>
      <trkpt lat="43.00018" lon="0.62093">
        <ele>449.161303</ele>
        <time>2021-10-12T16:22:06.386Z</time>
      </trkpt>
      <trkpt lat="42.99999" lon="0.621">
        <ele>449.440347</ele>
        <time>2021-10-12T16:22:12.929Z</time>
      </trkpt>
      <trkpt lat="42.99944" lon="0.62109">
        <ele>450.25494</ele>
        <time>2021-10-12T16:22:30.382Z</time>
      </trkpt>
      <trkpt lat="42.99797" lon="0.62181">
        <ele>453.518372</ele>
        <time>2021-10-12T16:23:20.881Z</time>
      </trkpt>
      <trkpt lat="42.99665" lon="0.62243">
        <ele>455.12098</ele>
        <time>2021-10-12T16:24:00.603Z</time>
      </trkpt>
      <trkpt lat="42.99649" lon="0.62254">
        <ele>455.30302</ele>
        <time>2021-10-12T16:24:05.153Z</time>
      </trkpt>
      <trkpt lat="42.99411" lon="0.62368">
        <ele>455.43343</ele>
        <time>2021-10-12T16:25:03.312Z</time>
      </trkpt>
      <trkpt lat="42.99352" lon="0.62456">
        <ele>454.860624</ele>
        <time>2021-10-12T16:25:21.670Z</time>
      </trkpt>
      <trkpt lat="42.99273" lon="0.62534">
        <ele>454.028716</ele>
        <time>2021-10-12T16:25:41.228Z</time>
      </trkpt>
      <trkpt lat="42.99103" lon="0.62645">
        <ele>452.395191</ele>
        <time>2021-10-12T16:26:18.357Z</time>
      </trkpt>
      <trkpt lat="42.99099" lon="0.6265">
        <ele>452.391758</ele>
        <time>2021-10-12T16:26:19.533Z</time>
      </trkpt>
      <trkpt lat="42.99106" lon="0.62652">
        <ele>452.387415</ele>
        <time>2021-10-12T16:26:21.285Z</time>
      </trkpt>
      <trkpt lat="42.99117" lon="0.62664">
        <ele>452.379889</ele>
        <time>2021-10-12T16:26:24.285Z</time>
      </trkpt>
      <trkpt lat="42.99118" lon="0.62667">
        <ele>452.378527</ele>
        <time>2021-10-12T16:26:24.836Z</time>
      </trkpt>
      <trkpt lat="42.99119" lon="0.62672">
        <ele>452.376484</ele>
        <time>2021-10-12T16:26:25.649Z</time>
      </trkpt>
      <trkpt lat="42.99115" lon="0.62697">
        <ele>452.365941</ele>
        <time>2021-10-12T16:26:29.778Z</time>
      </trkpt>
      <trkpt lat="42.9911" lon="0.6271">
        <ele>452.360157</ele>
        <time>2021-10-12T16:26:32.222Z</time>
      </trkpt>
      <trkpt lat="42.99087" lon="0.6276">
        <ele>452.336124</ele>
        <time>2021-10-12T16:26:42.689Z</time>
      </trkpt>
      <trkpt lat="42.98971" lon="0.63015">
        <ele>454.574316</ele>
        <time>2021-10-12T16:27:42.836Z</time>
      </trkpt>
      <trkpt lat="42.98964" lon="0.63007">
        <ele>454.642077</ele>
        <time>2021-10-12T16:27:45.331Z</time>
      </trkpt>
      <trkpt lat="42.98949" lon="0.62996">
        <ele>454.76414</ele>
        <time>2021-10-12T16:27:49.932Z</time>
      </trkpt>
      <trkpt lat="42.98936" lon="0.62995">
        <ele>454.858826</ele>
        <time>2021-10-12T16:27:53.438Z</time>
      </trkpt>
      <trkpt lat="42.98931" lon="0.62998">
        <ele>454.897843</ele>
        <time>2021-10-12T16:27:54.769Z</time>
      </trkpt>
      <trkpt lat="42.98931" lon="0.63037">
        <ele>455.10625</ele>
        <time>2021-10-12T16:28:02.278Z</time>
      </trkpt>
      <trkpt lat="42.98931" lon="0.63041">
        <ele>455.128044</ele>
        <time>2021-10-12T16:28:03.091Z</time>
      </trkpt>
      <trkpt lat="42.98931" lon="0.63051">
        <ele>455.180184</ele>
        <time>2021-10-12T16:28:05.278Z</time>
      </trkpt>
      <trkpt lat="42.98931" lon="0.63059">
        <ele>455.221652</ele>
        <time>2021-10-12T16:28:07.138Z</time>
      </trkpt>
      <trkpt lat="42.98912" lon="0.63068">
        <ele>455.372422</ele>
        <time>2021-10-12T16:28:12.175Z</time>
      </trkpt>
      <trkpt lat="42.98859" lon="0.63107">
        <ele>455.792574</ele>
        <time>2021-10-12T16:28:26.242Z</time>
      </trkpt>
      <trkpt lat="42.98819" lon="0.63156">
        <ele>455.992427</ele>
        <time>2021-10-12T16:28:38.947Z</time>
      </trkpt>
      <trkpt lat="42.98807" lon="0.63175">
        <ele>456.062405</ele>
        <time>2021-10-12T16:28:43.379Z</time>
      </trkpt>
      <trkpt lat="42.98749" lon="0.63276">
        <ele>456.41405</ele>
        <time>2021-10-12T16:29:05.571Z</time>
      </trkpt>
      <trkpt lat="42.98708" lon="0.63346">
        <ele>456.734783</ele>
        <time>2021-10-12T16:29:21.483Z</time>
      </trkpt>
      <trkpt lat="42.98655" lon="0.63438">
        <ele>457.171379</ele>
        <time>2021-10-12T16:29:42.400Z</time>
      </trkpt>
      <trkpt lat="42.98626" lon="0.63487">
        <ele>457.438567</ele>
        <time>2021-10-12T16:29:53.630Z</time>
      </trkpt>
      <trkpt lat="42.98617" lon="0.63503">
        <ele>457.569787</ele>
        <time>2021-10-12T16:29:57.236Z</time>
      </trkpt>
      <trkpt lat="42.98598" lon="0.63534">
        <ele>457.8419</ele>
        <time>2021-10-12T16:30:04.596Z</time>
      </trkpt>
      <trkpt lat="42.98568" lon="0.63586">
        <ele>458.286479</ele>
        <time>2021-10-12T16:30:16.852Z</time>
      </trkpt>
      <trkpt lat="42.98552" lon="0.63612">
        <ele>458.513293</ele>
        <time>2021-10-12T16:30:22.991Z</time>
      </trkpt>
      <trkpt lat="42.98531" lon="0.63645">
        <ele>458.808409</ele>
        <time>2021-10-12T16:30:31.245Z</time>
      </trkpt>
      <trkpt lat="42.98519" lon="0.63661">
        <ele>458.962832</ele>
        <time>2021-10-12T16:30:36.166Z</time>
      </trkpt>
      <trkpt lat="42.98477" lon="0.63705">
        <ele>460.670648</ele>
        <time>2021-10-12T16:30:51.697Z</time>
      </trkpt>
      <trkpt lat="42.98431" lon="0.6374">
        <ele>462.524075</ele>
        <time>2021-10-12T16:31:07.854Z</time>
      </trkpt>
      <trkpt lat="42.98405" lon="0.63758">
        <ele>463.545071</ele>
        <time>2021-10-12T16:31:19.642Z</time>
      </trkpt>
      <trkpt lat="42.98386" lon="0.63771">
        <ele>464.286826</ele>
        <time>2021-10-12T16:31:29.242Z</time>
      </trkpt>
      <trkpt lat="42.98301" lon="0.63835">
        <ele>469.418663</ele>
        <time>2021-10-12T16:32:14.769Z</time>
      </trkpt>
      <trkpt lat="42.98289" lon="0.63846">
        <ele>470.271244</ele>
        <time>2021-10-12T16:32:21.617Z</time>
      </trkpt>
      <trkpt lat="42.98273" lon="0.63866">
        <ele>471.592406</ele>
        <time>2021-10-12T16:32:32.547Z</time>
      </trkpt>
      <trkpt lat="42.9819" lon="0.63966">
        <ele>477.108373</ele>
        <time>2021-10-12T16:33:23.568Z</time>
      </trkpt>
      <trkpt lat="42.98166" lon="0.63988">
        <ele>477.87228</ele>
        <time>2021-10-12T16:33:36.047Z</time>
      </trkpt>
      <trkpt lat="42.98106" lon="0.64025">
        <ele>479.595069</ele>
        <time>2021-10-12T16:33:53.517Z</time>
      </trkpt>
      <trkpt lat="42.98028" lon="0.64065">
        <ele>481.235887</ele>
        <time>2021-10-12T16:34:14.270Z</time>
      </trkpt>
      <trkpt lat="42.98014" lon="0.64074">
        <ele>481.38001</ele>
        <time>2021-10-12T16:34:18.025Z</time>
      </trkpt>
      <trkpt lat="42.98" lon="0.64085">
        <ele>481.525838</ele>
        <time>2021-10-12T16:34:22.153Z</time>
      </trkpt>
      <trkpt lat="42.9795" lon="0.64139">
        <ele>482.118294</ele>
        <time>2021-10-12T16:34:38.375Z</time>
      </trkpt>
      <trkpt lat="42.97941" lon="0.64153">
        <ele>482.24226</ele>
        <time>2021-10-12T16:34:42.110Z</time>
      </trkpt>
      <trkpt lat="42.97936" lon="0.64159">
        <ele>482.302629</ele>
        <time>2021-10-12T16:34:44.413Z</time>
      </trkpt>
      <trkpt lat="42.9784" lon="0.64365">
        <ele>482.881636</ele>
        <time>2021-10-12T16:35:31.805Z</time>
      </trkpt>
      <trkpt lat="42.97814" lon="0.64413">
        <ele>482.778676</ele>
        <time>2021-10-12T16:35:38.952Z</time>
      </trkpt>
      <trkpt lat="42.97777" lon="0.64464">
        <ele>481.941147</ele>
        <time>2021-10-12T16:35:48.036Z</time>
      </trkpt>
      <trkpt lat="42.97719" lon="0.64514">
        <ele>480.844803</ele>
        <time>2021-10-12T16:35:59.939Z</time>
      </trkpt>
      <trkpt lat="42.97704" lon="0.64523">
        <ele>480.583674</ele>
        <time>2021-10-12T16:36:02.452Z</time>
      </trkpt>
      <trkpt lat="42.97703" lon="0.64531">
        <ele>480.4806</ele>
        <time>2021-10-12T16:36:04.829Z</time>
      </trkpt>
      <trkpt lat="42.97697" lon="0.64544">
        <ele>480.309437</ele>
        <time>2021-10-12T16:36:08.375Z</time>
      </trkpt>
      <trkpt lat="42.97678" lon="0.64583">
        <ele>480.226695</ele>
        <time>2021-10-12T16:36:16.144Z</time>
      </trkpt>
      <trkpt lat="42.9764" lon="0.64648">
        <ele>480.722265</ele>
        <time>2021-10-12T16:36:30.188Z</time>
      </trkpt>
      <trkpt lat="42.97635" lon="0.64677">
        <ele>480.898865</ele>
        <time>2021-10-12T16:36:36.700Z</time>
      </trkpt>
      <trkpt lat="42.97636" lon="0.64713">
        <ele>481.108744</ele>
        <time>2021-10-12T16:36:45.483Z</time>
      </trkpt>
      <trkpt lat="42.97633" lon="0.64732">
        <ele>481.223245</ele>
        <time>2021-10-12T16:36:50.117Z</time>
      </trkpt>
      <trkpt lat="42.97624" lon="0.64776">
        <ele>481.496344</ele>
        <time>2021-10-12T16:37:00.217Z</time>
      </trkpt>
      <trkpt lat="42.97597" lon="0.64813">
        <ele>481.14831</ele>
        <time>2021-10-12T16:37:09.818Z</time>
      </trkpt>
      <trkpt lat="42.9759" lon="0.64853">
        <ele>480.812406</ele>
        <time>2021-10-12T16:37:17.053Z</time>
      </trkpt>
      <trkpt lat="42.97578" lon="0.64888">
        <ele>480.499166</ele>
        <time>2021-10-12T16:37:23.463Z</time>
      </trkpt>
      <trkpt lat="42.97575" lon="0.64899">
        <ele>480.400654</ele>
        <time>2021-10-12T16:37:25.020Z</time>
      </trkpt>
      <trkpt lat="42.97572" lon="0.64908">
        <ele>480.317917</ele>
        <time>2021-10-12T16:37:26.226Z</time>
      </trkpt>
      <trkpt lat="42.97564" lon="0.6493">
        <ele>480.11766</ele>
        <time>2021-10-12T16:37:29.172Z</time>
      </trkpt>
      <trkpt lat="42.97553" lon="0.64947">
        <ele>479.935624</ele>
        <time>2021-10-12T16:37:31.735Z</time>
      </trkpt>
      <trkpt lat="42.97533" lon="0.65098">
        <ele>479.340929</ele>
        <time>2021-10-12T16:37:50.574Z</time>
      </trkpt>
      <trkpt lat="42.97527" lon="0.65112">
        <ele>479.313663</ele>
        <time>2021-10-12T16:37:52.584Z</time>
      </trkpt>
      <trkpt lat="42.97522" lon="0.65116">
        <ele>479.299008</ele>
        <time>2021-10-12T16:37:53.812Z</time>
      </trkpt>
      <trkpt lat="42.97518" lon="0.65118">
        <ele>479.289948</ele>
        <time>2021-10-12T16:37:54.667Z</time>
      </trkpt>
      <trkpt lat="42.9751" lon="0.65122">
        <ele>479.268537</ele>
        <time>2021-10-12T16:37:56.294Z</time>
      </trkpt>
      <trkpt lat="42.975" lon="0.65133">
        <ele>479.240261</ele>
        <time>2021-10-12T16:37:58.939Z</time>
      </trkpt>
      <trkpt lat="42.97495" lon="0.65141">
        <ele>479.221408</ele>
        <time>2021-10-12T16:38:00.514Z</time>
      </trkpt>
      <trkpt lat="42.97501" lon="0.65144">
        <ele>479.204684</ele>
        <time>2021-10-12T16:38:03.101Z</time>
      </trkpt>
      <trkpt lat="42.97507" lon="0.65159">
        <ele>479.176412</ele>
        <time>2021-10-12T16:38:06.790Z</time>
      </trkpt>
      <trkpt lat="42.9751" lon="0.65189">
        <ele>479.123775</ele>
        <time>2021-10-12T16:38:13.942Z</time>
      </trkpt>
      <trkpt lat="42.97537" lon="0.65237">
        <ele>481.568298</ele>
        <time>2021-10-12T16:38:32.566Z</time>
      </trkpt>
      <trkpt lat="42.9754" lon="0.65259">
        <ele>482.79722</ele>
        <time>2021-10-12T16:38:39.041Z</time>
      </trkpt>
      <trkpt lat="42.97568" lon="0.65284">
        <ele>485.422876</ele>
        <time>2021-10-12T16:38:55.609Z</time>
      </trkpt>
      <trkpt lat="42.97566" lon="0.65297">
        <ele>486.131795</ele>
        <time>2021-10-12T16:38:59.748Z</time>
      </trkpt>
      <trkpt lat="42.97563" lon="0.6532">
        <ele>487.480389</ele>
        <time>2021-10-12T16:39:10.731Z</time>
      </trkpt>
      <trkpt lat="42.9756" lon="0.65348">
        <ele>489.088174</ele>
        <time>2021-10-12T16:39:21.389Z</time>
      </trkpt>
      <trkpt lat="42.97561" lon="0.6537">
        <ele>490.292115</ele>
        <time>2021-10-12T16:39:32.523Z</time>
      </trkpt>
      <trkpt lat="42.97551" lon="0.65441">
        <ele>495.287767</ele>
        <time>2021-10-12T16:40:07.808Z</time>
      </trkpt>
      <trkpt lat="42.97538" lon="0.65467">
        <ele>498.210438</ele>
        <time>2021-10-12T16:40:25.467Z</time>
      </trkpt>
      <trkpt lat="42.97505" lon="0.6552">
        <ele>504.643503</ele>
        <time>2021-10-12T16:41:02.637Z</time>
      </trkpt>
      <trkpt lat="42.97498" lon="0.65583">
        <ele>510.602095</ele>
        <time>2021-10-12T16:41:38.235Z</time>
      </trkpt>
      <trkpt lat="42.97503" lon="0.65626">
        <ele>514.560736</ele>
        <time>2021-10-12T16:42:00.832Z</time>
      </trkpt>
      <trkpt lat="42.97621" lon="0.65669">
        <ele>529.48499</ele>
        <time>2021-10-12T16:43:34.899Z</time>
      </trkpt>
      <trkpt lat="42.97682" lon="0.65712">
        <ele>537.73311</ele>
        <time>2021-10-12T16:44:18.769Z</time>
      </trkpt>
      <trkpt lat="42.97713" lon="0.65744">
        <ele>540.884878</ele>
        <time>2021-10-12T16:44:41.273Z</time>
      </trkpt>
      <trkpt lat="42.97701" lon="0.65754">
        <ele>542.043771</ele>
        <time>2021-10-12T16:44:50.587Z</time>
      </trkpt>
      <trkpt lat="42.97683" lon="0.65755">
        <ele>543.458483</ele>
        <time>2021-10-12T16:44:59.823Z</time>
      </trkpt>
      <trkpt lat="42.97659" lon="0.65783">
        <ele>546.092644</ele>
        <time>2021-10-12T16:45:17.752Z</time>
      </trkpt>
      <trkpt lat="42.97643" lon="0.65811">
        <ele>548.195688</ele>
        <time>2021-10-12T16:45:31.836Z</time>
      </trkpt>
      <trkpt lat="42.97612" lon="0.65876">
        <ele>552.605212</ele>
        <time>2021-10-12T16:45:58.506Z</time>
      </trkpt>
      <trkpt lat="42.9761" lon="0.65894">
        <ele>553.414137</ele>
        <time>2021-10-12T16:46:05.494Z</time>
      </trkpt>
      <trkpt lat="42.97588" lon="0.65935">
        <ele>555.663698</ele>
        <time>2021-10-12T16:46:21.565Z</time>
      </trkpt>
      <trkpt lat="42.97591" lon="0.65996">
        <ele>558.374175</ele>
        <time>2021-10-12T16:46:42.056Z</time>
      </trkpt>
      <trkpt lat="42.97586" lon="0.66009">
        <ele>558.991563</ele>
        <time>2021-10-12T16:46:46.354Z</time>
      </trkpt>
      <trkpt lat="42.97547" lon="0.66036">
        <ele>561.626052</ele>
        <time>2021-10-12T16:47:07.899Z</time>
      </trkpt>
      <trkpt lat="42.97502" lon="0.66048">
        <ele>564.181176</ele>
        <time>2021-10-12T16:47:29.413Z</time>
      </trkpt>
      <trkpt lat="42.97462" lon="0.66067">
        <ele>566.277725</ele>
        <time>2021-10-12T16:47:47.876Z</time>
      </trkpt>
      <trkpt lat="42.97447" lon="0.66077">
        <ele>567.109023</ele>
        <time>2021-10-12T16:47:55.003Z</time>
      </trkpt>
      <trkpt lat="42.97441" lon="0.66091">
        <ele>567.703203</ele>
        <time>2021-10-12T16:48:00.280Z</time>
      </trkpt>
      <trkpt lat="42.9744" lon="0.66108">
        <ele>568.314993</ele>
        <time>2021-10-12T16:48:05.633Z</time>
      </trkpt>
      <trkpt lat="42.97447" lon="0.66123">
        <ele>568.936245</ele>
        <time>2021-10-12T16:48:10.874Z</time>
      </trkpt>
      <trkpt lat="42.97463" lon="0.66135">
        <ele>569.851735</ele>
        <time>2021-10-12T16:48:18.683Z</time>
      </trkpt>
      <trkpt lat="42.97512" lon="0.66121">
        <ele>572.213855</ele>
        <time>2021-10-12T16:48:37.937Z</time>
      </trkpt>
      <trkpt lat="42.97541" lon="0.66121">
        <ele>573.083054</ele>
        <time>2021-10-12T16:48:47.984Z</time>
      </trkpt>
      <trkpt lat="42.97599" lon="0.66135">
        <ele>574.919297</ele>
        <time>2021-10-12T16:49:07.471Z</time>
      </trkpt>
      <trkpt lat="42.97629" lon="0.66122">
        <ele>575.87454</ele>
        <time>2021-10-12T16:49:17.112Z</time>
      </trkpt>
      <trkpt lat="42.97643" lon="0.66092">
        <ele>576.677703</ele>
        <time>2021-10-12T16:49:25.858Z</time>
      </trkpt>
      <trkpt lat="42.97669" lon="0.66075">
        <ele>577.608151</ele>
        <time>2021-10-12T16:49:36.279Z</time>
      </trkpt>
      <trkpt lat="42.97701" lon="0.66066">
        <ele>579.000994</ele>
        <time>2021-10-12T16:49:47.984Z</time>
      </trkpt>
      <trkpt lat="42.97721" lon="0.66069">
        <ele>579.904816</ele>
        <time>2021-10-12T16:49:55.937Z</time>
      </trkpt>
      <trkpt lat="42.97748" lon="0.66087">
        <ele>581.209228</ele>
        <time>2021-10-12T16:50:06.753Z</time>
      </trkpt>
      <trkpt lat="42.97761" lon="0.66114">
        <ele>582.231732</ele>
        <time>2021-10-12T16:50:16.017Z</time>
      </trkpt>
      <trkpt lat="42.97762" lon="0.66121">
        <ele>582.439977</ele>
        <time>2021-10-12T16:50:17.693Z</time>
      </trkpt>
      <trkpt lat="42.97761" lon="0.6614">
        <ele>583.057543</ele>
        <time>2021-10-12T16:50:24.169Z</time>
      </trkpt>
      <trkpt lat="42.97756" lon="0.66172">
        <ele>584.103526</ele>
        <time>2021-10-12T16:50:33.656Z</time>
      </trkpt>
      <trkpt lat="42.97704" lon="0.66326">
        <ele>590.182163</ele>
        <time>2021-10-12T16:51:31.071Z</time>
      </trkpt>
      <trkpt lat="42.97648" lon="0.66462">
        <ele>595.064139</ele>
        <time>2021-10-12T16:52:16.269Z</time>
      </trkpt>
      <trkpt lat="42.97608" lon="0.66486">
        <ele>595.98949</ele>
        <time>2021-10-12T16:52:31.617Z</time>
      </trkpt>
      <trkpt lat="42.9757" lon="0.66505">
        <ele>596.83669</ele>
        <time>2021-10-12T16:52:44.201Z</time>
      </trkpt>
      <trkpt lat="42.97559" lon="0.66512">
        <ele>597.098819</ele>
        <time>2021-10-12T16:52:47.941Z</time>
      </trkpt>
      <trkpt lat="42.97548" lon="0.66518">
        <ele>597.353919</ele>
        <time>2021-10-12T16:52:51.319Z</time>
      </trkpt>
      <trkpt lat="42.9749" lon="0.66551">
        <ele>598.137687</ele>
        <time>2021-10-12T16:53:06.625Z</time>
      </trkpt>
      <trkpt lat="42.97488" lon="0.66553">
        <ele>598.126709</ele>
        <time>2021-10-12T16:53:07.191Z</time>
      </trkpt>
      <trkpt lat="42.97406" lon="0.6661">
        <ele>597.750328</ele>
        <time>2021-10-12T16:53:25.021Z</time>
      </trkpt>
      <trkpt lat="42.97351" lon="0.6661">
        <ele>597.522977</ele>
        <time>2021-10-12T16:53:35.832Z</time>
      </trkpt>
      <trkpt lat="42.97322" lon="0.66605">
        <ele>598.542905</ele>
        <time>2021-10-12T16:53:44.460Z</time>
      </trkpt>
      <trkpt lat="42.97296" lon="0.6658">
        <ele>600.229093</ele>
        <time>2021-10-12T16:53:54.592Z</time>
      </trkpt>
      <trkpt lat="42.97271" lon="0.66577">
        <ele>601.568771</ele>
        <time>2021-10-12T16:54:05.203Z</time>
      </trkpt>
      <trkpt lat="42.97256" lon="0.66573">
        <ele>602.356808</ele>
        <time>2021-10-12T16:54:13.582Z</time>
      </trkpt>
      <trkpt lat="42.97249" lon="0.66573">
        <ele>602.759853</ele>
        <time>2021-10-12T16:54:17.448Z</time>
      </trkpt>
      <trkpt lat="42.97244" lon="0.66576">
        <ele>603.017412</ele>
        <time>2021-10-12T16:54:19.107Z</time>
      </trkpt>
      <trkpt lat="42.97234" lon="0.66582">
        <ele>603.62427</ele>
        <time>2021-10-12T16:54:24.304Z</time>
      </trkpt>
      <trkpt lat="42.97215" lon="0.6659">
        <ele>604.68797</ele>
        <time>2021-10-12T16:54:36.016Z</time>
      </trkpt>
      <trkpt lat="42.972" lon="0.66609">
        <ele>605.748934</ele>
        <time>2021-10-12T16:54:45.127Z</time>
      </trkpt>
      <trkpt lat="42.9719" lon="0.6662">
        <ele>606.415279</ele>
        <time>2021-10-12T16:54:54.239Z</time>
      </trkpt>
      <trkpt lat="42.97156" lon="0.66654">
        <ele>609.932175</ele>
        <time>2021-10-12T16:55:17.926Z</time>
      </trkpt>
      <trkpt lat="42.97138" lon="0.66684">
        <ele>612.521162</ele>
        <time>2021-10-12T16:55:36.747Z</time>
      </trkpt>
      <trkpt lat="42.97091" lon="0.66621">
        <ele>618.536267</ele>
        <time>2021-10-12T16:56:17.712Z</time>
      </trkpt>
      <trkpt lat="42.97077" lon="0.66613">
        <ele>619.963496</ele>
        <time>2021-10-12T16:56:28.000Z</time>
      </trkpt>
      <trkpt lat="42.97061" lon="0.66618">
        <ele>621.461479</ele>
        <time>2021-10-12T16:56:36.780Z</time>
      </trkpt>
      <trkpt lat="42.97051" lon="0.66635">
        <ele>622.910282</ele>
        <time>2021-10-12T16:56:45.176Z</time>
      </trkpt>
      <trkpt lat="42.9705" lon="0.66652">
        <ele>623.987144</ele>
        <time>2021-10-12T16:56:51.343Z</time>
      </trkpt>
      <trkpt lat="42.97059" lon="0.66671">
        <ele>625.257253</ele>
        <time>2021-10-12T16:57:02.302Z</time>
      </trkpt>
      <trkpt lat="42.97081" lon="0.66695">
        <ele>627.397722</ele>
        <time>2021-10-12T16:57:15.971Z</time>
      </trkpt>
      <trkpt lat="42.97124" lon="0.66735">
        <ele>631.323337</ele>
        <time>2021-10-12T16:57:42.718Z</time>
      </trkpt>
      <trkpt lat="42.97129" lon="0.66739">
        <ele>631.728059</ele>
        <time>2021-10-12T16:57:44.706Z</time>
      </trkpt>
      <trkpt lat="42.97159" lon="0.66771">
        <ele>634.622414</ele>
        <time>2021-10-12T16:58:04.291Z</time>
      </trkpt>
      <trkpt lat="42.97172" lon="0.66804">
        <ele>636.706312</ele>
        <time>2021-10-12T16:58:19.837Z</time>
      </trkpt>
      <trkpt lat="42.9718" lon="0.66903">
        <ele>641.14083</ele>
        <time>2021-10-12T16:58:57.552Z</time>
      </trkpt>
      <trkpt lat="42.9723" lon="0.66967">
        <ele>645.242695</ele>
        <time>2021-10-12T16:59:29.722Z</time>
      </trkpt>
      <trkpt lat="42.97243" lon="0.66994">
        <ele>646.66104</ele>
        <time>2021-10-12T16:59:39.473Z</time>
      </trkpt>
      <trkpt lat="42.97246" lon="0.67023">
        <ele>647.926475</ele>
        <time>2021-10-12T16:59:47.490Z</time>
      </trkpt>
      <trkpt lat="42.97252" lon="0.67033">
        <ele>648.225586</ele>
        <time>2021-10-12T16:59:51.117Z</time>
      </trkpt>
      <trkpt lat="42.97349" lon="0.67072">
        <ele>651.151721</ele>
        <time>2021-10-12T17:00:24.164Z</time>
      </trkpt>
      <trkpt lat="42.97418" lon="0.67074">
        <ele>653.181894</ele>
        <time>2021-10-12T17:00:45.870Z</time>
      </trkpt>
      <trkpt lat="42.97496" lon="0.67117">
        <ele>656.847855</ele>
        <time>2021-10-12T17:01:15.969Z</time>
      </trkpt>
      <trkpt lat="42.97529" lon="0.67129">
        <ele>658.295301</ele>
        <time>2021-10-12T17:01:29.378Z</time>
      </trkpt>
      <trkpt lat="42.97639" lon="0.67216">
        <ele>665.197876</ele>
        <time>2021-10-12T17:02:27.947Z</time>
      </trkpt>
      <trkpt lat="42.9772" lon="0.67209">
        <ele>670.379316</ele>
        <time>2021-10-12T17:03:07.250Z</time>
      </trkpt>
      <trkpt lat="42.97751" lon="0.67223">
        <ele>672.489844</ele>
        <time>2021-10-12T17:03:23.586Z</time>
      </trkpt>
      <trkpt lat="42.9783" lon="0.67307">
        <ele>679.51457</ele>
        <time>2021-10-12T17:04:14.670Z</time>
      </trkpt>
      <trkpt lat="42.97964" lon="0.67527">
        <ele>693.06593</ele>
        <time>2021-10-12T17:05:59.548Z</time>
      </trkpt>
      <trkpt lat="42.98008" lon="0.67588">
        <ele>696.642081</ele>
        <time>2021-10-12T17:06:25.488Z</time>
      </trkpt>
      <trkpt lat="42.9806" lon="0.67644">
        <ele>699.029846</ele>
        <time>2021-10-12T17:06:48.962Z</time>
      </trkpt>
      <trkpt lat="42.98182" lon="0.67731">
        <ele>704.352886</ele>
        <time>2021-10-12T17:07:37.581Z</time>
      </trkpt>
      <trkpt lat="42.98205" lon="0.67767">
        <ele>705.944197</ele>
        <time>2021-10-12T17:07:51.592Z</time>
      </trkpt>
      <trkpt lat="42.98215" lon="0.67818">
        <ele>707.685177</ele>
        <time>2021-10-12T17:08:07.794Z</time>
      </trkpt>
      <trkpt lat="42.98218" lon="0.67895">
        <ele>710.250676</ele>
        <time>2021-10-12T17:08:32.519Z</time>
      </trkpt>
      <trkpt lat="42.98225" lon="0.6794">
        <ele>711.606138</ele>
        <time>2021-10-12T17:08:46.682Z</time>
      </trkpt>
      <trkpt lat="42.98237" lon="0.67967">
        <ele>712.456875</ele>
        <time>2021-10-12T17:08:55.935Z</time>
      </trkpt>
      <trkpt lat="42.9825" lon="0.67981">
        <ele>713.093156</ele>
        <time>2021-10-12T17:09:02.760Z</time>
      </trkpt>
      <trkpt lat="42.98285" lon="0.67988">
        <ele>714.420405</ele>
        <time>2021-10-12T17:09:15.925Z</time>
      </trkpt>
      <trkpt lat="42.98314" lon="0.67986">
        <ele>715.480532</ele>
        <time>2021-10-12T17:09:25.581Z</time>
      </trkpt>
      <trkpt lat="42.9839" lon="0.68023">
        <ele>718.768436</ele>
        <time>2021-10-12T17:09:52.797Z</time>
      </trkpt>
      <trkpt lat="42.98449" lon="0.68078">
        <ele>722.14996</ele>
        <time>2021-10-12T17:10:18.827Z</time>
      </trkpt>
      <trkpt lat="42.98487" lon="0.6813">
        <ele>724.732841</ele>
        <time>2021-10-12T17:10:42.443Z</time>
      </trkpt>
      <trkpt lat="42.98529" lon="0.68227">
        <ele>730.155737</ele>
        <time>2021-10-12T17:11:24.962Z</time>
      </trkpt>
      <trkpt lat="42.98548" lon="0.68317">
        <ele>735.494009</ele>
        <time>2021-10-12T17:12:04.169Z</time>
      </trkpt>
      <trkpt lat="42.98542" lon="0.68366">
        <ele>738.286824</ele>
        <time>2021-10-12T17:12:24.579Z</time>
      </trkpt>
      <trkpt lat="42.98543" lon="0.68386">
        <ele>739.39517</ele>
        <time>2021-10-12T17:12:32.357Z</time>
      </trkpt>
      <trkpt lat="42.9855" lon="0.68405">
        <ele>740.482844</ele>
        <time>2021-10-12T17:12:40.754Z</time>
      </trkpt>
      <trkpt lat="42.98654" lon="0.68515">
        <ele>747.959702</ele>
        <time>2021-10-12T17:13:39.863Z</time>
      </trkpt>
      <trkpt lat="42.98699" lon="0.68602">
        <ele>752.004923</ele>
        <time>2021-10-12T17:14:10.707Z</time>
      </trkpt>
      <trkpt lat="42.98734" lon="0.68764">
        <ele>757.693969</ele>
        <time>2021-10-12T17:14:59.846Z</time>
      </trkpt>
      <trkpt lat="42.98738" lon="0.68801">
        <ele>759.061905</ele>
        <time>2021-10-12T17:15:11.755Z</time>
      </trkpt>
      <trkpt lat="42.98736" lon="0.68829">
        <ele>760.229618</ele>
        <time>2021-10-12T17:15:20.912Z</time>
      </trkpt>
      <trkpt lat="42.98724" lon="0.68874">
        <ele>762.220867</ele>
        <time>2021-10-12T17:15:36.586Z</time>
      </trkpt>
      <trkpt lat="42.98728" lon="0.68901">
        <ele>763.338681</ele>
        <time>2021-10-12T17:15:45.427Z</time>
      </trkpt>
      <trkpt lat="42.98741" lon="0.68919">
        <ele>764.400398</ele>
        <time>2021-10-12T17:15:53.804Z</time>
      </trkpt>
      <trkpt lat="42.98761" lon="0.68929">
        <ele>765.622968</ele>
        <time>2021-10-12T17:16:03.471Z</time>
      </trkpt>
      <trkpt lat="42.98803" lon="0.68936">
        <ele>768.013449</ele>
        <time>2021-10-12T17:16:22.404Z</time>
      </trkpt>
      <trkpt lat="42.98822" lon="0.68949">
        <ele>769.328556</ele>
        <time>2021-10-12T17:16:32.443Z</time>
      </trkpt>
      <trkpt lat="42.98836" lon="0.68972">
        <ele>770.897676</ele>
        <time>2021-10-12T17:16:42.685Z</time>
      </trkpt>
      <trkpt lat="42.98881" lon="0.69096">
        <ele>778.289679</ele>
        <time>2021-10-12T17:17:35.037Z</time>
      </trkpt>
      <trkpt lat="42.98892" lon="0.6916">
        <ele>781.788613</ele>
        <time>2021-10-12T17:18:01.541Z</time>
      </trkpt>
      <trkpt lat="42.98875" lon="0.6922">
        <ele>784.715476</ele>
        <time>2021-10-12T17:18:28.138Z</time>
      </trkpt>
      <trkpt lat="42.98881" lon="0.69256">
        <ele>786.37086</ele>
        <time>2021-10-12T17:18:39.180Z</time>
      </trkpt>
      <trkpt lat="42.98882" lon="0.69258">
        <ele>786.505124</ele>
        <time>2021-10-12T17:18:41.757Z</time>
      </trkpt>
      <trkpt lat="42.9893" lon="0.69345">
        <ele>791.404383</ele>
        <time>2021-10-12T17:19:16.628Z</time>
      </trkpt>
      <trkpt lat="42.98944" lon="0.69353">
        <ele>792.358332</ele>
        <time>2021-10-12T17:19:21.674Z</time>
      </trkpt>
      <trkpt lat="42.98964" lon="0.69355">
        <ele>793.239274</ele>
        <time>2021-10-12T17:19:31.818Z</time>
      </trkpt>
      <trkpt lat="42.98985" lon="0.69346">
        <ele>793.741629</ele>
        <time>2021-10-12T17:19:38.650Z</time>
      </trkpt>
      <trkpt lat="42.99009" lon="0.69329">
        <ele>794.378869</ele>
        <time>2021-10-12T17:19:49.667Z</time>
      </trkpt>
      <trkpt lat="42.99014" lon="0.69328">
        <ele>794.499221</ele>
        <time>2021-10-12T17:19:51.348Z</time>
      </trkpt>
      <trkpt lat="42.99033" lon="0.69327">
        <ele>794.951585</ele>
        <time>2021-10-12T17:19:57.835Z</time>
      </trkpt>
      <trkpt lat="42.99061" lon="0.69339">
        <ele>795.62883</ele>
        <time>2021-10-12T17:20:05.877Z</time>
      </trkpt>
      <trkpt lat="42.99088" lon="0.6937">
        <ele>796.461297</ele>
        <time>2021-10-12T17:20:15.008Z</time>
      </trkpt>
      <trkpt lat="42.99093" lon="0.69375">
        <ele>796.604088</ele>
        <time>2021-10-12T17:20:16.792Z</time>
      </trkpt>
      <trkpt lat="42.99101" lon="0.69396">
        <ele>797.006258</ele>
        <time>2021-10-12T17:20:21.297Z</time>
      </trkpt>
      <trkpt lat="42.99106" lon="0.69435">
        <ele>797.113</ele>
        <time>2021-10-12T17:20:27.837Z</time>
      </trkpt>
      <trkpt lat="42.9911" lon="0.69491">
        <ele>796.839677</ele>
        <time>2021-10-12T17:20:38.264Z</time>
      </trkpt>
      <trkpt lat="42.9913" lon="0.69564">
        <ele>796.462493</ele>
        <time>2021-10-12T17:20:51.068Z</time>
      </trkpt>
      <trkpt lat="42.99134" lon="0.69598">
        <ele>796.296486</ele>
        <time>2021-10-12T17:20:55.935Z</time>
      </trkpt>
      <trkpt lat="42.99136" lon="0.69628">
        <ele>796.152298</ele>
        <time>2021-10-12T17:20:59.794Z</time>
      </trkpt>
      <trkpt lat="42.99155" lon="0.69893">
        <ele>788.534459</ele>
        <time>2021-10-12T17:21:30.619Z</time>
      </trkpt>
      <trkpt lat="42.99142" lon="0.69937">
        <ele>784.922052</ele>
        <time>2021-10-12T17:21:35.534Z</time>
      </trkpt>
      <trkpt lat="42.99141" lon="0.69968">
        <ele>782.504907</ele>
        <time>2021-10-12T17:21:38.645Z</time>
      </trkpt>
      <trkpt lat="42.99154" lon="0.70102">
        <ele>772.091923</ele>
        <time>2021-10-12T17:21:51.739Z</time>
      </trkpt>
      <trkpt lat="42.9916" lon="0.7017">
        <ele>766.915404</ele>
        <time>2021-10-12T17:21:58.361Z</time>
      </trkpt>
      <trkpt lat="42.99162" lon="0.70206">
        <ele>764.277967</ele>
        <time>2021-10-12T17:22:01.821Z</time>
      </trkpt>
      <trkpt lat="42.99156" lon="0.70255">
        <ele>760.554458</ele>
        <time>2021-10-12T17:22:06.740Z</time>
      </trkpt>
      <trkpt lat="42.99148" lon="0.70269">
        <ele>759.221079</ele>
        <time>2021-10-12T17:22:08.516Z</time>
      </trkpt>
      <trkpt lat="42.99099" lon="0.70309">
        <ele>753.485767</ele>
        <time>2021-10-12T17:22:16.251Z</time>
      </trkpt>
      <trkpt lat="42.99092" lon="0.70319">
        <ele>752.435713</ele>
        <time>2021-10-12T17:22:17.722Z</time>
      </trkpt>
      <trkpt lat="42.99085" lon="0.70329">
        <ele>751.470377</ele>
        <time>2021-10-12T17:22:19.085Z</time>
      </trkpt>
      <trkpt lat="42.99081" lon="0.70348">
        <ele>750.844798</ele>
        <time>2021-10-12T17:22:21.312Z</time>
      </trkpt>
      <trkpt lat="42.99081" lon="0.70415">
        <ele>749.095338</ele>
        <time>2021-10-12T17:22:29.068Z</time>
      </trkpt>
      <trkpt lat="42.99045" lon="0.70482">
        <ele>746.931124</ele>
        <time>2021-10-12T17:22:39.179Z</time>
      </trkpt>
      <trkpt lat="42.9904" lon="0.70508">
        <ele>746.217298</ele>
        <time>2021-10-12T17:22:42.487Z</time>
      </trkpt>
      <trkpt lat="42.99039" lon="0.70612">
        <ele>743.934929</ele>
        <time>2021-10-12T17:22:56.428Z</time>
      </trkpt>
      <trkpt lat="42.99018" lon="0.70699">
        <ele>742.275534</ele>
        <time>2021-10-12T17:23:08.340Z</time>
      </trkpt>
      <trkpt lat="42.98991" lon="0.70772">
        <ele>740.785657</ele>
        <time>2021-10-12T17:23:18.405Z</time>
      </trkpt>
      <trkpt lat="42.98952" lon="0.70825">
        <ele>737.74081</ele>
        <time>2021-10-12T17:23:26.874Z</time>
      </trkpt>
      <trkpt lat="42.9893" lon="0.70886">
        <ele>734.410609</ele>
        <time>2021-10-12T17:23:34.218Z</time>
      </trkpt>
      <trkpt lat="42.98926" lon="0.70928">
        <ele>732.363864</ele>
        <time>2021-10-12T17:23:38.580Z</time>
      </trkpt>
      <trkpt lat="42.98936" lon="0.7108">
        <ele>723.726908</ele>
        <time>2021-10-12T17:23:54.074Z</time>
      </trkpt>
      <trkpt lat="42.9893" lon="0.71139">
        <ele>719.899148</ele>
        <time>2021-10-12T17:24:00.010Z</time>
      </trkpt>
      <trkpt lat="42.98902" lon="0.7123">
        <ele>713.530111</ele>
        <time>2021-10-12T17:24:10.017Z</time>
      </trkpt>
      <trkpt lat="42.98881" lon="0.71267">
        <ele>710.941979</ele>
        <time>2021-10-12T17:24:14.802Z</time>
      </trkpt>
      <trkpt lat="42.98865" lon="0.71278">
        <ele>709.672769</ele>
        <time>2021-10-12T17:24:17.367Z</time>
      </trkpt>
      <trkpt lat="42.98857" lon="0.71286">
        <ele>708.975036</ele>
        <time>2021-10-12T17:24:18.741Z</time>
      </trkpt>
      <trkpt lat="42.98837" lon="0.71288">
        <ele>707.587031</ele>
        <time>2021-10-12T17:24:21.543Z</time>
      </trkpt>
      <trkpt lat="42.98786" lon="0.71279">
        <ele>703.927989</ele>
        <time>2021-10-12T17:24:28.961Z</time>
      </trkpt>
      <trkpt lat="42.98725" lon="0.71291">
        <ele>699.602265</ele>
        <time>2021-10-12T17:24:37.856Z</time>
      </trkpt>
      <trkpt lat="42.9866" lon="0.71293">
        <ele>695.422873</ele>
        <time>2021-10-12T17:24:47.239Z</time>
      </trkpt>
      <trkpt lat="42.98631" lon="0.71288">
        <ele>693.572448</ele>
        <time>2021-10-12T17:24:51.395Z</time>
      </trkpt>
      <trkpt lat="42.98606" lon="0.71274">
        <ele>691.829769</ele>
        <time>2021-10-12T17:24:55.344Z</time>
      </trkpt>
      <trkpt lat="42.98533" lon="0.71231">
        <ele>687.254336</ele>
        <time>2021-10-12T17:25:06.995Z</time>
      </trkpt>
      <trkpt lat="42.985" lon="0.71209">
        <ele>685.650239</ele>
        <time>2021-10-12T17:25:12.457Z</time>
      </trkpt>
      <trkpt lat="42.98385" lon="0.71056">
        <ele>679.163154</ele>
        <time>2021-10-12T17:25:38.013Z</time>
      </trkpt>
      <trkpt lat="42.98358" lon="0.71056">
        <ele>678.357996</ele>
        <time>2021-10-12T17:25:42.442Z</time>
      </trkpt>
      <trkpt lat="42.98341" lon="0.71046">
        <ele>677.783239</ele>
        <time>2021-10-12T17:25:45.621Z</time>
      </trkpt>
      <trkpt lat="42.98332" lon="0.71016">
        <ele>677.060541</ele>
        <time>2021-10-12T17:25:49.699Z</time>
      </trkpt>
      <trkpt lat="42.98317" lon="0.70922">
        <ele>674.879288</ele>
        <time>2021-10-12T17:26:01.721Z</time>
      </trkpt>
      <trkpt lat="42.9829" lon="0.70886">
        <ele>673.138589</ele>
        <time>2021-10-12T17:26:07.761Z</time>
      </trkpt>
      <trkpt lat="42.98242" lon="0.70844">
        <ele>670.480766</ele>
        <time>2021-10-12T17:26:16.486Z</time>
      </trkpt>
      <trkpt lat="42.98231" lon="0.70827">
        <ele>669.706386</ele>
        <time>2021-10-12T17:26:18.991Z</time>
      </trkpt>
      <trkpt lat="42.98219" lon="0.70764">
        <ele>667.524955</ele>
        <time>2021-10-12T17:26:26.105Z</time>
      </trkpt>
      <trkpt lat="42.98212" lon="0.70683">
        <ele>664.298634</ele>
        <time>2021-10-12T17:26:35.004Z</time>
      </trkpt>
      <trkpt lat="42.98206" lon="0.70667">
        <ele>663.566395</ele>
        <time>2021-10-12T17:26:36.869Z</time>
      </trkpt>
      <trkpt lat="42.98193" lon="0.70652">
        <ele>662.585406</ele>
        <time>2021-10-12T17:26:39.355Z</time>
      </trkpt>
      <trkpt lat="42.98143" lon="0.70641">
        <ele>659.640348</ele>
        <time>2021-10-12T17:26:46.769Z</time>
      </trkpt>
      <trkpt lat="42.98131" lon="0.70628">
        <ele>658.784202</ele>
        <time>2021-10-12T17:26:48.947Z</time>
      </trkpt>
      <trkpt lat="42.98103" lon="0.70536">
        <ele>654.85005</ele>
        <time>2021-10-12T17:26:59.926Z</time>
      </trkpt>
      <trkpt lat="42.98087" lon="0.70437">
        <ele>651.143291</ele>
        <time>2021-10-12T17:27:11.497Z</time>
      </trkpt>
      <trkpt lat="42.9806" lon="0.70346">
        <ele>647.553839</ele>
        <time>2021-10-12T17:27:22.194Z</time>
      </trkpt>
      <trkpt lat="42.98013" lon="0.70219">
        <ele>641.278278</ele>
        <time>2021-10-12T17:27:37.492Z</time>
      </trkpt>
      <trkpt lat="42.98006" lon="0.70213">
        <ele>640.777979</ele>
        <time>2021-10-12T17:27:38.816Z</time>
      </trkpt>
      <trkpt lat="42.97997" lon="0.70212">
        <ele>640.255038</ele>
        <time>2021-10-12T17:27:39.950Z</time>
      </trkpt>
      <trkpt lat="42.97991" lon="0.70217">
        <ele>639.829851</ele>
        <time>2021-10-12T17:27:41.015Z</time>
      </trkpt>
      <trkpt lat="42.97991" lon="0.70222">
        <ele>639.634588</ele>
        <time>2021-10-12T17:27:41.530Z</time>
      </trkpt>
      <trkpt lat="42.97987" lon="0.7024">
        <ele>638.801969</ele>
        <time>2021-10-12T17:27:43.725Z</time>
      </trkpt>
      <trkpt lat="42.97993" lon="0.70255">
        <ele>638.074054</ele>
        <time>2021-10-12T17:27:45.355Z</time>
      </trkpt>
      <trkpt lat="42.98015" lon="0.70277">
        <ele>636.382347</ele>
        <time>2021-10-12T17:27:49.683Z</time>
      </trkpt>
      <trkpt lat="42.9802" lon="0.70292">
        <ele>635.679499</ele>
        <time>2021-10-12T17:27:51.344Z</time>
      </trkpt>
      <trkpt lat="42.98028" lon="0.70402">
        <ele>631.04346</ele>
        <time>2021-10-12T17:28:03.019Z</time>
      </trkpt>
      <trkpt lat="42.98046" lon="0.70461">
        <ele>628.314017</ele>
        <time>2021-10-12T17:28:10.351Z</time>
      </trkpt>
      <trkpt lat="42.98047" lon="0.70528">
        <ele>625.48747</ele>
        <time>2021-10-12T17:28:17.648Z</time>
      </trkpt>
      <trkpt lat="42.98066" lon="0.70623">
        <ele>621.307411</ele>
        <time>2021-10-12T17:28:28.247Z</time>
      </trkpt>
      <trkpt lat="42.98066" lon="0.70693">
        <ele>618.332874</ele>
        <time>2021-10-12T17:28:35.752Z</time>
      </trkpt>
      <trkpt lat="42.98071" lon="0.70717">
        <ele>617.296752</ele>
        <time>2021-10-12T17:28:38.383Z</time>
      </trkpt>
      <trkpt lat="42.9808" lon="0.70734">
        <ele>616.384493</ele>
        <time>2021-10-12T17:28:40.686Z</time>
      </trkpt>
      <trkpt lat="42.98109" lon="0.70747">
        <ele>614.452274</ele>
        <time>2021-10-12T17:28:45.270Z</time>
      </trkpt>
      <trkpt lat="42.98118" lon="0.70754">
        <ele>613.783594</ele>
        <time>2021-10-12T17:28:46.791Z</time>
      </trkpt>
      <trkpt lat="42.98123" lon="0.70766">
        <ele>613.136668</ele>
        <time>2021-10-12T17:28:48.277Z</time>
      </trkpt>
      <trkpt lat="42.98112" lon="0.70831">
        <ele>609.994684</ele>
        <time>2021-10-12T17:28:55.328Z</time>
      </trkpt>
      <trkpt lat="42.98112" lon="0.70874">
        <ele>607.941784</ele>
        <time>2021-10-12T17:28:59.936Z</time>
      </trkpt>
      <trkpt lat="42.98118" lon="0.70895">
        <ele>606.886539</ele>
        <time>2021-10-12T17:29:02.181Z</time>
      </trkpt>
      <trkpt lat="42.9815" lon="0.70946">
        <ele>603.656413</ele>
        <time>2021-10-12T17:29:09.318Z</time>
      </trkpt>
      <trkpt lat="42.98156" lon="0.70963">
        <ele>602.670322</ele>
        <time>2021-10-12T17:29:11.309Z</time>
      </trkpt>
      <trkpt lat="42.98153" lon="0.71049">
        <ele>598.212577</ele>
        <time>2021-10-12T17:29:20.409Z</time>
      </trkpt>
      <trkpt lat="42.98155" lon="0.71076">
        <ele>596.777708</ele>
        <time>2021-10-12T17:29:23.228Z</time>
      </trkpt>
      <trkpt lat="42.98161" lon="0.711">
        <ele>595.469386</ele>
        <time>2021-10-12T17:29:25.909Z</time>
      </trkpt>
      <trkpt lat="42.98176" lon="0.71148">
        <ele>592.70437</ele>
        <time>2021-10-12T17:29:31.367Z</time>
      </trkpt>
      <trkpt lat="42.98194" lon="0.7118">
        <ele>590.492321</ele>
        <time>2021-10-12T17:29:35.548Z</time>
      </trkpt>
      <trkpt lat="42.9822" lon="0.71211">
        <ele>587.719838</ele>
        <time>2021-10-12T17:29:40.331Z</time>
      </trkpt>
      <trkpt lat="42.98236" lon="0.71243">
        <ele>585.466094</ele>
        <time>2021-10-12T17:29:44.178Z</time>
      </trkpt>
      <trkpt lat="42.98241" lon="0.71272">
        <ele>583.710136</ele>
        <time>2021-10-12T17:29:47.292Z</time>
      </trkpt>
      <trkpt lat="42.98233" lon="0.71305">
        <ele>581.632974</ele>
        <time>2021-10-12T17:29:50.961Z</time>
      </trkpt>
      <trkpt lat="42.98215" lon="0.71335">
        <ele>579.368843</ele>
        <time>2021-10-12T17:29:54.855Z</time>
      </trkpt>
      <trkpt lat="42.98168" lon="0.7139">
        <ele>574.66438</ele>
        <time>2021-10-12T17:30:03.464Z</time>
      </trkpt>
      <trkpt lat="42.98159" lon="0.71411">
        <ele>573.476449</ele>
        <time>2021-10-12T17:30:05.839Z</time>
      </trkpt>
      <trkpt lat="42.98158" lon="0.71431">
        <ele>572.445695</ele>
        <time>2021-10-12T17:30:07.911Z</time>
      </trkpt>
      <trkpt lat="42.98158" lon="0.71472">
        <ele>570.343802</ele>
        <time>2021-10-12T17:30:12.167Z</time>
      </trkpt>
      <trkpt lat="42.98173" lon="0.71512">
        <ele>568.017064</ele>
        <time>2021-10-12T17:30:16.954Z</time>
      </trkpt>
      <trkpt lat="42.98186" lon="0.71529">
        <ele>566.745626</ele>
        <time>2021-10-12T17:30:19.622Z</time>
      </trkpt>
      <trkpt lat="42.98231" lon="0.71529">
        <ele>563.886629</ele>
        <time>2021-10-12T17:30:26.339Z</time>
      </trkpt>
      <trkpt lat="42.98244" lon="0.71537">
        <ele>563.399939</ele>
        <time>2021-10-12T17:30:28.471Z</time>
      </trkpt>
      <trkpt lat="42.98253" lon="0.71564">
        <ele>562.613014</ele>
        <time>2021-10-12T17:30:31.968Z</time>
      </trkpt>
      <trkpt lat="42.9826" lon="0.71641">
        <ele>560.630707</ele>
        <time>2021-10-12T17:30:41.030Z</time>
      </trkpt>
      <trkpt lat="42.98255" lon="0.71674">
        <ele>559.77164</ele>
        <time>2021-10-12T17:30:45.097Z</time>
      </trkpt>
      <trkpt lat="42.98226" lon="0.71739">
        <ele>557.830323</ele>
        <time>2021-10-12T17:30:54.499Z</time>
      </trkpt>
      <trkpt lat="42.98221" lon="0.7176">
        <ele>557.433323</ele>
        <time>2021-10-12T17:30:57.287Z</time>
      </trkpt>
      <trkpt lat="42.98222" lon="0.71777">
        <ele>557.126116</ele>
        <time>2021-10-12T17:30:59.461Z</time>
      </trkpt>
      <trkpt lat="42.98229" lon="0.71789">
        <ele>556.839255</ele>
        <time>2021-10-12T17:31:01.547Z</time>
      </trkpt>
      <trkpt lat="42.98243" lon="0.7179">
        <ele>556.504047</ele>
        <time>2021-10-12T17:31:03.964Z</time>
      </trkpt>
      <trkpt lat="42.98296" lon="0.71758">
        <ele>555.087703</ele>
        <time>2021-10-12T17:31:14.226Z</time>
      </trkpt>
      <trkpt lat="42.98315" lon="0.71761">
        <ele>554.599703</ele>
        <time>2021-10-12T17:31:17.625Z</time>
      </trkpt>
      <trkpt lat="42.98332" lon="0.71775">
        <ele>554.122928</ele>
        <time>2021-10-12T17:31:20.912Z</time>
      </trkpt>
      <trkpt lat="42.98336" lon="0.71789">
        <ele>553.854081</ele>
        <time>2021-10-12T17:31:22.707Z</time>
      </trkpt>
      <trkpt lat="42.9833" lon="0.71857">
        <ele>551.845565</ele>
        <time>2021-10-12T17:31:30.797Z</time>
      </trkpt>
      <trkpt lat="42.98306" lon="0.71922">
        <ele>549.343724</ele>
        <time>2021-10-12T17:31:38.972Z</time>
      </trkpt>
      <trkpt lat="42.98299" lon="0.71973">
        <ele>547.54141</ele>
        <time>2021-10-12T17:31:44.690Z</time>
      </trkpt>
      <trkpt lat="42.98277" lon="0.71999">
        <ele>546.143542</ele>
        <time>2021-10-12T17:31:49.037Z</time>
      </trkpt>
      <trkpt lat="42.98266" lon="0.7203">
        <ele>544.959067</ele>
        <time>2021-10-12T17:31:52.700Z</time>
      </trkpt>
      <trkpt lat="42.98304" lon="0.72199">
        <ele>536.975647</ele>
        <time>2021-10-12T17:32:11.559Z</time>
      </trkpt>
      <trkpt lat="42.98309" lon="0.72245">
        <ele>534.895017</ele>
        <time>2021-10-12T17:32:16.498Z</time>
      </trkpt>
      <trkpt lat="42.98307" lon="0.72398">
        <ele>528.296378</ele>
        <time>2021-10-12T17:32:32.877Z</time>
      </trkpt>
      <trkpt lat="42.98301" lon="0.72443">
        <ele>526.305573</ele>
        <time>2021-10-12T17:32:37.908Z</time>
      </trkpt>
      <trkpt lat="42.98326" lon="0.72485">
        <ele>524.012947</ele>
        <time>2021-10-12T17:32:43.683Z</time>
      </trkpt>
      <trkpt lat="42.98322" lon="0.72511">
        <ele>522.929874</ele>
        <time>2021-10-12T17:32:46.479Z</time>
      </trkpt>
      <trkpt lat="42.98307" lon="0.72551">
        <ele>521.151682</ele>
        <time>2021-10-12T17:32:51.340Z</time>
      </trkpt>
      <trkpt lat="42.98324" lon="0.72699">
        <ele>515.255062</ele>
        <time>2021-10-12T17:33:07.617Z</time>
      </trkpt>
      <trkpt lat="42.98343" lon="0.72739">
        <ele>513.415803</ele>
        <time>2021-10-12T17:33:12.964Z</time>
      </trkpt>
      <trkpt lat="42.98368" lon="0.72764">
        <ele>512.09215</ele>
        <time>2021-10-12T17:33:17.741Z</time>
      </trkpt>
      <trkpt lat="42.98395" lon="0.72808">
        <ele>510.288148</ele>
        <time>2021-10-12T17:33:24.094Z</time>
      </trkpt>
      <trkpt lat="42.98425" lon="0.72942">
        <ele>505.883023</ele>
        <time>2021-10-12T17:33:40.057Z</time>
      </trkpt>
      <trkpt lat="42.98427" lon="0.72967">
        <ele>505.455255</ele>
        <time>2021-10-12T17:33:42.953Z</time>
      </trkpt>
      <trkpt lat="42.98438" lon="0.73053">
        <ele>504.047732</ele>
        <time>2021-10-12T17:33:53.840Z</time>
      </trkpt>
      <trkpt lat="42.98444" lon="0.73075">
        <ele>503.661126</ele>
        <time>2021-10-12T17:33:56.952Z</time>
      </trkpt>
      <trkpt lat="42.98456" lon="0.73103">
        <ele>503.147145</ele>
        <time>2021-10-12T17:34:00.934Z</time>
      </trkpt>
      <trkpt lat="42.98472" lon="0.73144">
        <ele>502.398294</ele>
        <time>2021-10-12T17:34:07.075Z</time>
      </trkpt>
      <trkpt lat="42.98485" lon="0.73192">
        <ele>501.815263</ele>
        <time>2021-10-12T17:34:14.474Z</time>
      </trkpt>
      <trkpt lat="42.98472" lon="0.73442">
        <ele>501.08075</ele>
        <time>2021-10-12T17:34:53.788Z</time>
      </trkpt>
      <trkpt lat="42.98486" lon="0.73496">
        <ele>500.903047</ele>
        <time>2021-10-12T17:35:02.365Z</time>
      </trkpt>
      <trkpt lat="42.98538" lon="0.73657">
        <ele>500.382608</ele>
        <time>2021-10-12T17:35:28.876Z</time>
      </trkpt>
      <trkpt lat="42.98544" lon="0.73674">
        <ele>500.363358</ele>
        <time>2021-10-12T17:35:31.719Z</time>
      </trkpt>
      <trkpt lat="42.98547" lon="0.73682">
        <ele>500.353643</ele>
        <time>2021-10-12T17:35:33.192Z</time>
      </trkpt>
      <trkpt lat="42.98579" lon="0.73718">
        <ele>500.295642</ele>
        <time>2021-10-12T17:35:41.973Z</time>
      </trkpt>
      <trkpt lat="42.9859" lon="0.73723">
        <ele>500.279641</ele>
        <time>2021-10-12T17:35:44.436Z</time>
      </trkpt>
      <trkpt lat="42.98618" lon="0.73734">
        <ele>500.239018</ele>
        <time>2021-10-12T17:35:50.675Z</time>
      </trkpt>
      <trkpt lat="42.98641" lon="0.73751">
        <ele>500.201781</ele>
        <time>2021-10-12T17:35:56.464Z</time>
      </trkpt>
      <trkpt lat="42.98657" lon="0.73773">
        <ele>500.170161</ele>
        <time>2021-10-12T17:36:01.443Z</time>
      </trkpt>
      <trkpt lat="42.98662" lon="0.73792">
        <ele>500.149742</ele>
        <time>2021-10-12T17:36:04.708Z</time>
      </trkpt>
      <trkpt lat="42.98666" lon="0.73809">
        <ele>500.184079</ele>
        <time>2021-10-12T17:36:07.706Z</time>
      </trkpt>
      <trkpt lat="42.98699" lon="0.73956">
        <ele>500.877468</ele>
        <time>2021-10-12T17:36:33.931Z</time>
      </trkpt>
      <trkpt lat="42.98707" lon="0.73978">
        <ele>500.992212</ele>
        <time>2021-10-12T17:36:38.577Z</time>
      </trkpt>
      <trkpt lat="42.98753" lon="0.74032">
        <ele>501.717191</ele>
        <time>2021-10-12T17:36:55.500Z</time>
      </trkpt>
      <trkpt lat="42.98759" lon="0.74062">
        <ele>502.286484</ele>
        <time>2021-10-12T17:37:02.106Z</time>
      </trkpt>
      <trkpt lat="42.98754" lon="0.74104">
        <ele>503.078128</ele>
        <time>2021-10-12T17:37:11.531Z</time>
      </trkpt>
      <trkpt lat="42.98745" lon="0.7415">
        <ele>503.965173</ele>
        <time>2021-10-12T17:37:22.575Z</time>
      </trkpt>
      <trkpt lat="42.98737" lon="0.7421">
        <ele>505.104626</ele>
        <time>2021-10-12T17:37:37.816Z</time>
      </trkpt>
      <trkpt lat="42.98721" lon="0.74247">
        <ele>505.975688</ele>
        <time>2021-10-12T17:37:49.175Z</time>
      </trkpt>
      <trkpt lat="42.9867" lon="0.74294">
        <ele>508.929029</ele>
        <time>2021-10-12T17:38:13.477Z</time>
      </trkpt>
      <trkpt lat="42.98654" lon="0.74319">
        <ele>510.107153</ele>
        <time>2021-10-12T17:38:23.782Z</time>
      </trkpt>
      <trkpt lat="42.98649" lon="0.74344">
        <ele>511.01715</ele>
        <time>2021-10-12T17:38:31.783Z</time>
      </trkpt>
      <trkpt lat="42.98652" lon="0.74371">
        <ele>511.994906</ele>
        <time>2021-10-12T17:38:40.365Z</time>
      </trkpt>
      <trkpt lat="42.98666" lon="0.74395">
        <ele>513.060732</ele>
        <time>2021-10-12T17:38:49.969Z</time>
      </trkpt>
      <trkpt lat="42.98691" lon="0.7442">
        <ele>514.594861</ele>
        <time>2021-10-12T17:39:03.935Z</time>
      </trkpt>
      <trkpt lat="42.98703" lon="0.74443">
        <ele>515.929564</ele>
        <time>2021-10-12T17:39:13.296Z</time>
      </trkpt>
      <trkpt lat="42.98709" lon="0.74475">
        <ele>517.484396</ele>
        <time>2021-10-12T17:39:24.783Z</time>
      </trkpt>
      <trkpt lat="42.98708" lon="0.74509">
        <ele>519.103069</ele>
        <time>2021-10-12T17:39:37.049Z</time>
      </trkpt>
      <trkpt lat="42.98698" lon="0.7454">
        <ele>520.682999</ele>
        <time>2021-10-12T17:39:48.897Z</time>
      </trkpt>
      <trkpt lat="42.98693" lon="0.74546">
        <ele>521.128631</ele>
        <time>2021-10-12T17:39:52.574Z</time>
      </trkpt>
      <trkpt lat="42.98677" lon="0.74567">
        <ele>522.573781</ele>
        <time>2021-10-12T17:40:03.373Z</time>
      </trkpt>
      <trkpt lat="42.98606" lon="0.74633">
        <ele>528.156564</ele>
        <time>2021-10-12T17:40:45.797Z</time>
      </trkpt>
      <trkpt lat="42.98552" lon="0.74673">
        <ele>532.240814</ele>
        <time>2021-10-12T17:41:15.798Z</time>
      </trkpt>
      <trkpt lat="42.98405" lon="0.74716">
        <ele>542.01818</ele>
        <time>2021-10-12T17:42:28.762Z</time>
      </trkpt>
      <trkpt lat="42.98234" lon="0.74896">
        <ele>554.620416</ele>
        <time>2021-10-12T17:44:10.165Z</time>
      </trkpt>
      <trkpt lat="42.98188" lon="0.74927">
        <ele>557.310907</ele>
        <time>2021-10-12T17:44:31.424Z</time>
      </trkpt>
      <trkpt lat="42.98133" lon="0.74948">
        <ele>559.447997</ele>
        <time>2021-10-12T17:44:52.918Z</time>
      </trkpt>
      <trkpt lat="42.98075" lon="0.74954">
        <ele>560.650791</ele>
        <time>2021-10-12T17:45:11.773Z</time>
      </trkpt>
      <trkpt lat="42.98031" lon="0.74982">
        <ele>561.640107</ele>
        <time>2021-10-12T17:45:25.331Z</time>
      </trkpt>
      <trkpt lat="42.98014" lon="0.75011">
        <ele>562.206283</ele>
        <time>2021-10-12T17:45:32.541Z</time>
      </trkpt>
      <trkpt lat="42.98012" lon="0.75065">
        <ele>562.762882</ele>
        <time>2021-10-12T17:45:42.310Z</time>
      </trkpt>
      <trkpt lat="42.98033" lon="0.75168">
        <ele>563.380585</ele>
        <time>2021-10-12T17:45:59.687Z</time>
      </trkpt>
      <trkpt lat="42.9803" lon="0.75214">
        <ele>563.644739</ele>
        <time>2021-10-12T17:46:08.052Z</time>
      </trkpt>
      <trkpt lat="42.98014" lon="0.75237">
        <ele>563.830026</ele>
        <time>2021-10-12T17:46:14.017Z</time>
      </trkpt>
      <trkpt lat="42.97987" lon="0.75252">
        <ele>564.16357</ele>
        <time>2021-10-12T17:46:22.319Z</time>
      </trkpt>
      <trkpt lat="42.97918" lon="0.75258">
        <ele>566.439994</ele>
        <time>2021-10-12T17:46:45.103Z</time>
      </trkpt>
      <trkpt lat="42.97912" lon="0.75263">
        <ele>566.648242</ele>
        <time>2021-10-12T17:46:47.404Z</time>
      </trkpt>
      <trkpt lat="42.97904" lon="0.75251">
        <ele>567.034445</ele>
        <time>2021-10-12T17:46:52.079Z</time>
      </trkpt>
      <trkpt lat="42.97887" lon="0.7523">
        <ele>567.78246</ele>
        <time>2021-10-12T17:47:00.161Z</time>
      </trkpt>
      <trkpt lat="42.97876" lon="0.75215">
        <ele>568.292465</ele>
        <time>2021-10-12T17:47:06.945Z</time>
      </trkpt>
      <trkpt lat="42.97861" lon="0.75221">
        <ele>568.819527</ele>
        <time>2021-10-12T17:47:12.730Z</time>
      </trkpt>
      <trkpt lat="42.97845" lon="0.75231">
        <ele>569.39345</ele>
        <time>2021-10-12T17:47:20.452Z</time>
      </trkpt>
      <trkpt lat="42.97826" lon="0.7525">
        <ele>570.243861</ele>
        <time>2021-10-12T17:47:29.231Z</time>
      </trkpt>
      <trkpt lat="42.97812" lon="0.75277">
        <ele>571.330318</ele>
        <time>2021-10-12T17:47:39.579Z</time>
      </trkpt>
      <trkpt lat="42.97792" lon="0.75337">
        <ele>573.494994</ele>
        <time>2021-10-12T17:47:59.954Z</time>
      </trkpt>
      <trkpt lat="42.97791" lon="0.75341">
        <ele>573.623916</ele>
        <time>2021-10-12T17:48:01.613Z</time>
      </trkpt>
      <trkpt lat="42.97775" lon="0.75451">
        <ele>577.26924</ele>
        <time>2021-10-12T17:48:35.058Z</time>
      </trkpt>
      <trkpt lat="42.97763" lon="0.75498">
        <ele>578.945614</ele>
        <time>2021-10-12T17:48:49.374Z</time>
      </trkpt>
      <trkpt lat="42.9774" lon="0.75555">
        <ele>581.237477</ele>
        <time>2021-10-12T17:49:07.995Z</time>
      </trkpt>
      <trkpt lat="42.97741" lon="0.75561">
        <ele>581.472584</ele>
        <time>2021-10-12T17:49:09.671Z</time>
      </trkpt>
      <trkpt lat="42.97722" lon="0.7562">
        <ele>583.707079</ele>
        <time>2021-10-12T17:49:29.458Z</time>
      </trkpt>
      <trkpt lat="42.9772" lon="0.75666">
        <ele>585.31272</ele>
        <time>2021-10-12T17:49:44.498Z</time>
      </trkpt>
      <trkpt lat="42.97736" lon="0.75716">
        <ele>587.223931</ele>
        <time>2021-10-12T17:50:03.787Z</time>
      </trkpt>
      <trkpt lat="42.97736" lon="0.7576">
        <ele>588.782286</ele>
        <time>2021-10-12T17:50:18.345Z</time>
      </trkpt>
      <trkpt lat="42.97734" lon="0.75771">
        <ele>589.194988</ele>
        <time>2021-10-12T17:50:22.845Z</time>
      </trkpt>
      <trkpt lat="42.97729" lon="0.75793">
        <ele>590.010141</ele>
        <time>2021-10-12T17:50:30.179Z</time>
      </trkpt>
      <trkpt lat="42.97712" lon="0.75849">
        <ele>592.183314</ele>
        <time>2021-10-12T17:50:48.490Z</time>
      </trkpt>
      <trkpt lat="42.97708" lon="0.75849">
        <ele>592.354483</ele>
        <time>2021-10-12T17:50:50.905Z</time>
      </trkpt>
      <trkpt lat="42.97703" lon="0.75895">
        <ele>594.012666</ele>
        <time>2021-10-12T17:51:03.968Z</time>
      </trkpt>
      <trkpt lat="42.97685" lon="0.75926">
        <ele>595.313079</ele>
        <time>2021-10-12T17:51:15.651Z</time>
      </trkpt>
      <trkpt lat="42.97683" lon="0.76041">
        <ele>597.220141</ele>
        <time>2021-10-12T17:51:46.007Z</time>
      </trkpt>
      <trkpt lat="42.97688" lon="0.76055">
        <ele>597.481307</ele>
        <time>2021-10-12T17:51:49.515Z</time>
      </trkpt>
      <trkpt lat="42.97699" lon="0.76091">
        <ele>598.136657</ele>
        <time>2021-10-12T17:51:57.618Z</time>
      </trkpt>
      <trkpt lat="42.97706" lon="0.76126">
        <ele>598.739151</ele>
        <time>2021-10-12T17:52:04.813Z</time>
      </trkpt>
      <trkpt lat="42.97705" lon="0.76272">
        <ele>600.577436</ele>
        <time>2021-10-12T17:52:32.214Z</time>
      </trkpt>
      <trkpt lat="42.97705" lon="0.76276">
        <ele>600.625267</ele>
        <time>2021-10-12T17:52:33.040Z</time>
      </trkpt>
      <trkpt lat="42.97731" lon="0.7639">
        <ele>601.986921</ele>
        <time>2021-10-12T17:53:00.562Z</time>
      </trkpt>
      <trkpt lat="42.97742" lon="0.76432">
        <ele>602.929633</ele>
        <time>2021-10-12T17:53:11.487Z</time>
      </trkpt>
      <trkpt lat="42.97747" lon="0.76484">
        <ele>604.205742</ele>
        <time>2021-10-12T17:53:24.822Z</time>
      </trkpt>
      <trkpt lat="42.97736" lon="0.76614">
        <ele>607.392586</ele>
        <time>2021-10-12T17:54:00.865Z</time>
      </trkpt>
      <trkpt lat="42.97751" lon="0.76699">
        <ele>609.183603</ele>
        <time>2021-10-12T17:54:24.011Z</time>
      </trkpt>
      <trkpt lat="42.97748" lon="0.76785">
        <ele>610.763634</ele>
        <time>2021-10-12T17:54:43.940Z</time>
      </trkpt>
      <trkpt lat="42.9776" lon="0.76895">
        <ele>613.095493</ele>
        <time>2021-10-12T17:55:05.891Z</time>
      </trkpt>
      <trkpt lat="42.97763" lon="0.76969">
        <ele>616.503316</ele>
        <time>2021-10-12T17:55:26.334Z</time>
      </trkpt>
      <trkpt lat="42.97777" lon="0.7703">
        <ele>619.462356</ele>
        <time>2021-10-12T17:55:47.790Z</time>
      </trkpt>
      <trkpt lat="42.97782" lon="0.77038">
        <ele>619.932478</ele>
        <time>2021-10-12T17:55:50.470Z</time>
      </trkpt>
      <trkpt lat="42.97776" lon="0.77044">
        <ele>620.374223</ele>
        <time>2021-10-12T17:55:57.413Z</time>
      </trkpt>
      <trkpt lat="42.97771" lon="0.77111">
        <ele>623.50065</ele>
        <time>2021-10-12T17:56:25.625Z</time>
      </trkpt>
      <trkpt lat="42.97756" lon="0.77121">
        <ele>624.90702</ele>
        <time>2021-10-12T17:56:34.680Z</time>
      </trkpt>
      <trkpt lat="42.97748" lon="0.77118">
        <ele>625.812147</ele>
        <time>2021-10-12T17:56:42.557Z</time>
      </trkpt>
      <trkpt lat="42.97739" lon="0.77105">
        <ele>627.190098</ele>
        <time>2021-10-12T17:56:49.666Z</time>
      </trkpt>
      <trkpt lat="42.97729" lon="0.77063">
        <ele>630.705293</ele>
        <time>2021-10-12T17:57:12.442Z</time>
      </trkpt>
      <trkpt lat="42.97722" lon="0.77036">
        <ele>632.897063</ele>
        <time>2021-10-12T17:57:27.100Z</time>
      </trkpt>
      <trkpt lat="42.97679" lon="0.76856">
        <ele>645.992652</ele>
        <time>2021-10-12T17:59:00.920Z</time>
      </trkpt>
      <trkpt lat="42.9766" lon="0.76739">
        <ele>651.688234</ele>
        <time>2021-10-12T17:59:39.536Z</time>
      </trkpt>
      <trkpt lat="42.97632" lon="0.76671">
        <ele>655.400816</ele>
        <time>2021-10-12T18:00:02.630Z</time>
      </trkpt>
      <trkpt lat="42.97613" lon="0.76643">
        <ele>657.026344</ele>
        <time>2021-10-12T18:00:13.447Z</time>
      </trkpt>
      <trkpt lat="42.97585" lon="0.76617">
        <ele>659.00423</ele>
        <time>2021-10-12T18:00:27.215Z</time>
      </trkpt>
      <trkpt lat="42.97528" lon="0.76595">
        <ele>662.521808</ele>
        <time>2021-10-12T18:00:54.355Z</time>
      </trkpt>
      <trkpt lat="42.97487" lon="0.7659">
        <ele>664.974549</ele>
        <time>2021-10-12T18:01:15.754Z</time>
      </trkpt>
      <trkpt lat="42.97436" lon="0.76597">
        <ele>669.905662</ele>
        <time>2021-10-12T18:01:45.212Z</time>
      </trkpt>
      <trkpt lat="42.9731" lon="0.76633">
        <ele>683.736503</ele>
        <time>2021-10-12T18:03:12.540Z</time>
      </trkpt>
      <trkpt lat="42.97129" lon="0.76707">
        <ele>709.626281</ele>
        <time>2021-10-12T18:05:41.511Z</time>
      </trkpt>
      <trkpt lat="42.97114" lon="0.7671">
        <ele>712.022401</ele>
        <time>2021-10-12T18:05:56.120Z</time>
      </trkpt>
      <trkpt lat="42.96953" lon="0.76735">
        <ele>736.600647</ele>
        <time>2021-10-12T18:08:13.921Z</time>
      </trkpt>
      <trkpt lat="42.96817" lon="0.76729">
        <ele>756.258986</ele>
        <time>2021-10-12T18:10:03.522Z</time>
      </trkpt>
      <trkpt lat="42.9678" lon="0.76742">
        <ele>761.782564</ele>
        <time>2021-10-12T18:10:34.496Z</time>
      </trkpt>
      <trkpt lat="42.96745" lon="0.7677">
        <ele>767.242989</ele>
        <time>2021-10-12T18:11:07.402Z</time>
      </trkpt>
      <trkpt lat="42.96735" lon="0.76772">
        <ele>768.574896</ele>
        <time>2021-10-12T18:11:15.667Z</time>
      </trkpt>
      <trkpt lat="42.96728" lon="0.76763">
        <ele>769.846543</ele>
        <time>2021-10-12T18:11:23.418Z</time>
      </trkpt>
      <trkpt lat="42.96727" lon="0.76749">
        <ele>771.205562</ele>
        <time>2021-10-12T18:11:31.538Z</time>
      </trkpt>
      <trkpt lat="42.9672" lon="0.76734">
        <ele>772.890183</ele>
        <time>2021-10-12T18:11:41.792Z</time>
      </trkpt>
      <trkpt lat="42.9668" lon="0.76674">
        <ele>780.633532</ele>
        <time>2021-10-12T18:12:26.679Z</time>
      </trkpt>
      <trkpt lat="42.96662" lon="0.76596">
        <ele>787.947049</ele>
        <time>2021-10-12T18:13:09.192Z</time>
      </trkpt>
      <trkpt lat="42.96641" lon="0.76547">
        <ele>791.790577</ele>
        <time>2021-10-12T18:13:36.523Z</time>
      </trkpt>
      <trkpt lat="42.9665" lon="0.76405">
        <ele>801.333304</ele>
        <time>2021-10-12T18:14:34.856Z</time>
      </trkpt>
      <trkpt lat="42.96679" lon="0.76211">
        <ele>815.072067</ele>
        <time>2021-10-12T18:15:54.835Z</time>
      </trkpt>
      <trkpt lat="42.96676" lon="0.76166">
        <ele>818.211432</ele>
        <time>2021-10-12T18:16:17.024Z</time>
      </trkpt>
      <trkpt lat="42.96662" lon="0.76144">
        <ele>820.222083</ele>
        <time>2021-10-12T18:16:32.301Z</time>
      </trkpt>
      <trkpt lat="42.96636" lon="0.76125">
        <ele>824.614685</ele>
        <time>2021-10-12T18:16:54.907Z</time>
      </trkpt>
      <trkpt lat="42.96494" lon="0.76081">
        <ele>846.565087</ele>
        <time>2021-10-12T18:19:02.953Z</time>
      </trkpt>
      <trkpt lat="42.96344" lon="0.76019">
        <ele>868.845841</ele>
        <time>2021-10-12T18:21:13.446Z</time>
      </trkpt>
      <trkpt lat="42.96305" lon="0.76014">
        <ele>873.890895</ele>
        <time>2021-10-12T18:21:40.340Z</time>
      </trkpt>
      <trkpt lat="42.96281" lon="0.76004">
        <ele>876.330583</ele>
        <time>2021-10-12T18:21:56.643Z</time>
      </trkpt>
      <trkpt lat="42.96267" lon="0.75987">
        <ele>878.158978</ele>
        <time>2021-10-12T18:22:08.276Z</time>
      </trkpt>
      <trkpt lat="42.96262" lon="0.75973">
        <ele>879.277041</ele>
        <time>2021-10-12T18:22:15.015Z</time>
      </trkpt>
      <trkpt lat="42.96263" lon="0.75957">
        <ele>880.420874</ele>
        <time>2021-10-12T18:22:21.813Z</time>
      </trkpt>
      <trkpt lat="42.96274" lon="0.75945">
        <ele>881.766668</ele>
        <time>2021-10-12T18:22:29.478Z</time>
      </trkpt>
      <trkpt lat="42.96308" lon="0.75928">
        <ele>885.234328</ele>
        <time>2021-10-12T18:22:47.823Z</time>
      </trkpt>
      <trkpt lat="42.96351" lon="0.75876">
        <ele>890.805283</ele>
        <time>2021-10-12T18:23:26.007Z</time>
      </trkpt>
      <trkpt lat="42.96375" lon="0.75858">
        <ele>893.546881</ele>
        <time>2021-10-12T18:23:40.764Z</time>
      </trkpt>
      <trkpt lat="42.96398" lon="0.75811">
        <ele>897.725436</ele>
        <time>2021-10-12T18:24:09.622Z</time>
      </trkpt>
      <trkpt lat="42.96422" lon="0.75783">
        <ele>900.870115</ele>
        <time>2021-10-12T18:24:26.892Z</time>
      </trkpt>
      <trkpt lat="42.96422" lon="0.75778">
        <ele>901.200461</ele>
        <time>2021-10-12T18:24:30.742Z</time>
      </trkpt>
      <trkpt lat="42.96422" lon="0.75768">
        <ele>901.933488</ele>
        <time>2021-10-12T18:24:37.637Z</time>
      </trkpt>
      <trkpt lat="42.96417" lon="0.75758">
        <ele>902.879625</ele>
        <time>2021-10-12T18:24:41.985Z</time>
      </trkpt>
      <trkpt lat="42.96384" lon="0.7573">
        <ele>906.717667</ele>
        <time>2021-10-12T18:25:05.472Z</time>
      </trkpt>
      <trkpt lat="42.96345" lon="0.75612">
        <ele>914.228134</ele>
        <time>2021-10-12T18:26:05.381Z</time>
      </trkpt>
      <trkpt lat="42.96338" lon="0.75568">
        <ele>916.691823</ele>
        <time>2021-10-12T18:26:20.920Z</time>
      </trkpt>
      <trkpt lat="42.96342" lon="0.7554">
        <ele>918.253399</ele>
        <time>2021-10-12T18:26:30.232Z</time>
      </trkpt>
      <trkpt lat="42.96381" lon="0.7549">
        <ele>922.194246</ele>
        <time>2021-10-12T18:26:54.178Z</time>
      </trkpt>
      <trkpt lat="42.96416" lon="0.75419">
        <ele>925.642747</ele>
        <time>2021-10-12T18:27:23.022Z</time>
      </trkpt>
      <trkpt lat="42.96478" lon="0.75247">
        <ele>933.035616</ele>
        <time>2021-10-12T18:28:26.630Z</time>
      </trkpt>
      <trkpt lat="42.96505" lon="0.75197">
        <ele>934.978715</ele>
        <time>2021-10-12T18:28:45.481Z</time>
      </trkpt>
      <trkpt lat="42.96534" lon="0.75163">
        <ele>936.604568</ele>
        <time>2021-10-12T18:28:59.751Z</time>
      </trkpt>
      <trkpt lat="42.96546" lon="0.75086">
        <ele>939.09825</ele>
        <time>2021-10-12T18:29:20.964Z</time>
      </trkpt>
      <trkpt lat="42.96543" lon="0.75038">
        <ele>940.851851</ele>
        <time>2021-10-12T18:29:35.231Z</time>
      </trkpt>
      <trkpt lat="42.96519" lon="0.74963">
        <ele>944.052565</ele>
        <time>2021-10-12T18:30:00.248Z</time>
      </trkpt>
      <trkpt lat="42.96505" lon="0.74955">
        <ele>944.864375</ele>
        <time>2021-10-12T18:30:08.353Z</time>
      </trkpt>
      <trkpt lat="42.96492" lon="0.74975">
        <ele>945.890151</ele>
        <time>2021-10-12T18:30:16.119Z</time>
      </trkpt>
      <trkpt lat="42.9649" lon="0.74981">
        <ele>946.135682</ele>
        <time>2021-10-12T18:30:17.354Z</time>
      </trkpt>
      <trkpt lat="42.96496" lon="0.75">
        <ele>946.947831</ele>
        <time>2021-10-12T18:30:28.913Z</time>
      </trkpt>
      <trkpt lat="42.96502" lon="0.75034">
        <ele>948.330438</ele>
        <time>2021-10-12T18:30:43.523Z</time>
      </trkpt>
      <trkpt lat="42.96497" lon="0.75086">
        <ele>950.618196</ele>
        <time>2021-10-12T18:31:08.224Z</time>
      </trkpt>
      <trkpt lat="42.96481" lon="0.75133">
        <ele>953.016996</ele>
        <time>2021-10-12T18:31:32.934Z</time>
      </trkpt>
      <trkpt lat="42.96417" lon="0.75194">
        <ele>957.97699</ele>
        <time>2021-10-12T18:32:23.189Z</time>
      </trkpt>
      <trkpt lat="42.9639" lon="0.75241">
        <ele>960.696418</ele>
        <time>2021-10-12T18:32:48.445Z</time>
      </trkpt>
      <trkpt lat="42.96365" lon="0.75314">
        <ele>963.927799</ele>
        <time>2021-10-12T18:33:22.673Z</time>
      </trkpt>
      <trkpt lat="42.96327" lon="0.75384">
        <ele>967.427827</ele>
        <time>2021-10-12T18:34:00.573Z</time>
      </trkpt>
      <trkpt lat="42.96245" lon="0.75469">
        <ele>972.419803</ele>
        <time>2021-10-12T18:35:01.587Z</time>
      </trkpt>
      <trkpt lat="42.96216" lon="0.75515">
        <ele>974.267658</ele>
        <time>2021-10-12T18:35:27.174Z</time>
      </trkpt>
      <trkpt lat="42.96215" lon="0.75525">
        <ele>974.57427</ele>
        <time>2021-10-12T18:35:31.250Z</time>
      </trkpt>
      <trkpt lat="42.96252" lon="0.75656">
        <ele>978.253423</ele>
        <time>2021-10-12T18:36:21.803Z</time>
      </trkpt>
      <trkpt lat="42.96257" lon="0.75698">
        <ele>978.724946</ele>
        <time>2021-10-12T18:36:34.495Z</time>
      </trkpt>
      <trkpt lat="42.96251" lon="0.75732">
        <ele>979.104197</ele>
        <time>2021-10-12T18:36:44.242Z</time>
      </trkpt>
      <trkpt lat="42.96226" lon="0.75772">
        <ele>979.689477</ele>
        <time>2021-10-12T18:36:59.723Z</time>
      </trkpt>
      <trkpt lat="42.96148" lon="0.75818">
        <ele>981.233065</ele>
        <time>2021-10-12T18:37:36.595Z</time>
      </trkpt>
      <trkpt lat="42.96126" lon="0.75843">
        <ele>981.982251</ele>
        <time>2021-10-12T18:37:49.838Z</time>
      </trkpt>
      <trkpt lat="42.96096" lon="0.75895">
        <ele>983.260177</ele>
        <time>2021-10-12T18:38:13.069Z</time>
      </trkpt>
      <trkpt lat="42.96036" lon="0.75955">
        <ele>985.202545</ele>
        <time>2021-10-12T18:38:50.721Z</time>
      </trkpt>
      <trkpt lat="42.96023" lon="0.75979">
        <ele>985.429638</ele>
        <time>2021-10-12T18:39:01.778Z</time>
      </trkpt>
      <trkpt lat="42.96026" lon="0.7599">
        <ele>985.483081</ele>
        <time>2021-10-12T18:39:06.126Z</time>
      </trkpt>
      <trkpt lat="42.96085" lon="0.76059">
        <ele>985.954064</ele>
        <time>2021-10-12T18:39:40.307Z</time>
      </trkpt>
      <trkpt lat="42.96121" lon="0.76083">
        <ele>986.197871</ele>
        <time>2021-10-12T18:39:54.710Z</time>
      </trkpt>
      <trkpt lat="42.96221" lon="0.7618">
        <ele>983.760986</ele>
        <time>2021-10-12T18:40:31.490Z</time>
      </trkpt>
      <trkpt lat="42.9629" lon="0.76232">
        <ele>981.318175</ele>
        <time>2021-10-12T18:40:53.765Z</time>
      </trkpt>
      <trkpt lat="42.96363" lon="0.76257">
        <ele>981.491075</ele>
        <time>2021-10-12T18:41:16.864Z</time>
      </trkpt>
      <trkpt lat="42.96388" lon="0.76275">
        <ele>981.787765</ele>
        <time>2021-10-12T18:41:27.036Z</time>
      </trkpt>
      <trkpt lat="42.96428" lon="0.76319">
        <ele>982.328572</ele>
        <time>2021-10-12T18:41:49.398Z</time>
      </trkpt>
      <trkpt lat="42.96433" lon="0.76333">
        <ele>982.450561</ele>
        <time>2021-10-12T18:41:55.164Z</time>
      </trkpt>
      <trkpt lat="42.96432" lon="0.7635">
        <ele>982.587667</ele>
        <time>2021-10-12T18:42:01.830Z</time>
      </trkpt>
      <trkpt lat="42.9637" lon="0.76551">
        <ele>994.709886</ele>
        <time>2021-10-12T18:43:54.163Z</time>
      </trkpt>
      <trkpt lat="42.96365" lon="0.76609">
        <ele>998.249728</ele>
        <time>2021-10-12T18:44:28.588Z</time>
      </trkpt>
      <trkpt lat="42.9637" lon="0.76664">
        <ele>1001.267229</ele>
        <time>2021-10-12T18:44:59.520Z</time>
      </trkpt>
      <trkpt lat="42.96365" lon="0.76714">
        <ele>1004.017336</ele>
        <time>2021-10-12T18:45:26.627Z</time>
      </trkpt>
      <trkpt lat="42.96297" lon="0.76889">
        <ele>1012.358841</ele>
        <time>2021-10-12T18:46:54.593Z</time>
      </trkpt>
      <trkpt lat="42.96292" lon="0.76945">
        <ele>1013.337204</ele>
        <time>2021-10-12T18:47:11.501Z</time>
      </trkpt>
      <trkpt lat="42.96313" lon="0.77037">
        <ele>1015.008594</ele>
        <time>2021-10-12T18:47:37.407Z</time>
      </trkpt>
      <trkpt lat="42.96303" lon="0.77151">
        <ele>1017.972592</ele>
        <time>2021-10-12T18:48:16.324Z</time>
      </trkpt>
      <trkpt lat="42.9628" lon="0.77197">
        <ele>1019.506937</ele>
        <time>2021-10-12T18:48:36.644Z</time>
      </trkpt>
      <trkpt lat="42.96285" lon="0.77224">
        <ele>1020.288129</ele>
        <time>2021-10-12T18:48:45.950Z</time>
      </trkpt>
      <trkpt lat="42.96286" lon="0.77233">
        <ele>1020.535134</ele>
        <time>2021-10-12T18:48:49.872Z</time>
      </trkpt>
      <trkpt lat="42.96284" lon="0.77245">
        <ele>1020.88897</ele>
        <time>2021-10-12T18:48:56.258Z</time>
      </trkpt>
      <trkpt lat="42.96257" lon="0.77352">
        <ele>1026.517024</ele>
        <time>2021-10-12T18:49:48.374Z</time>
      </trkpt>
      <trkpt lat="42.96252" lon="0.77495">
        <ele>1036.364118</ele>
        <time>2021-10-12T18:51:10.456Z</time>
      </trkpt>
      <trkpt lat="42.96244" lon="0.77517">
        <ele>1038.045378</ele>
        <time>2021-10-12T18:51:24.799Z</time>
      </trkpt>
      <trkpt lat="42.96218" lon="0.77547">
        <ele>1041.774907</ele>
        <time>2021-10-12T18:51:52.970Z</time>
      </trkpt>
      <trkpt lat="42.96194" lon="0.77587">
        <ele>1046.20082</ele>
        <time>2021-10-12T18:52:24.839Z</time>
      </trkpt>
      <trkpt lat="42.96141" lon="0.77622">
        <ele>1053.175278</ele>
        <time>2021-10-12T18:53:15.598Z</time>
      </trkpt>
      <trkpt lat="42.9613" lon="0.77635">
        <ele>1054.84415</ele>
        <time>2021-10-12T18:53:27.814Z</time>
      </trkpt>
      <trkpt lat="42.96112" lon="0.77699">
        <ele>1060.770333</ele>
        <time>2021-10-12T18:54:10.920Z</time>
      </trkpt>
      <trkpt lat="42.9611" lon="0.77748">
        <ele>1064.752177</ele>
        <time>2021-10-12T18:54:41.332Z</time>
      </trkpt>
      <trkpt lat="42.96102" lon="0.77778">
        <ele>1067.302016</ele>
        <time>2021-10-12T18:55:00.646Z</time>
      </trkpt>
      <trkpt lat="42.96063" lon="0.77872">
        <ele>1076.024483</ele>
        <time>2021-10-12T18:56:05.493Z</time>
      </trkpt>
      <trkpt lat="42.9601" lon="0.77971">
        <ele>1084.122935</ele>
        <time>2021-10-12T18:57:14.137Z</time>
      </trkpt>
      <trkpt lat="42.95969" lon="0.78005">
        <ele>1087.74071</ele>
        <time>2021-10-12T18:57:48.704Z</time>
      </trkpt>
      <trkpt lat="42.95954" lon="0.78026">
        <ele>1089.350942</ele>
        <time>2021-10-12T18:58:03.781Z</time>
      </trkpt>
      <trkpt lat="42.95796" lon="0.78326">
        <ele>1100.7127</ele>
        <time>2021-10-12T19:00:29.915Z</time>
      </trkpt>
      <trkpt lat="42.95777" lon="0.78351">
        <ele>1100.425321</ele>
        <time>2021-10-12T19:00:39.165Z</time>
      </trkpt>
      <trkpt lat="42.95766" lon="0.78363">
        <ele>1100.267319</ele>
        <time>2021-10-12T19:00:43.468Z</time>
      </trkpt>
      <trkpt lat="42.95742" lon="0.78378">
        <ele>1099.981188</ele>
        <time>2021-10-12T19:00:52.106Z</time>
      </trkpt>
      <trkpt lat="42.95704" lon="0.78391">
        <ele>1099.557699</ele>
        <time>2021-10-12T19:01:03.817Z</time>
      </trkpt>
      <trkpt lat="42.95667" lon="0.78377">
        <ele>1099.142458</ele>
        <time>2021-10-12T19:01:14.829Z</time>
      </trkpt>
      <trkpt lat="42.9561" lon="0.78367">
        <ele>1098.080527</ele>
        <time>2021-10-12T19:01:31.049Z</time>
      </trkpt>
      <trkpt lat="42.95585" lon="0.78351">
        <ele>1097.535615</ele>
        <time>2021-10-12T19:01:39.953Z</time>
      </trkpt>
      <trkpt lat="42.95486" lon="0.78255">
        <ele>1096.002754</ele>
        <time>2021-10-12T19:02:20.714Z</time>
      </trkpt>
      <trkpt lat="42.95458" lon="0.78234">
        <ele>1096.520006</ele>
        <time>2021-10-12T19:02:33.033Z</time>
      </trkpt>
      <trkpt lat="42.95356" lon="0.78179">
        <ele>1098.281103</ele>
        <time>2021-10-12T19:03:22.673Z</time>
      </trkpt>
      <trkpt lat="42.95312" lon="0.78149">
        <ele>1099.989491</ele>
        <time>2021-10-12T19:03:49.006Z</time>
      </trkpt>
      <trkpt lat="42.95278" lon="0.78147">
        <ele>1101.443276</ele>
        <time>2021-10-12T19:04:07.408Z</time>
      </trkpt>
      <trkpt lat="42.95241" lon="0.78176">
        <ele>1103.276434</ele>
        <time>2021-10-12T19:04:31.022Z</time>
      </trkpt>
      <trkpt lat="42.95232" lon="0.78173">
        <ele>1103.6922</ele>
        <time>2021-10-12T19:04:36.485Z</time>
      </trkpt>
      <trkpt lat="42.95186" lon="0.78136">
        <ele>1106.035744</ele>
        <time>2021-10-12T19:05:07.491Z</time>
      </trkpt>
      <trkpt lat="42.95168" lon="0.78132">
        <ele>1106.501906</ele>
        <time>2021-10-12T19:05:17.221Z</time>
      </trkpt>
      <trkpt lat="42.95133" lon="0.78147">
        <ele>1107.114165</ele>
        <time>2021-10-12T19:05:37.083Z</time>
      </trkpt>
      <trkpt lat="42.9511" lon="0.78199">
        <ele>1107.84248</ele>
        <time>2021-10-12T19:05:57.992Z</time>
      </trkpt>
      <trkpt lat="42.95085" lon="0.78218">
        <ele>1108.305305</ele>
        <time>2021-10-12T19:06:09.721Z</time>
      </trkpt>
      <trkpt lat="42.9507" lon="0.78236">
        <ele>1108.634919</ele>
        <time>2021-10-12T19:06:17.297Z</time>
      </trkpt>
      <trkpt lat="42.95058" lon="0.78262">
        <ele>1109.007587</ele>
        <time>2021-10-12T19:06:25.182Z</time>
      </trkpt>
      <trkpt lat="42.95031" lon="0.78288">
        <ele>1108.872272</ele>
        <time>2021-10-12T19:06:35.877Z</time>
      </trkpt>
      <trkpt lat="42.94926" lon="0.78327">
        <ele>1106.188967</ele>
        <time>2021-10-12T19:07:09.226Z</time>
      </trkpt>
      <trkpt lat="42.94892" lon="0.7835">
        <ele>1105.262356</ele>
        <time>2021-10-12T19:07:20.212Z</time>
      </trkpt>
      <trkpt lat="42.94866" lon="0.78353">
        <ele>1104.849957</ele>
        <time>2021-10-12T19:07:27.894Z</time>
      </trkpt>
      <trkpt lat="42.9484" lon="0.78375">
        <ele>1104.782946</ele>
        <time>2021-10-12T19:07:37.092Z</time>
      </trkpt>
      <trkpt lat="42.94828" lon="0.78394">
        <ele>1104.742777</ele>
        <time>2021-10-12T19:07:42.703Z</time>
      </trkpt>
      <trkpt lat="42.94785" lon="0.78423">
        <ele>1104.637293</ele>
        <time>2021-10-12T19:07:59.064Z</time>
      </trkpt>
      <trkpt lat="42.94754" lon="0.78426">
        <ele>1104.569038</ele>
        <time>2021-10-12T19:08:11.400Z</time>
      </trkpt>
      <trkpt lat="42.94694" lon="0.78451">
        <ele>1105.735386</ele>
        <time>2021-10-12T19:08:40.779Z</time>
      </trkpt>
      <trkpt lat="42.94659" lon="0.78431">
        <ele>1108.144986</ele>
        <time>2021-10-12T19:09:01.903Z</time>
      </trkpt>
      <trkpt lat="42.94574" lon="0.78275">
        <ele>1116.837747</ele>
        <time>2021-10-12T19:10:41.314Z</time>
      </trkpt>
      <trkpt lat="42.9455" lon="0.78208">
        <ele>1119.474262</ele>
        <time>2021-10-12T19:11:14.580Z</time>
      </trkpt>
      <trkpt lat="42.94525" lon="0.78169">
        <ele>1121.334551</ele>
        <time>2021-10-12T19:11:35.542Z</time>
      </trkpt>
      <trkpt lat="42.94514" lon="0.78166">
        <ele>1121.868258</ele>
        <time>2021-10-12T19:11:42.665Z</time>
      </trkpt>
      <trkpt lat="42.94508" lon="0.78165">
        <ele>1122.179034</ele>
        <time>2021-10-12T19:11:44.584Z</time>
      </trkpt>
      <trkpt lat="42.94461" lon="0.78177">
        <ele>1124.494041</ele>
        <time>2021-10-12T19:12:08.006Z</time>
      </trkpt>
      <trkpt lat="42.94451" lon="0.78179">
        <ele>1124.679543</ele>
        <time>2021-10-12T19:12:13.460Z</time>
      </trkpt>
      <trkpt lat="42.94437" lon="0.78185">
        <ele>1124.84031</ele>
        <time>2021-10-12T19:12:18.784Z</time>
      </trkpt>
      <trkpt lat="42.94416" lon="0.78207">
        <ele>1125.14181</ele>
        <time>2021-10-12T19:12:31.258Z</time>
      </trkpt>
      <trkpt lat="42.94396" lon="0.78254">
        <ele>1125.605628</ele>
        <time>2021-10-12T19:12:46.896Z</time>
      </trkpt>
      <trkpt lat="42.94387" lon="0.78259">
        <ele>1125.716822</ele>
        <time>2021-10-12T19:12:49.811Z</time>
      </trkpt>
      <trkpt lat="42.94255" lon="0.78232">
        <ele>1128.198841</ele>
        <time>2021-10-12T19:13:44.334Z</time>
      </trkpt>
      <trkpt lat="42.94241" lon="0.7824">
        <ele>1128.632716</ele>
        <time>2021-10-12T19:13:51.753Z</time>
      </trkpt>
      <trkpt lat="42.94204" lon="0.78287">
        <ele>1130.110219</ele>
        <time>2021-10-12T19:14:18.143Z</time>
      </trkpt>
      <trkpt lat="42.94161" lon="0.78404">
        <ele>1133.079786</ele>
        <time>2021-10-12T19:15:09.094Z</time>
      </trkpt>
      <trkpt lat="42.94138" lon="0.78414">
        <ele>1133.894929</ele>
        <time>2021-10-12T19:15:22.196Z</time>
      </trkpt>
      <trkpt lat="42.94047" lon="0.78502">
        <ele>1137.624074</ele>
        <time>2021-10-12T19:16:17.993Z</time>
      </trkpt>
      <trkpt lat="42.93978" lon="0.78541">
        <ele>1139.162028</ele>
        <time>2021-10-12T19:16:52.325Z</time>
      </trkpt>
      <trkpt lat="42.93936" lon="0.78595">
        <ele>1140.254155</ele>
        <time>2021-10-12T19:17:17.463Z</time>
      </trkpt>
      <trkpt lat="42.93869" lon="0.78634">
        <ele>1141.057718</ele>
        <time>2021-10-12T19:17:48.415Z</time>
      </trkpt>
      <trkpt lat="42.93832" lon="0.78674">
        <ele>1140.176561</ele>
        <time>2021-10-12T19:18:08.999Z</time>
      </trkpt>
      <trkpt lat="42.93775" lon="0.78712">
        <ele>1138.974833</ele>
        <time>2021-10-12T19:18:28.801Z</time>
      </trkpt>
      <trkpt lat="42.93746" lon="0.78754">
        <ele>1138.179173</ele>
        <time>2021-10-12T19:18:41.145Z</time>
      </trkpt>
      <trkpt lat="42.93724" lon="0.78797">
        <ele>1136.277828</ele>
        <time>2021-10-12T19:18:51.057Z</time>
      </trkpt>
      <trkpt lat="42.93706" lon="0.78829">
        <ele>1134.405838</ele>
        <time>2021-10-12T19:18:58.582Z</time>
      </trkpt>
      <trkpt lat="42.93696" lon="0.78846">
        <ele>1133.395863</ele>
        <time>2021-10-12T19:19:03.262Z</time>
      </trkpt>
      <trkpt lat="42.93678" lon="0.78858">
        <ele>1132.164576</ele>
        <time>2021-10-12T19:19:08.085Z</time>
      </trkpt>
      <trkpt lat="42.93649" lon="0.78846">
        <ele>1130.211136</ele>
        <time>2021-10-12T19:19:16.265Z</time>
      </trkpt>
      <trkpt lat="42.93624" lon="0.78847">
        <ele>1128.660855</ele>
        <time>2021-10-12T19:19:22.944Z</time>
      </trkpt>
      <trkpt lat="42.93607" lon="0.78847">
        <ele>1127.577499</ele>
        <time>2021-10-12T19:19:27.099Z</time>
      </trkpt>
      <trkpt lat="42.93583" lon="0.7884">
        <ele>1126.585722</ele>
        <time>2021-10-12T19:19:33.522Z</time>
      </trkpt>
      <trkpt lat="42.93562" lon="0.78819">
        <ele>1126.43738</ele>
        <time>2021-10-12T19:19:40.437Z</time>
      </trkpt>
      <trkpt lat="42.93506" lon="0.78635">
        <ele>1125.713274</ele>
        <time>2021-10-12T19:20:36.219Z</time>
      </trkpt>
      <trkpt lat="42.93492" lon="0.78612">
        <ele>1127.643979</ele>
        <time>2021-10-12T19:20:49.853Z</time>
      </trkpt>
      <trkpt lat="42.93462" lon="0.78601">
        <ele>1130.364242</ele>
        <time>2021-10-12T19:21:10.114Z</time>
      </trkpt>
      <trkpt lat="42.93459" lon="0.78588">
        <ele>1131.229747</ele>
        <time>2021-10-12T19:21:16.911Z</time>
      </trkpt>
      <trkpt lat="42.93453" lon="0.78348">
        <ele>1148.217453</ele>
        <time>2021-10-12T19:23:40.365Z</time>
      </trkpt>
      <trkpt lat="42.9346" lon="0.78276">
        <ele>1154.275206</ele>
        <time>2021-10-12T19:24:26.219Z</time>
      </trkpt>
      <trkpt lat="42.93456" lon="0.78151">
        <ele>1164.295139</ele>
        <time>2021-10-12T19:25:42.059Z</time>
      </trkpt>
      <trkpt lat="42.93459" lon="0.78089">
        <ele>1168.560341</ele>
        <time>2021-10-12T19:26:17.290Z</time>
      </trkpt>
      <trkpt lat="42.93456" lon="0.78023">
        <ele>1173.154037</ele>
        <time>2021-10-12T19:26:52.987Z</time>
      </trkpt>
      <trkpt lat="42.93461" lon="0.77973">
        <ele>1176.72042</ele>
        <time>2021-10-12T19:27:19.904Z</time>
      </trkpt>
      <trkpt lat="42.93451" lon="0.77827">
        <ele>1184.885264</ele>
        <time>2021-10-12T19:28:33.511Z</time>
      </trkpt>
      <trkpt lat="42.93439" lon="0.77776">
        <ele>1187.699498</ele>
        <time>2021-10-12T19:28:58.828Z</time>
      </trkpt>
      <trkpt lat="42.93422" lon="0.77721">
        <ele>1190.776446</ele>
        <time>2021-10-12T19:29:25.646Z</time>
      </trkpt>
      <trkpt lat="42.93376" lon="0.7758">
        <ele>1198.120748</ele>
        <time>2021-10-12T19:30:34.532Z</time>
      </trkpt>
      <trkpt lat="42.93371" lon="0.77558">
        <ele>1199.23279</ele>
        <time>2021-10-12T19:30:45.346Z</time>
      </trkpt>
      <trkpt lat="42.93367" lon="0.7749">
        <ele>1202.407261</ele>
        <time>2021-10-12T19:31:16.387Z</time>
      </trkpt>
      <trkpt lat="42.93358" lon="0.77472">
        <ele>1203.537019</ele>
        <time>2021-10-12T19:31:26.987Z</time>
      </trkpt>
      <trkpt lat="42.93339" lon="0.77455">
        <ele>1205.798802</ele>
        <time>2021-10-12T19:31:42.075Z</time>
      </trkpt>
      <trkpt lat="42.93323" lon="0.77415">
        <ele>1209.185166</ele>
        <time>2021-10-12T19:32:05.994Z</time>
      </trkpt>
      <trkpt lat="42.93299" lon="0.77373">
        <ele>1213.076256</ele>
        <time>2021-10-12T19:32:35.654Z</time>
      </trkpt>
      <trkpt lat="42.93284" lon="0.77305">
        <ele>1218.29106</ele>
        <time>2021-10-12T19:33:18.398Z</time>
      </trkpt>
      <trkpt lat="42.93264" lon="0.77257">
        <ele>1222.863006</ele>
        <time>2021-10-12T19:33:53.306Z</time>
      </trkpt>
      <trkpt lat="42.93247" lon="0.77222">
        <ele>1227.324443</ele>
        <time>2021-10-12T19:34:19.538Z</time>
      </trkpt>
      <trkpt lat="42.93216" lon="0.77174">
        <ele>1234.162791</ele>
        <time>2021-10-12T19:35:07.547Z</time>
      </trkpt>
      <trkpt lat="42.93194" lon="0.77119">
        <ele>1240.85536</ele>
        <time>2021-10-12T19:35:54.067Z</time>
      </trkpt>
      <trkpt lat="42.93187" lon="0.77088">
        <ele>1244.35018</ele>
        <time>2021-10-12T19:36:18.233Z</time>
      </trkpt>
      <trkpt lat="42.93175" lon="0.77085">
        <ele>1246.086238</ele>
        <time>2021-10-12T19:36:29.674Z</time>
      </trkpt>
      <trkpt lat="42.93158" lon="0.77096">
        <ele>1248.64171</ele>
        <time>2021-10-12T19:36:47.805Z</time>
      </trkpt>
      <trkpt lat="42.93134" lon="0.77102">
        <ele>1251.41616</ele>
        <time>2021-10-12T19:37:10.525Z</time>
      </trkpt>
      <trkpt lat="42.93118" lon="0.77112">
        <ele>1253.456351</ele>
        <time>2021-10-12T19:37:27.769Z</time>
      </trkpt>
      <trkpt lat="42.93053" lon="0.77171">
        <ele>1262.402783</ele>
        <time>2021-10-12T19:38:34.227Z</time>
      </trkpt>
      <trkpt lat="42.93036" lon="0.77193">
        <ele>1265.039789</ele>
        <time>2021-10-12T19:38:51.949Z</time>
      </trkpt>
      <trkpt lat="42.93029" lon="0.7723">
        <ele>1268.289996</ele>
        <time>2021-10-12T19:39:13.357Z</time>
      </trkpt>
      <trkpt lat="42.93018" lon="0.7734">
        <ele>1272.438006</ele>
        <time>2021-10-12T19:39:57.503Z</time>
      </trkpt>
      <trkpt lat="42.93025" lon="0.77381">
        <ele>1274.019133</ele>
        <time>2021-10-12T19:40:13.545Z</time>
      </trkpt>
      <trkpt lat="42.93014" lon="0.77429">
        <ele>1275.888315</ele>
        <time>2021-10-12T19:40:34.019Z</time>
      </trkpt>
      <trkpt lat="42.93013" lon="0.77453">
        <ele>1276.809051</ele>
        <time>2021-10-12T19:40:43.909Z</time>
      </trkpt>
      <trkpt lat="42.93021" lon="0.77498">
        <ele>1278.565492</ele>
        <time>2021-10-12T19:41:02.955Z</time>
      </trkpt>
      <trkpt lat="42.93024" lon="0.77555">
        <ele>1280.765233</ele>
        <time>2021-10-12T19:41:25.961Z</time>
      </trkpt>
      <trkpt lat="42.9302" lon="0.77566">
        <ele>1281.23065</ele>
        <time>2021-10-12T19:41:30.262Z</time>
      </trkpt>
      <trkpt lat="42.93016" lon="0.77568">
        <ele>1281.455802</ele>
        <time>2021-10-12T19:41:33.325Z</time>
      </trkpt>
      <trkpt lat="42.93012" lon="0.77566">
        <ele>1281.680007</ele>
        <time>2021-10-12T19:41:36.641Z</time>
      </trkpt>
      <trkpt lat="42.93" lon="0.7753">
        <ele>1283.21768</ele>
        <time>2021-10-12T19:41:48.896Z</time>
      </trkpt>
      <trkpt lat="42.9294" lon="0.77445">
        <ele>1287.437315</ele>
        <time>2021-10-12T19:42:29.687Z</time>
      </trkpt>
      <trkpt lat="42.92935" lon="0.77425">
        <ele>1287.928092</ele>
        <time>2021-10-12T19:42:35.102Z</time>
      </trkpt>
      <trkpt lat="42.92936" lon="0.77399">
        <ele>1288.520713</ele>
        <time>2021-10-12T19:42:44.690Z</time>
      </trkpt>
      <trkpt lat="42.92938" lon="0.77388">
        <ele>1288.777989</ele>
        <time>2021-10-12T19:42:49.687Z</time>
      </trkpt>
      <trkpt lat="42.92933" lon="0.77387">
        <ele>1288.930776</ele>
        <time>2021-10-12T19:42:53.091Z</time>
      </trkpt>
      <trkpt lat="42.92916" lon="0.77382">
        <ele>1289.470985</ele>
        <time>2021-10-12T19:43:08.366Z</time>
      </trkpt>
      <trkpt lat="42.92906" lon="0.77395">
        <ele>1289.88373</ele>
        <time>2021-10-12T19:43:22.054Z</time>
      </trkpt>
      <trkpt lat="42.92862" lon="0.77418">
        <ele>1291.357337</ele>
        <time>2021-10-12T19:44:01.396Z</time>
      </trkpt>
      <trkpt lat="42.92836" lon="0.77413">
        <ele>1292.172012</ele>
        <time>2021-10-12T19:44:25.865Z</time>
      </trkpt>
      <trkpt lat="42.92827" lon="0.77412">
        <ele>1292.465017</ele>
        <time>2021-10-12T19:44:32.190Z</time>
      </trkpt>
      <trkpt lat="42.92823" lon="0.77407">
        <ele>1292.59186</ele>
        <time>2021-10-12T19:44:35.058Z</time>
      </trkpt>
      <trkpt lat="42.92789" lon="0.77372">
        <ele>1293.061779</ele>
        <time>2021-10-12T19:44:52.233Z</time>
      </trkpt>
      <trkpt lat="42.92695" lon="0.7732">
        <ele>1294.17685</ele>
        <time>2021-10-12T19:45:31.662Z</time>
      </trkpt>
      <trkpt lat="42.92667" lon="0.77295">
        <ele>1294.544099</ele>
        <time>2021-10-12T19:45:46.971Z</time>
      </trkpt>
      <trkpt lat="42.92637" lon="0.77278">
        <ele>1295.375556</ele>
        <time>2021-10-12T19:46:02.525Z</time>
      </trkpt>
      <trkpt lat="42.92585" lon="0.77216">
        <ele>1297.160147</ele>
        <time>2021-10-12T19:46:37.019Z</time>
      </trkpt>
      <trkpt lat="42.92545" lon="0.77146">
        <ele>1298.831259</ele>
        <time>2021-10-12T19:47:10.064Z</time>
      </trkpt>
      <trkpt lat="42.92519" lon="0.77118">
        <ele>1298.820122</ele>
        <time>2021-10-12T19:47:25.908Z</time>
      </trkpt>
      <trkpt lat="42.92419" lon="0.77054">
        <ele>1296.6727</ele>
        <time>2021-10-12T19:48:00.681Z</time>
      </trkpt>
      <trkpt lat="42.92388" lon="0.77045">
        <ele>1296.043393</ele>
        <time>2021-10-12T19:48:09.761Z</time>
      </trkpt>
      <trkpt lat="42.92356" lon="0.77043">
        <ele>1295.302199</ele>
        <time>2021-10-12T19:48:18.198Z</time>
      </trkpt>
      <trkpt lat="42.92325" lon="0.77046">
        <ele>1294.378305</ele>
        <time>2021-10-12T19:48:26.643Z</time>
      </trkpt>
      <trkpt lat="42.92296" lon="0.77022">
        <ele>1293.363659</ele>
        <time>2021-10-12T19:48:36.101Z</time>
      </trkpt>
      <trkpt lat="42.92273" lon="0.76984">
        <ele>1292.28905</ele>
        <time>2021-10-12T19:48:46.200Z</time>
      </trkpt>
      <trkpt lat="42.92252" lon="0.76935">
        <ele>1291.055274</ele>
        <time>2021-10-12T19:48:58.270Z</time>
      </trkpt>
      <trkpt lat="42.92215" lon="0.76775">
        <ele>1295.59955</ele>
        <time>2021-10-12T19:49:58.559Z</time>
      </trkpt>
      <trkpt lat="42.92196" lon="0.76561">
        <ele>1307.914368</ele>
        <time>2021-10-12T19:51:54.756Z</time>
      </trkpt>
      <trkpt lat="42.92182" lon="0.76506">
        <ele>1312.370215</ele>
        <time>2021-10-12T19:52:29.720Z</time>
      </trkpt>
      <trkpt lat="42.92156" lon="0.76476">
        <ele>1315.855946</ele>
        <time>2021-10-12T19:52:58.348Z</time>
      </trkpt>
      <trkpt lat="42.92104" lon="0.76335">
        <ele>1327.073117</ele>
        <time>2021-10-12T19:54:34.079Z</time>
      </trkpt>
      <trkpt lat="42.92088" lon="0.76277">
        <ele>1331.33745</ele>
        <time>2021-10-12T19:55:06.912Z</time>
      </trkpt>
      <trkpt lat="42.92076" lon="0.76261">
        <ele>1332.890691</ele>
        <time>2021-10-12T19:55:18.400Z</time>
      </trkpt>
      <trkpt lat="42.92041" lon="0.76247">
        <ele>1335.649532</ele>
        <time>2021-10-12T19:55:43.038Z</time>
      </trkpt>
      <trkpt lat="42.9202" lon="0.76226">
        <ele>1335.744382</ele>
        <time>2021-10-12T19:55:59.018Z</time>
      </trkpt>
      <trkpt lat="42.91994" lon="0.76188">
        <ele>1335.882168</ele>
        <time>2021-10-12T19:56:17.876Z</time>
      </trkpt>
      <trkpt lat="42.91965" lon="0.76174">
        <ele>1335.998709</ele>
        <time>2021-10-12T19:56:30.448Z</time>
      </trkpt>
      <trkpt lat="42.91944" lon="0.76172">
        <ele>1336.073149</ele>
        <time>2021-10-12T19:56:37.377Z</time>
      </trkpt>
      <trkpt lat="42.91935" lon="0.76179">
        <ele>1336.113057</ele>
        <time>2021-10-12T19:56:39.127Z</time>
      </trkpt>
      <trkpt lat="42.91938" lon="0.76191">
        <ele>1336.145309</ele>
        <time>2021-10-12T19:56:40.461Z</time>
      </trkpt>
      <trkpt lat="42.91939" lon="0.76206">
        <ele>1336.187163</ele>
        <time>2021-10-12T19:56:42.404Z</time>
      </trkpt>
      <trkpt lat="42.91938" lon="0.76191">
        <ele>1336.229016</ele>
        <time>2021-10-12T19:56:44.142Z</time>
      </trkpt>
      <trkpt lat="42.91935" lon="0.76179">
        <ele>1336.261268</ele>
        <time>2021-10-12T19:56:45.417Z</time>
      </trkpt>
      <trkpt lat="42.91926" lon="0.76154">
        <ele>1334.537583</ele>
        <time>2021-10-12T19:56:48.482Z</time>
      </trkpt>
      <trkpt lat="42.91919" lon="0.76128">
        <ele>1332.128656</ele>
        <time>2021-10-12T19:56:51.383Z</time>
      </trkpt>
      <trkpt lat="42.919" lon="0.76031">
        <ele>1323.579077</ele>
        <time>2021-10-12T19:57:01.347Z</time>
      </trkpt>
      <trkpt lat="42.91901" lon="0.75979">
        <ele>1319.151618</ele>
        <time>2021-10-12T19:57:06.296Z</time>
      </trkpt>
      <trkpt lat="42.91908" lon="0.75928">
        <ele>1314.631034</ele>
        <time>2021-10-12T19:57:11.085Z</time>
      </trkpt>
      <trkpt lat="42.91905" lon="0.75897">
        <ele>1311.063561</ele>
        <time>2021-10-12T19:57:14.068Z</time>
      </trkpt>
      <trkpt lat="42.91873" lon="0.7585">
        <ele>1303.914226</ele>
        <time>2021-10-12T19:57:20.071Z</time>
      </trkpt>
      <trkpt lat="42.9185" lon="0.75785">
        <ele>1295.762707</ele>
        <time>2021-10-12T19:57:26.935Z</time>
      </trkpt>
      <trkpt lat="42.91802" lon="0.75723">
        <ele>1287.0124</ele>
        <time>2021-10-12T19:57:35.519Z</time>
      </trkpt>
      <trkpt lat="42.91777" lon="0.75668">
        <ele>1284.022944</ele>
        <time>2021-10-12T19:57:42.057Z</time>
      </trkpt>
      <trkpt lat="42.91767" lon="0.75673">
        <ele>1283.363651</ele>
        <time>2021-10-12T19:57:43.569Z</time>
      </trkpt>
      <trkpt lat="42.91767" lon="0.75687">
        <ele>1282.721632</ele>
        <time>2021-10-12T19:57:45.054Z</time>
      </trkpt>
      <trkpt lat="42.91798" lon="0.75751">
        <ele>1279.170021</ele>
        <time>2021-10-12T19:57:53.975Z</time>
      </trkpt>
      <trkpt lat="42.91814" lon="0.758">
        <ele>1276.720763</ele>
        <time>2021-10-12T19:58:00.951Z</time>
      </trkpt>
      <trkpt lat="42.91815" lon="0.75847">
        <ele>1275.703659</ele>
        <time>2021-10-12T19:58:07.635Z</time>
      </trkpt>
      <trkpt lat="42.91826" lon="0.75908">
        <ele>1274.405457</ele>
        <time>2021-10-12T19:58:17.146Z</time>
      </trkpt>
      <trkpt lat="42.91823" lon="0.75919">
        <ele>1274.182338</ele>
        <time>2021-10-12T19:58:18.759Z</time>
      </trkpt>
      <trkpt lat="42.91817" lon="0.75923">
        <ele>1273.979833</ele>
        <time>2021-10-12T19:58:20.015Z</time>
      </trkpt>
      <trkpt lat="42.91806" lon="0.75911">
        <ele>1273.599224</ele>
        <time>2021-10-12T19:58:22.384Z</time>
      </trkpt>
      <trkpt lat="42.91804" lon="0.7587">
        <ele>1272.746924</ele>
        <time>2021-10-12T19:58:27.423Z</time>
      </trkpt>
      <trkpt lat="42.91771" lon="0.75749">
        <ele>1266.791194</ele>
        <time>2021-10-12T19:58:41.319Z</time>
      </trkpt>
      <trkpt lat="42.9176" lon="0.75748">
        <ele>1265.77709</ele>
        <time>2021-10-12T19:58:42.854Z</time>
      </trkpt>
      <trkpt lat="42.91756" lon="0.75759">
        <ele>1264.921279</ele>
        <time>2021-10-12T19:58:44.173Z</time>
      </trkpt>
      <trkpt lat="42.91768" lon="0.7579">
        <ele>1262.681145</ele>
        <time>2021-10-12T19:58:47.548Z</time>
      </trkpt>
      <trkpt lat="42.91775" lon="0.75845">
        <ele>1258.929187</ele>
        <time>2021-10-12T19:58:53.155Z</time>
      </trkpt>
      <trkpt lat="42.91766" lon="0.75855">
        <ele>1257.854445</ele>
        <time>2021-10-12T19:58:54.755Z</time>
      </trkpt>
      <trkpt lat="42.91756" lon="0.75847">
        <ele>1256.775801</ele>
        <time>2021-10-12T19:58:56.353Z</time>
      </trkpt>
      <trkpt lat="42.91753" lon="0.75811">
        <ele>1254.241801</ele>
        <time>2021-10-12T19:58:59.853Z</time>
      </trkpt>
      <trkpt lat="42.91747" lon="0.75787">
        <ele>1252.237343</ele>
        <time>2021-10-12T19:59:02.348Z</time>
      </trkpt>
      <trkpt lat="42.917" lon="0.75696">
        <ele>1243.553244</ele>
        <time>2021-10-12T19:59:13.313Z</time>
      </trkpt>
      <trkpt lat="42.91694" lon="0.75661">
        <ele>1240.814146</ele>
        <time>2021-10-12T19:59:16.811Z</time>
      </trkpt>
      <trkpt lat="42.91699" lon="0.75626">
        <ele>1238.056569</ele>
        <time>2021-10-12T19:59:20.365Z</time>
      </trkpt>
      <trkpt lat="42.9169" lon="0.75609">
        <ele>1236.418889</ele>
        <time>2021-10-12T19:59:22.469Z</time>
      </trkpt>
      <trkpt lat="42.91683" lon="0.7561">
        <ele>1235.803822</ele>
        <time>2021-10-12T19:59:23.368Z</time>
      </trkpt>
      <trkpt lat="42.9168" lon="0.75622">
        <ele>1234.957046</ele>
        <time>2021-10-12T19:59:24.676Z</time>
      </trkpt>
      <trkpt lat="42.91681" lon="0.75698">
        <ele>1229.935615</ele>
        <time>2021-10-12T19:59:32.434Z</time>
      </trkpt>
      <trkpt lat="42.91687" lon="0.75744">
        <ele>1226.883097</ele>
        <time>2021-10-12T19:59:37.164Z</time>
      </trkpt>
      <trkpt lat="42.91682" lon="0.75755">
        <ele>1226.042881</ele>
        <time>2021-10-12T19:59:38.461Z</time>
      </trkpt>
      <trkpt lat="42.9167" lon="0.75763">
        <ele>1224.873582</ele>
        <time>2021-10-12T19:59:40.271Z</time>
      </trkpt>
      <trkpt lat="42.91646" lon="0.75765">
        <ele>1222.705034</ele>
        <time>2021-10-12T19:59:43.586Z</time>
      </trkpt>
      <trkpt lat="42.91616" lon="0.75752">
        <ele>1219.827384</ele>
        <time>2021-10-12T19:59:47.900Z</time>
      </trkpt>
      <trkpt lat="42.91585" lon="0.75719">
        <ele>1215.101963</ele>
        <time>2021-10-12T19:59:53.308Z</time>
      </trkpt>
      <trkpt lat="42.91548" lon="0.75666">
        <ele>1208.706897</ele>
        <time>2021-10-12T20:00:00.347Z</time>
      </trkpt>
      <trkpt lat="42.91535" lon="0.75659">
        <ele>1207.007368</ele>
        <time>2021-10-12T20:00:02.314Z</time>
      </trkpt>
      <trkpt lat="42.91516" lon="0.75665">
        <ele>1204.747848</ele>
        <time>2021-10-12T20:00:04.793Z</time>
      </trkpt>
      <trkpt lat="42.91486" lon="0.75725">
        <ele>1198.427117</ele>
        <time>2021-10-12T20:00:11.896Z</time>
      </trkpt>
      <trkpt lat="42.91472" lon="0.75729">
        <ele>1196.869908</ele>
        <time>2021-10-12T20:00:13.757Z</time>
      </trkpt>
      <trkpt lat="42.9147" lon="0.75726">
        <ele>1196.44574</ele>
        <time>2021-10-12T20:00:14.231Z</time>
      </trkpt>
      <trkpt lat="42.91469" lon="0.75723">
        <ele>1196.229687</ele>
        <time>2021-10-12T20:00:14.498Z</time>
      </trkpt>
      <trkpt lat="42.91482" lon="0.75678">
        <ele>1192.153863</ele>
        <time>2021-10-12T20:00:19.241Z</time>
      </trkpt>
      <trkpt lat="42.91493" lon="0.75602">
        <ele>1185.694094</ele>
        <time>2021-10-12T20:00:26.855Z</time>
      </trkpt>
      <trkpt lat="42.91489" lon="0.75589">
        <ele>1184.541639</ele>
        <time>2021-10-12T20:00:28.260Z</time>
      </trkpt>
      <trkpt lat="42.91478" lon="0.75591">
        <ele>1183.258624</ele>
        <time>2021-10-12T20:00:29.699Z</time>
      </trkpt>
      <trkpt lat="42.9146" lon="0.75625">
        <ele>1179.810198</ele>
        <time>2021-10-12T20:00:33.744Z</time>
      </trkpt>
      <trkpt lat="42.91422" lon="0.75675">
        <ele>1174.671661</ele>
        <time>2021-10-12T20:00:41.278Z</time>
      </trkpt>
      <trkpt lat="42.91408" lon="0.75682">
        <ele>1173.332104</ele>
        <time>2021-10-12T20:00:43.385Z</time>
      </trkpt>
      <trkpt lat="42.914" lon="0.75671">
        <ele>1172.307769</ele>
        <time>2021-10-12T20:00:44.972Z</time>
      </trkpt>
      <trkpt lat="42.91422" lon="0.75614">
        <ele>1168.099185</ele>
        <time>2021-10-12T20:00:51.489Z</time>
      </trkpt>
      <trkpt lat="42.91444" lon="0.75498">
        <ele>1160.234634</ele>
        <time>2021-10-12T20:01:03.597Z</time>
      </trkpt>
      <trkpt lat="42.91451" lon="0.75479">
        <ele>1158.863142</ele>
        <time>2021-10-12T20:01:05.670Z</time>
      </trkpt>
      <trkpt lat="42.91465" lon="0.75462">
        <ele>1157.123215</ele>
        <time>2021-10-12T20:01:08.339Z</time>
      </trkpt>
      <trkpt lat="42.91466" lon="0.75452">
        <ele>1156.48628</ele>
        <time>2021-10-12T20:01:09.308Z</time>
      </trkpt>
      <trkpt lat="42.91461" lon="0.75446">
        <ele>1155.877418</ele>
        <time>2021-10-12T20:01:10.227Z</time>
      </trkpt>
      <trkpt lat="42.91453" lon="0.75448">
        <ele>1155.155409</ele>
        <time>2021-10-12T20:01:11.322Z</time>
      </trkpt>
      <trkpt lat="42.91384" lon="0.75519">
        <ele>1147.358803</ele>
        <time>2021-10-12T20:01:23.232Z</time>
      </trkpt>
      <trkpt lat="42.91376" lon="0.75521">
        <ele>1146.654084</ele>
        <time>2021-10-12T20:01:24.313Z</time>
      </trkpt>
      <trkpt lat="42.91369" lon="0.75512">
        <ele>1145.770514</ele>
        <time>2021-10-12T20:01:25.684Z</time>
      </trkpt>
      <trkpt lat="42.91372" lon="0.755">
        <ele>1145.089092</ele>
        <time>2021-10-12T20:01:26.929Z</time>
      </trkpt>
      <trkpt lat="42.91393" lon="0.75467">
        <ele>1142.609972</ele>
        <time>2021-10-12T20:01:31.495Z</time>
      </trkpt>
      <trkpt lat="42.91402" lon="0.75439">
        <ele>1140.904582</ele>
        <time>2021-10-12T20:01:34.633Z</time>
      </trkpt>
      <trkpt lat="42.91405" lon="0.75358">
        <ele>1136.363358</ele>
        <time>2021-10-12T20:01:43.092Z</time>
      </trkpt>
      <trkpt lat="42.91421" lon="0.7531">
        <ele>1133.453233</ele>
        <time>2021-10-12T20:01:48.550Z</time>
      </trkpt>
      <trkpt lat="42.91413" lon="0.75303">
        <ele>1132.733171</ele>
        <time>2021-10-12T20:01:49.896Z</time>
      </trkpt>
      <trkpt lat="42.91401" lon="0.75314">
        <ele>1131.676981</ele>
        <time>2021-10-12T20:01:51.955Z</time>
      </trkpt>
      <trkpt lat="42.91334" lon="0.75412">
        <ele>1124.484962</ele>
        <time>2021-10-12T20:02:06.253Z</time>
      </trkpt>
      <trkpt lat="42.91327" lon="0.75413">
        <ele>1124.000267</ele>
        <time>2021-10-12T20:02:07.220Z</time>
      </trkpt>
      <trkpt lat="42.91323" lon="0.75403">
        <ele>1123.371472</ele>
        <time>2021-10-12T20:02:08.441Z</time>
      </trkpt>
      <trkpt lat="42.91341" lon="0.75356">
        <ele>1120.508949</ele>
        <time>2021-10-12T20:02:13.946Z</time>
      </trkpt>
      <trkpt lat="42.9136" lon="0.75274">
        <ele>1114.329663</ele>
        <time>2021-10-12T20:02:22.527Z</time>
      </trkpt>
      <trkpt lat="42.91383" lon="0.75234">
        <ele>1110.178299</ele>
        <time>2021-10-12T20:02:27.576Z</time>
      </trkpt>
      <trkpt lat="42.91407" lon="0.75215">
        <ele>1107.109796</ele>
        <time>2021-10-12T20:02:31.273Z</time>
      </trkpt>
      <trkpt lat="42.91487" lon="0.75182">
        <ele>1097.443205</ele>
        <time>2021-10-12T20:02:42.419Z</time>
      </trkpt>
      <trkpt lat="42.91531" lon="0.75175">
        <ele>1091.37287</ele>
        <time>2021-10-12T20:02:48.223Z</time>
      </trkpt>
      <trkpt lat="42.91541" lon="0.75157">
        <ele>1089.180711</ele>
        <time>2021-10-12T20:02:50.299Z</time>
      </trkpt>
      <trkpt lat="42.91543" lon="0.75102">
        <ele>1083.645802</ele>
        <time>2021-10-12T20:02:55.556Z</time>
      </trkpt>
      <trkpt lat="42.9153" lon="0.7503">
        <ele>1076.231321</ele>
        <time>2021-10-12T20:03:02.659Z</time>
      </trkpt>
      <trkpt lat="42.91532" lon="0.74968">
        <ele>1070.986408</ele>
        <time>2021-10-12T20:03:08.751Z</time>
      </trkpt>
      <trkpt lat="42.91525" lon="0.74917">
        <ele>1067.095624</ele>
        <time>2021-10-12T20:03:13.730Z</time>
      </trkpt>
      <trkpt lat="42.91545" lon="0.74663">
        <ele>1049.418124</ele>
        <time>2021-10-12T20:03:39.599Z</time>
      </trkpt>
      <trkpt lat="42.91559" lon="0.74629">
        <ele>1047.11745</ele>
        <time>2021-10-12T20:03:43.692Z</time>
      </trkpt>
      <trkpt lat="42.91562" lon="0.74612">
        <ele>1046.112544</ele>
        <time>2021-10-12T20:03:45.480Z</time>
      </trkpt>
      <trkpt lat="42.91552" lon="0.74528">
        <ele>1041.127899</ele>
        <time>2021-10-12T20:03:54.297Z</time>
      </trkpt>
      <trkpt lat="42.91557" lon="0.74497">
        <ele>1039.285301</ele>
        <time>2021-10-12T20:03:57.545Z</time>
      </trkpt>
      <trkpt lat="42.91555" lon="0.74421">
        <ele>1034.796667</ele>
        <time>2021-10-12T20:04:05.421Z</time>
      </trkpt>
      <trkpt lat="42.91564" lon="0.74386">
        <ele>1032.629619</ele>
        <time>2021-10-12T20:04:09.219Z</time>
      </trkpt>
      <trkpt lat="42.91552" lon="0.74378">
        <ele>1031.583128</ele>
        <time>2021-10-12T20:04:11.043Z</time>
      </trkpt>
      <trkpt lat="42.91548" lon="0.74385">
        <ele>1031.076231</ele>
        <time>2021-10-12T20:04:11.935Z</time>
      </trkpt>
      <trkpt lat="42.91535" lon="0.74468">
        <ele>1025.958522</ele>
        <time>2021-10-12T20:04:20.633Z</time>
      </trkpt>
      <trkpt lat="42.91511" lon="0.7451">
        <ele>1022.322803</ele>
        <time>2021-10-12T20:04:25.978Z</time>
      </trkpt>
      <trkpt lat="42.91506" lon="0.74562">
        <ele>1018.694039</ele>
        <time>2021-10-12T20:04:31.279Z</time>
      </trkpt>
      <trkpt lat="42.91495" lon="0.74568">
        <ele>1017.609736</ele>
        <time>2021-10-12T20:04:32.864Z</time>
      </trkpt>
      <trkpt lat="42.9149" lon="0.7456">
        <ele>1016.951505</ele>
        <time>2021-10-12T20:04:33.813Z</time>
      </trkpt>
      <trkpt lat="42.9149" lon="0.74532">
        <ele>1015.011793</ele>
        <time>2021-10-12T20:04:36.640Z</time>
      </trkpt>
      <trkpt lat="42.91493" lon="0.74493">
        <ele>1012.302948</ele>
        <time>2021-10-12T20:04:40.580Z</time>
      </trkpt>
      <trkpt lat="42.91506" lon="0.74424">
        <ele>1006.807621</ele>
        <time>2021-10-12T20:04:47.679Z</time>
      </trkpt>
      <trkpt lat="42.91507" lon="0.74341">
        <ele>999.700044</ele>
        <time>2021-10-12T20:04:55.858Z</time>
      </trkpt>
      <trkpt lat="42.91528" lon="0.74228">
        <ele>989.708691</ele>
        <time>2021-10-12T20:05:07.150Z</time>
      </trkpt>
      <trkpt lat="42.91544" lon="0.74186">
        <ele>985.390906</ele>
        <time>2021-10-12T20:05:11.696Z</time>
      </trkpt>
      <trkpt lat="42.91549" lon="0.74178">
        <ele>984.41022</ele>
        <time>2021-10-12T20:05:12.711Z</time>
      </trkpt>
      <trkpt lat="42.9158" lon="0.74158">
        <ele>980.131593</ele>
        <time>2021-10-12T20:05:17.153Z</time>
      </trkpt>
      <trkpt lat="42.91587" lon="0.74141">
        <ele>978.27942</ele>
        <time>2021-10-12T20:05:19.083Z</time>
      </trkpt>
      <trkpt lat="42.9159" lon="0.74107">
        <ele>975.141746</ele>
        <time>2021-10-12T20:05:22.354Z</time>
      </trkpt>
      <trkpt lat="42.91572" lon="0.74035">
        <ele>968.060774</ele>
        <time>2021-10-12T20:05:29.752Z</time>
      </trkpt>
      <trkpt lat="42.9157" lon="0.74005">
        <ele>965.443823</ele>
        <time>2021-10-12T20:05:32.690Z</time>
      </trkpt>
      <trkpt lat="42.91575" lon="0.73966">
        <ele>962.602802</ele>
        <time>2021-10-12T20:05:36.569Z</time>
      </trkpt>
      <trkpt lat="42.91607" lon="0.73891">
        <ele>956.396464</ele>
        <time>2021-10-12T20:05:45.148Z</time>
      </trkpt>
      <trkpt lat="42.91621" lon="0.7387">
        <ele>954.359994</ele>
        <time>2021-10-12T20:05:48.026Z</time>
      </trkpt>
      <trkpt lat="42.91636" lon="0.73865">
        <ele>952.886389</ele>
        <time>2021-10-12T20:05:50.119Z</time>
      </trkpt>
      <trkpt lat="42.91694" lon="0.73886">
        <ele>947.192414</ele>
        <time>2021-10-12T20:05:58.547Z</time>
      </trkpt>
      <trkpt lat="42.91717" lon="0.73872">
        <ele>944.993453</ele>
        <time>2021-10-12T20:06:02.094Z</time>
      </trkpt>
      <trkpt lat="42.91721" lon="0.73846">
        <ele>943.33437</ele>
        <time>2021-10-12T20:06:04.747Z</time>
      </trkpt>
      <trkpt lat="42.91712" lon="0.73817">
        <ele>941.321799</ele>
        <time>2021-10-12T20:06:07.944Z</time>
      </trkpt>
      <trkpt lat="42.91679" lon="0.73758">
        <ele>936.561529</ele>
        <time>2021-10-12T20:06:15.471Z</time>
      </trkpt>
      <trkpt lat="42.91663" lon="0.73712">
        <ele>933.377619</ele>
        <time>2021-10-12T20:06:20.518Z</time>
      </trkpt>
      <trkpt lat="42.91714" lon="0.73593">
        <ele>924.490157</ele>
        <time>2021-10-12T20:06:34.582Z</time>
      </trkpt>
      <trkpt lat="42.91718" lon="0.73548">
        <ele>921.569666</ele>
        <time>2021-10-12T20:06:39.195Z</time>
      </trkpt>
      <trkpt lat="42.91727" lon="0.73532">
        <ele>920.27435</ele>
        <time>2021-10-12T20:06:41.246Z</time>
      </trkpt>
      <trkpt lat="42.91741" lon="0.73444">
        <ele>914.313948</ele>
        <time>2021-10-12T20:06:50.236Z</time>
      </trkpt>
      <trkpt lat="42.91753" lon="0.73404">
        <ele>911.337201</ele>
        <time>2021-10-12T20:06:54.580Z</time>
      </trkpt>
      <trkpt lat="42.91761" lon="0.73344">
        <ele>907.119399</ele>
        <time>2021-10-12T20:07:00.783Z</time>
      </trkpt>
      <trkpt lat="42.91773" lon="0.73286">
        <ele>902.970103</ele>
        <time>2021-10-12T20:07:06.821Z</time>
      </trkpt>
      <trkpt lat="42.91789" lon="0.7326">
        <ele>900.609933</ele>
        <time>2021-10-12T20:07:10.225Z</time>
      </trkpt>
      <trkpt lat="42.91803" lon="0.73204">
        <ele>896.233537</ele>
        <time>2021-10-12T20:07:16.110Z</time>
      </trkpt>
      <trkpt lat="42.91809" lon="0.73135">
        <ele>891.098619</ele>
        <time>2021-10-12T20:07:22.908Z</time>
      </trkpt>
      <trkpt lat="42.91837" lon="0.73013">
        <ele>881.570203</ele>
        <time>2021-10-12T20:07:35.749Z</time>
      </trkpt>
      <trkpt lat="42.91845" lon="0.72957">
        <ele>878.034364</ele>
        <time>2021-10-12T20:07:41.489Z</time>
      </trkpt>
      <trkpt lat="42.91863" lon="0.72889">
        <ele>873.636258</ele>
        <time>2021-10-12T20:07:48.697Z</time>
      </trkpt>
      <trkpt lat="42.91904" lon="0.72775">
        <ele>865.961469</ele>
        <time>2021-10-12T20:08:01.860Z</time>
      </trkpt>
      <trkpt lat="42.9191" lon="0.72638">
        <ele>859.558899</ele>
        <time>2021-10-12T20:08:16.467Z</time>
      </trkpt>
      <trkpt lat="42.91921" lon="0.726">
        <ele>857.691275</ele>
        <time>2021-10-12T20:08:20.807Z</time>
      </trkpt>
      <trkpt lat="42.91955" lon="0.72531">
        <ele>853.795113</ele>
        <time>2021-10-12T20:08:29.884Z</time>
      </trkpt>
      <trkpt lat="42.92011" lon="0.72468">
        <ele>849.159458</ele>
        <time>2021-10-12T20:08:40.562Z</time>
      </trkpt>
      <trkpt lat="42.92109" lon="0.72381">
        <ele>840.963683</ele>
        <time>2021-10-12T20:08:57.266Z</time>
      </trkpt>
      <trkpt lat="42.92204" lon="0.72224">
        <ele>827.614051</ele>
        <time>2021-10-12T20:09:18.035Z</time>
      </trkpt>
      <trkpt lat="42.9226" lon="0.72162">
        <ele>818.43412</ele>
        <time>2021-10-12T20:09:27.467Z</time>
      </trkpt>
      <trkpt lat="42.92278" lon="0.72116">
        <ele>813.527415</ele>
        <time>2021-10-12T20:09:32.496Z</time>
      </trkpt>
      <trkpt lat="42.92281" lon="0.72077">
        <ele>809.878301</ele>
        <time>2021-10-12T20:09:36.228Z</time>
      </trkpt>
      <trkpt lat="42.92277" lon="0.72031">
        <ele>805.552355</ele>
        <time>2021-10-12T20:09:40.679Z</time>
      </trkpt>
      <trkpt lat="42.92266" lon="0.72">
        <ele>802.529659</ele>
        <time>2021-10-12T20:09:44.026Z</time>
      </trkpt>
      <trkpt lat="42.92263" lon="0.7198">
        <ele>800.827703</ele>
        <time>2021-10-12T20:09:46.066Z</time>
      </trkpt>
      <trkpt lat="42.92248" lon="0.71932">
        <ele>796.397594</ele>
        <time>2021-10-12T20:09:51.352Z</time>
      </trkpt>
      <trkpt lat="42.92226" lon="0.71874">
        <ele>790.906932</ele>
        <time>2021-10-12T20:09:57.996Z</time>
      </trkpt>
      <trkpt lat="42.92197" lon="0.71861">
        <ele>787.411791</ele>
        <time>2021-10-12T20:10:02.339Z</time>
      </trkpt>
      <trkpt lat="42.92171" lon="0.71852">
        <ele>784.402684</ele>
        <time>2021-10-12T20:10:06.203Z</time>
      </trkpt>
      <trkpt lat="42.92162" lon="0.71848">
        <ele>783.64418</ele>
        <time>2021-10-12T20:10:07.541Z</time>
      </trkpt>
      <trkpt lat="42.92122" lon="0.71829">
        <ele>780.875384</ele>
        <time>2021-10-12T20:10:14.026Z</time>
      </trkpt>
      <trkpt lat="42.92072" lon="0.71797">
        <ele>777.207509</ele>
        <time>2021-10-12T20:10:22.664Z</time>
      </trkpt>
      <trkpt lat="42.92051" lon="0.71746">
        <ele>774.445648</ele>
        <time>2021-10-12T20:10:29.187Z</time>
      </trkpt>
      <trkpt lat="42.92002" lon="0.71698">
        <ele>769.951204</ele>
        <time>2021-10-12T20:10:38.465Z</time>
      </trkpt>
      <trkpt lat="42.91935" lon="0.7162">
        <ele>762.5123</ele>
        <time>2021-10-12T20:10:51.666Z</time>
      </trkpt>
      <trkpt lat="42.91932" lon="0.71622">
        <ele>762.211399</ele>
        <time>2021-10-12T20:10:52.153Z</time>
      </trkpt>
      <trkpt lat="42.91913" lon="0.71602">
        <ele>760.18712</ele>
        <time>2021-10-12T20:10:56.743Z</time>
      </trkpt>
      <trkpt lat="42.91905" lon="0.71592">
        <ele>759.294373</ele>
        <time>2021-10-12T20:10:58.666Z</time>
      </trkpt>
      <trkpt lat="42.91897" lon="0.71578">
        <ele>758.135075</ele>
        <time>2021-10-12T20:11:01.283Z</time>
      </trkpt>
      <trkpt lat="42.91873" lon="0.71546">
        <ele>753.433338</ele>
        <time>2021-10-12T20:11:07.279Z</time>
      </trkpt>
      <trkpt lat="42.91864" lon="0.71544">
        <ele>751.852747</ele>
        <time>2021-10-12T20:11:08.892Z</time>
      </trkpt>
      <trkpt lat="42.91861" lon="0.71541">
        <ele>751.173751</ele>
        <time>2021-10-12T20:11:09.558Z</time>
      </trkpt>
      <trkpt lat="42.91853" lon="0.71534">
        <ele>749.541387</ele>
        <time>2021-10-12T20:11:11.183Z</time>
      </trkpt>
      <trkpt lat="42.91842" lon="0.71539">
        <ele>747.367511</ele>
        <time>2021-10-12T20:11:13.332Z</time>
      </trkpt>
      <trkpt lat="42.91848" lon="0.71549">
        <ele>745.653282</ele>
        <time>2021-10-12T20:11:15.103Z</time>
      </trkpt>
      <trkpt lat="42.91851" lon="0.71557">
        <ele>744.48798</ele>
        <time>2021-10-12T20:11:16.252Z</time>
      </trkpt>
      <trkpt lat="42.91855" lon="0.71566">
        <ele>743.141708</ele>
        <time>2021-10-12T20:11:17.564Z</time>
      </trkpt>
      <trkpt lat="42.91861" lon="0.71586">
        <ele>740.408306</ele>
        <time>2021-10-12T20:11:20.242Z</time>
      </trkpt>
      <trkpt lat="42.9186" lon="0.71597">
        <ele>738.945908</ele>
        <time>2021-10-12T20:11:21.695Z</time>
      </trkpt>
      <trkpt lat="42.91853" lon="0.71606">
        <ele>737.268339</ele>
        <time>2021-10-12T20:11:23.312Z</time>
      </trkpt>
      <trkpt lat="42.91845" lon="0.71596">
        <ele>735.404382</ele>
        <time>2021-10-12T20:11:25.112Z</time>
      </trkpt>
      <trkpt lat="42.91838" lon="0.71592">
        <ele>734.078053</ele>
        <time>2021-10-12T20:11:26.439Z</time>
      </trkpt>
      <trkpt lat="42.91828" lon="0.71598">
        <ele>732.157751</ele>
        <time>2021-10-12T20:11:28.304Z</time>
      </trkpt>
      <trkpt lat="42.91814" lon="0.71616">
        <ele>728.695082</ele>
        <time>2021-10-12T20:11:31.661Z</time>
      </trkpt>
      <trkpt lat="42.918" lon="0.71644">
        <ele>724.394986</ele>
        <time>2021-10-12T20:11:35.812Z</time>
      </trkpt>
      <trkpt lat="42.91788" lon="0.71645">
        <ele>722.188501</ele>
        <time>2021-10-12T20:11:37.434Z</time>
      </trkpt>
      <trkpt lat="42.91778" lon="0.71636">
        <ele>720.048581</ele>
        <time>2021-10-12T20:11:39.044Z</time>
      </trkpt>
      <trkpt lat="42.91762" lon="0.71637">
        <ele>717.141366</ele>
        <time>2021-10-12T20:11:41.181Z</time>
      </trkpt>
      <trkpt lat="42.9175" lon="0.71638">
        <ele>715.077033</ele>
        <time>2021-10-12T20:11:42.731Z</time>
      </trkpt>
      <trkpt lat="42.91705" lon="0.71635">
        <ele>706.894984</ele>
        <time>2021-10-12T20:11:48.802Z</time>
      </trkpt>
      <trkpt lat="42.91688" lon="0.71626">
        <ele>703.731194</ele>
        <time>2021-10-12T20:11:51.160Z</time>
      </trkpt>
      <trkpt lat="42.91659" lon="0.71614">
        <ele>698.226312</ele>
        <time>2021-10-12T20:11:55.297Z</time>
      </trkpt>
      <trkpt lat="42.91645" lon="0.71581">
        <ele>693.275928</ele>
        <time>2021-10-12T20:11:58.927Z</time>
      </trkpt>
      <trkpt lat="42.91626" lon="0.71522">
        <ele>687.80451</ele>
        <time>2021-10-12T20:12:05.149Z</time>
      </trkpt>
      <trkpt lat="42.91623" lon="0.71481">
        <ele>684.261872</ele>
        <time>2021-10-12T20:12:09.277Z</time>
      </trkpt>
      <trkpt lat="42.91607" lon="0.71448">
        <ele>680.902262</ele>
        <time>2021-10-12T20:12:13.242Z</time>
      </trkpt>
      <trkpt lat="42.91535" lon="0.71386">
        <ele>670.957702</ele>
        <time>2021-10-12T20:12:24.797Z</time>
      </trkpt>
      <trkpt lat="42.91455" lon="0.71349">
        <ele>659.787313</ele>
        <time>2021-10-12T20:12:35.866Z</time>
      </trkpt>
      <trkpt lat="42.91414" lon="0.71322">
        <ele>653.811757</ele>
        <time>2021-10-12T20:12:41.750Z</time>
      </trkpt>
      <trkpt lat="42.91396" lon="0.71299">
        <ele>650.485739</ele>
        <time>2021-10-12T20:12:45.024Z</time>
      </trkpt>
      <trkpt lat="42.91357" lon="0.71228">
        <ele>642.667489</ele>
        <time>2021-10-12T20:12:53.494Z</time>
      </trkpt>
      <trkpt lat="42.91269" lon="0.71126">
        <ele>629.130812</ele>
        <time>2021-10-12T20:13:08.910Z</time>
      </trkpt>
      <trkpt lat="42.91258" lon="0.71079">
        <ele>625.312287</ele>
        <time>2021-10-12T20:13:13.988Z</time>
      </trkpt>
      <trkpt lat="42.91245" lon="0.70983">
        <ele>618.599713</ele>
        <time>2021-10-12T20:13:23.841Z</time>
      </trkpt>
      <trkpt lat="42.91247" lon="0.70941">
        <ele>615.667715</ele>
        <time>2021-10-12T20:13:28.125Z</time>
      </trkpt>
      <trkpt lat="42.91266" lon="0.70865">
        <ele>609.911831</ele>
        <time>2021-10-12T20:13:36.255Z</time>
      </trkpt>
      <trkpt lat="42.91262" lon="0.7085">
        <ele>608.358435</ele>
        <time>2021-10-12T20:13:37.857Z</time>
      </trkpt>
      <trkpt lat="42.91254" lon="0.70842">
        <ele>607.10298</ele>
        <time>2021-10-12T20:13:39.151Z</time>
      </trkpt>
      <trkpt lat="42.91204" lon="0.70811">
        <ele>599.84851</ele>
        <time>2021-10-12T20:13:46.403Z</time>
      </trkpt>
      <trkpt lat="42.91194" lon="0.70791">
        <ele>597.494051</ele>
        <time>2021-10-12T20:13:48.748Z</time>
      </trkpt>
      <trkpt lat="42.91173" lon="0.70699">
        <ele>588.196671</ele>
        <time>2021-10-12T20:13:57.955Z</time>
      </trkpt>
      <trkpt lat="42.91141" lon="0.70642">
        <ele>581.108119</ele>
        <time>2021-10-12T20:14:04.775Z</time>
      </trkpt>
      <trkpt lat="42.91125" lon="0.70603">
        <ele>576.6343</ele>
        <time>2021-10-12T20:14:09.053Z</time>
      </trkpt>
      <trkpt lat="42.91108" lon="0.70495">
        <ele>565.677521</ele>
        <time>2021-10-12T20:14:19.570Z</time>
      </trkpt>
      <trkpt lat="42.91098" lon="0.7039">
        <ele>557.865132</ele>
        <time>2021-10-12T20:14:30.037Z</time>
      </trkpt>
      <trkpt lat="42.91091" lon="0.70357">
        <ele>555.765826</ele>
        <time>2021-10-12T20:14:33.521Z</time>
      </trkpt>
      <trkpt lat="42.91063" lon="0.70301">
        <ele>551.67703</ele>
        <time>2021-10-12T20:14:40.354Z</time>
      </trkpt>
      <trkpt lat="42.91058" lon="0.70251">
        <ele>548.578628</ele>
        <time>2021-10-12T20:14:45.799Z</time>
      </trkpt>
      <trkpt lat="42.91045" lon="0.70204">
        <ele>547.206904</ele>
        <time>2021-10-12T20:14:51.618Z</time>
      </trkpt>
      <trkpt lat="42.91042" lon="0.70173">
        <ele>547.098015</ele>
        <time>2021-10-12T20:14:55.480Z</time>
      </trkpt>
      <trkpt lat="42.91045" lon="0.70136">
        <ele>546.970616</ele>
        <time>2021-10-12T20:15:00.422Z</time>
      </trkpt>
      <trkpt lat="42.91065" lon="0.70097">
        <ele>546.807737</ele>
        <time>2021-10-12T20:15:08.060Z</time>
      </trkpt>
      <trkpt lat="42.91076" lon="0.7007">
        <ele>546.699816</ele>
        <time>2021-10-12T20:15:14.818Z</time>
      </trkpt>
      <trkpt lat="42.9109" lon="0.70021">
        <ele>546.516837</ele>
        <time>2021-10-12T20:15:27.204Z</time>
      </trkpt>
      <trkpt lat="42.9109" lon="0.69952">
        <ele>546.336145</ele>
        <time>2021-10-12T20:15:43.579Z</time>
      </trkpt>
      <trkpt lat="42.91108" lon="0.69881">
        <ele>546.16017</ele>
        <time>2021-10-12T20:16:01.151Z</time>
      </trkpt>
      <trkpt lat="42.9111" lon="0.69838">
        <ele>546.061523</ele>
        <time>2021-10-12T20:16:08.086Z</time>
      </trkpt>
      <trkpt lat="42.91112" lon="0.6982">
        <ele>546.017638</ele>
        <time>2021-10-12T20:16:10.980Z</time>
      </trkpt>
      <trkpt lat="42.91144" lon="0.6973">
        <ele>543.989135</ele>
        <time>2021-10-12T20:16:21.736Z</time>
      </trkpt>
      <trkpt lat="42.91148" lon="0.69671">
        <ele>541.377195</ele>
        <time>2021-10-12T20:16:28.069Z</time>
      </trkpt>
      <trkpt lat="42.91138" lon="0.69635">
        <ele>539.672028</ele>
        <time>2021-10-12T20:16:32.315Z</time>
      </trkpt>
      <trkpt lat="42.91128" lon="0.69599">
        <ele>537.978825</ele>
        <time>2021-10-12T20:16:36.215Z</time>
      </trkpt>
      <trkpt lat="42.9113" lon="0.6957">
        <ele>536.714344</ele>
        <time>2021-10-12T20:16:39.416Z</time>
      </trkpt>
      <trkpt lat="42.91135" lon="0.69553">
        <ele>535.898193</ele>
        <time>2021-10-12T20:16:41.289Z</time>
      </trkpt>
      <trkpt lat="42.91141" lon="0.69548">
        <ele>535.478219</ele>
        <time>2021-10-12T20:16:43.558Z</time>
      </trkpt>
      <trkpt lat="42.9121" lon="0.69501">
        <ele>531.284921</ele>
        <time>2021-10-12T20:16:55.388Z</time>
      </trkpt>
      <trkpt lat="42.91277" lon="0.69484">
        <ele>527.679281</ele>
        <time>2021-10-12T20:17:06.210Z</time>
      </trkpt>
      <trkpt lat="42.91295" lon="0.69475">
        <ele>526.649886</ele>
        <time>2021-10-12T20:17:09.408Z</time>
      </trkpt>
      <trkpt lat="42.91351" lon="0.6944">
        <ele>522.596091</ele>
        <time>2021-10-12T20:17:19.209Z</time>
      </trkpt>
      <trkpt lat="42.91437" lon="0.69373">
        <ele>515.44032</ele>
        <time>2021-10-12T20:17:33.739Z</time>
      </trkpt>
      <trkpt lat="42.91498" lon="0.69344">
        <ele>511.25503</ele>
        <time>2021-10-12T20:17:43.122Z</time>
      </trkpt>
      <trkpt lat="42.91522" lon="0.69317">
        <ele>509.623103</ele>
        <time>2021-10-12T20:17:47.946Z</time>
      </trkpt>
      <trkpt lat="42.91525" lon="0.69313">
        <ele>509.406858</ele>
        <time>2021-10-12T20:17:48.515Z</time>
      </trkpt>
      <trkpt lat="42.91538" lon="0.69299">
        <ele>508.551721</ele>
        <time>2021-10-12T20:17:51.171Z</time>
      </trkpt>
      <trkpt lat="42.91559" lon="0.69209">
        <ele>504.995956</ele>
        <time>2021-10-12T20:18:02.264Z</time>
      </trkpt>
      <trkpt lat="42.9156" lon="0.69204">
        <ele>504.793822</ele>
        <time>2021-10-12T20:18:02.827Z</time>
      </trkpt>
      <trkpt lat="42.91534" lon="0.69191">
        <ele>503.369239</ele>
        <time>2021-10-12T20:18:07.297Z</time>
      </trkpt>
      <trkpt lat="42.91536" lon="0.69185">
        <ele>503.156927</ele>
        <time>2021-10-12T20:18:08.569Z</time>
      </trkpt>
      <trkpt lat="42.91546" lon="0.69158">
        <ele>503.545748</ele>
        <time>2021-10-12T20:18:12.077Z</time>
      </trkpt>
      <trkpt lat="42.9155" lon="0.69143">
        <ele>503.75079</ele>
        <time>2021-10-12T20:18:15.435Z</time>
      </trkpt>
      <trkpt lat="42.91556" lon="0.69128">
        <ele>503.968228</ele>
        <time>2021-10-12T20:18:17.818Z</time>
      </trkpt>
      <trkpt lat="42.91621" lon="0.69003">
        <ele>505.913536</ele>
        <time>2021-10-12T20:18:54.018Z</time>
      </trkpt>
      <trkpt lat="42.91668" lon="0.68898">
        <ele>511.797381</ele>
        <time>2021-10-12T20:19:35.486Z</time>
      </trkpt>
      <trkpt lat="42.91673" lon="0.68853">
        <ele>514.413389</ele>
        <time>2021-10-12T20:19:53.835Z</time>
      </trkpt>
      <trkpt lat="42.91668" lon="0.68747">
        <ele>520.591742</ele>
        <time>2021-10-12T20:20:42.531Z</time>
      </trkpt>
      <trkpt lat="42.91676" lon="0.68688">
        <ele>523.835968</ele>
        <time>2021-10-12T20:21:11.399Z</time>
      </trkpt>
      <trkpt lat="42.91689" lon="0.6864">
        <ele>526.543113</ele>
        <time>2021-10-12T20:21:35.138Z</time>
      </trkpt>
      <trkpt lat="42.91725" lon="0.68544">
        <ele>532.391981</ele>
        <time>2021-10-12T20:22:14.422Z</time>
      </trkpt>
      <trkpt lat="42.91737" lon="0.68462">
        <ele>533.026084</ele>
        <time>2021-10-12T20:22:32.280Z</time>
      </trkpt>
      <trkpt lat="42.91753" lon="0.68265">
        <ele>530.502749</ele>
        <time>2021-10-12T20:22:55.683Z</time>
      </trkpt>
      <trkpt lat="42.91755" lon="0.68219">
        <ele>529.776151</ele>
        <time>2021-10-12T20:23:00.806Z</time>
      </trkpt>
      <trkpt lat="42.91749" lon="0.68158">
        <ele>528.81778</ele>
        <time>2021-10-12T20:23:08.026Z</time>
      </trkpt>
      <trkpt lat="42.9172" lon="0.67871">
        <ele>525.084012</ele>
        <time>2021-10-12T20:23:51.043Z</time>
      </trkpt>
      <trkpt lat="42.917" lon="0.67696">
        <ele>521.213049</ele>
        <time>2021-10-12T20:24:12.440Z</time>
      </trkpt>
      <trkpt lat="42.91695" lon="0.67622">
        <ele>518.885329</ele>
        <time>2021-10-12T20:24:20.543Z</time>
      </trkpt>
      <trkpt lat="42.917" lon="0.67526">
        <ele>515.912648</ele>
        <time>2021-10-12T20:24:31.135Z</time>
      </trkpt>
      <trkpt lat="42.91669" lon="0.67404">
        <ele>512.332919</ele>
        <time>2021-10-12T20:24:45.628Z</time>
      </trkpt>
      <trkpt lat="42.91678" lon="0.67283">
        <ele>509.64743</ele>
        <time>2021-10-12T20:25:00.559Z</time>
      </trkpt>
      <trkpt lat="42.91671" lon="0.67234">
        <ele>509.706668</ele>
        <time>2021-10-12T20:25:07.366Z</time>
      </trkpt>
      <trkpt lat="42.91591" lon="0.66946">
        <ele>511.638675</ele>
        <time>2021-10-12T20:26:09.036Z</time>
      </trkpt>
      <trkpt lat="42.91565" lon="0.669">
        <ele>512.367394</ele>
        <time>2021-10-12T20:26:23.034Z</time>
      </trkpt>
      <trkpt lat="42.91529" lon="0.66853">
        <ele>512.938579</ele>
        <time>2021-10-12T20:26:38.965Z</time>
      </trkpt>
      <trkpt lat="42.91508" lon="0.66811">
        <ele>512.717351</ele>
        <time>2021-10-12T20:26:49.551Z</time>
      </trkpt>
      <trkpt lat="42.91509" lon="0.66771">
        <ele>512.546206</ele>
        <time>2021-10-12T20:26:56.791Z</time>
      </trkpt>
      <trkpt lat="42.91519" lon="0.66721">
        <ele>512.322157</ele>
        <time>2021-10-12T20:27:04.710Z</time>
      </trkpt>
      <trkpt lat="42.91515" lon="0.66672">
        <ele>512.112649</ele>
        <time>2021-10-12T20:27:11.082Z</time>
      </trkpt>
      <trkpt lat="42.91483" lon="0.6654">
        <ele>509.181593</ele>
        <time>2021-10-12T20:27:26.876Z</time>
      </trkpt>
      <trkpt lat="42.91478" lon="0.66493">
        <ele>507.89722</ele>
        <time>2021-10-12T20:27:32.206Z</time>
      </trkpt>
      <trkpt lat="42.9148" lon="0.66418">
        <ele>505.886064</ele>
        <time>2021-10-12T20:27:40.892Z</time>
      </trkpt>
      <trkpt lat="42.91471" lon="0.66362">
        <ele>505.304379</ele>
        <time>2021-10-12T20:27:48.131Z</time>
      </trkpt>
      <trkpt lat="42.91463" lon="0.66316">
        <ele>505.254925</ele>
        <time>2021-10-12T20:27:54.696Z</time>
      </trkpt>
      <trkpt lat="42.91448" lon="0.66249">
        <ele>505.1825</ele>
        <time>2021-10-12T20:28:06.027Z</time>
      </trkpt>
      <trkpt lat="42.91449" lon="0.66242">
        <ele>505.174279</ele>
        <time>2021-10-12T20:28:07.806Z</time>
      </trkpt>
      <trkpt lat="42.91451" lon="0.66215">
        <ele>505.146557</ele>
        <time>2021-10-12T20:28:13.187Z</time>
      </trkpt>
      <trkpt lat="42.91439" lon="0.66087">
        <ele>505.252644</ele>
        <time>2021-10-12T20:28:43.022Z</time>
      </trkpt>
      <trkpt lat="42.9144" lon="0.65988">
        <ele>505.478609</ele>
        <time>2021-10-12T20:29:00.537Z</time>
      </trkpt>
      <trkpt lat="42.91441" lon="0.65976">
        <ele>505.506481</ele>
        <time>2021-10-12T20:29:02.949Z</time>
      </trkpt>
      <trkpt lat="42.91446" lon="0.65979">
        <ele>505.524323</ele>
        <time>2021-10-12T20:29:03.912Z</time>
      </trkpt>
      <trkpt lat="42.91474" lon="0.65977">
        <ele>505.608711</ele>
        <time>2021-10-12T20:29:09.790Z</time>
      </trkpt>
      <trkpt lat="42.91483" lon="0.65975">
        <ele>505.639493</ele>
        <time>2021-10-12T20:29:11.510Z</time>
      </trkpt>
      <trkpt lat="42.91488" lon="0.65972">
        <ele>505.58943</ele>
        <time>2021-10-12T20:29:12.503Z</time>
      </trkpt>
      <trkpt lat="42.91502" lon="0.65959">
        <ele>505.242036</ele>
        <time>2021-10-12T20:29:15.731Z</time>
      </trkpt>
      <trkpt lat="42.91518" lon="0.65936">
        <ele>504.727384</ele>
        <time>2021-10-12T20:29:20.147Z</time>
      </trkpt>
      <trkpt lat="42.91523" lon="0.6593">
        <ele>504.598039</ele>
        <time>2021-10-12T20:29:21.271Z</time>
      </trkpt>
      <trkpt lat="42.91545" lon="0.65905">
        <ele>503.984087</ele>
        <time>2021-10-12T20:29:26.480Z</time>
      </trkpt>
      <trkpt lat="42.91553" lon="0.65864">
        <ele>503.321476</ele>
        <time>2021-10-12T20:29:31.999Z</time>
      </trkpt>
      <trkpt lat="42.91555" lon="0.65852">
        <ele>503.135021</ele>
        <time>2021-10-12T20:29:33.572Z</time>
      </trkpt>
      <trkpt lat="42.916" lon="0.65823">
        <ele>502.086834</ele>
        <time>2021-10-12T20:29:42.315Z</time>
      </trkpt>
      <trkpt lat="42.91587" lon="0.65734">
        <ele>500.844534</ele>
        <time>2021-10-12T20:29:54.340Z</time>
      </trkpt>
      <trkpt lat="42.9159" lon="0.65693">
        <ele>500.287883</ele>
        <time>2021-10-12T20:29:59.944Z</time>
      </trkpt>
      <trkpt lat="42.91559" lon="0.6558">
        <ele>498.67386</ele>
        <time>2021-10-12T20:30:16.675Z</time>
      </trkpt>
      <trkpt lat="42.91542" lon="0.65539">
        <ele>498.291417</ele>
        <time>2021-10-12T20:30:23.492Z</time>
      </trkpt>
      <trkpt lat="42.91522" lon="0.65493">
        <ele>497.927882</ele>
        <time>2021-10-12T20:30:31.533Z</time>
      </trkpt>
      <trkpt lat="42.91522" lon="0.65485">
        <ele>497.879045</ele>
        <time>2021-10-12T20:30:32.649Z</time>
      </trkpt>
      <trkpt lat="42.91533" lon="0.65466">
        <ele>497.714724</ele>
        <time>2021-10-12T20:30:36.369Z</time>
      </trkpt>
      <trkpt lat="42.91539" lon="0.65459">
        <ele>497.640647</ele>
        <time>2021-10-12T20:30:37.964Z</time>
      </trkpt>
      <trkpt lat="42.91535" lon="0.65447">
        <ele>497.548147</ele>
        <time>2021-10-12T20:30:40.074Z</time>
      </trkpt>
      <trkpt lat="42.91531" lon="0.65438">
        <ele>497.474256</ele>
        <time>2021-10-12T20:30:41.765Z</time>
      </trkpt>
      <trkpt lat="42.91529" lon="0.65434">
        <ele>497.442361</ele>
        <time>2021-10-12T20:30:42.500Z</time>
      </trkpt>
      <trkpt lat="42.91487" lon="0.6533">
        <ele>496.709326</ele>
        <time>2021-10-12T20:31:00.652Z</time>
      </trkpt>
      <trkpt lat="42.91441" lon="0.6522">
        <ele>496.068162</ele>
        <time>2021-10-12T20:31:20.401Z</time>
      </trkpt>
      <trkpt lat="42.9139" lon="0.65122">
        <ele>495.295829</ele>
        <time>2021-10-12T20:31:38.584Z</time>
      </trkpt>
      <trkpt lat="42.91385" lon="0.6512">
        <ele>495.22385</ele>
        <time>2021-10-12T20:31:39.672Z</time>
      </trkpt>
      <trkpt lat="42.91388" lon="0.65099">
        <ele>495.016704</ele>
        <time>2021-10-12T20:31:42.737Z</time>
      </trkpt>
      <trkpt lat="42.91389" lon="0.65088">
        <ele>494.911859</ele>
        <time>2021-10-12T20:31:44.259Z</time>
      </trkpt>
      <trkpt lat="42.91392" lon="0.65068">
        <ele>494.720818</ele>
        <time>2021-10-12T20:31:47.021Z</time>
      </trkpt>
      <trkpt lat="42.91401" lon="0.64994">
        <ele>494.015316</ele>
        <time>2021-10-12T20:31:57.020Z</time>
      </trkpt>
      <trkpt lat="42.91404" lon="0.64974">
        <ele>493.815843</ele>
        <time>2021-10-12T20:31:59.841Z</time>
      </trkpt>
      <trkpt lat="42.91404" lon="0.64969">
        <ele>493.773533</ele>
        <time>2021-10-12T20:32:00.437Z</time>
      </trkpt>
      <trkpt lat="42.91405" lon="0.64959">
        <ele>493.673796</ele>
        <time>2021-10-12T20:32:01.842Z</time>
      </trkpt>
      <trkpt lat="42.91407" lon="0.64945">
        <ele>493.544769</ele>
        <time>2021-10-12T20:32:03.616Z</time>
      </trkpt>
      <trkpt lat="42.91412" lon="0.64913">
        <ele>493.26391</ele>
        <time>2021-10-12T20:32:08.084Z</time>
      </trkpt>
      <trkpt lat="42.91419" lon="0.64865">
        <ele>492.946701</ele>
        <time>2021-10-12T20:32:14.830Z</time>
      </trkpt>
      <trkpt lat="42.91426" lon="0.64819">
        <ele>492.644588</ele>
        <time>2021-10-12T20:32:21.388Z</time>
      </trkpt>
      <trkpt lat="42.9143" lon="0.64811">
        <ele>492.576289</ele>
        <time>2021-10-12T20:32:22.842Z</time>
      </trkpt>
      <trkpt lat="42.91439" lon="0.64768">
        <ele>492.291817</ele>
        <time>2021-10-12T20:32:29.206Z</time>
      </trkpt>
      <trkpt lat="42.91441" lon="0.64762">
        <ele>492.245648</ele>
        <time>2021-10-12T20:32:30.189Z</time>
      </trkpt>
      <trkpt lat="42.91444" lon="0.6476">
        <ele>492.219136</ele>
        <time>2021-10-12T20:32:30.783Z</time>
      </trkpt>
      <trkpt lat="42.91446" lon="0.64758">
        <ele>492.192372</ele>
        <time>2021-10-12T20:32:31.388Z</time>
      </trkpt>
      <trkpt lat="42.91448" lon="0.64754">
        <ele>492.165782</ele>
        <time>2021-10-12T20:32:31.985Z</time>
      </trkpt>
      <trkpt lat="42.91449" lon="0.6475">
        <ele>492.135121</ele>
        <time>2021-10-12T20:32:32.709Z</time>
      </trkpt>
      <trkpt lat="42.91449" lon="0.64741">
        <ele>492.074964</ele>
        <time>2021-10-12T20:32:34.078Z</time>
      </trkpt>
      <trkpt lat="42.91448" lon="0.64736">
        <ele>492.044767</ele>
        <time>2021-10-12T20:32:34.803Z</time>
      </trkpt>
      <trkpt lat="42.91445" lon="0.64733">
        <ele>492.016025</ele>
        <time>2021-10-12T20:32:35.501Z</time>
      </trkpt>
      <trkpt lat="42.91444" lon="0.64725">
        <ele>491.964853</ele>
        <time>2021-10-12T20:32:36.665Z</time>
      </trkpt>
      <trkpt lat="42.91445" lon="0.6471">
        <ele>491.865882</ele>
        <time>2021-10-12T20:32:38.901Z</time>
      </trkpt>
      <trkpt lat="42.9145" lon="0.64687">
        <ele>491.739908</ele>
        <time>2021-10-12T20:32:42.630Z</time>
      </trkpt>
      <trkpt lat="42.9148" lon="0.64483">
        <ele>491.820567</ele>
        <time>2021-10-12T20:33:17.113Z</time>
      </trkpt>
      <trkpt lat="42.91494" lon="0.64389">
        <ele>491.851524</ele>
        <time>2021-10-12T20:33:33.551Z</time>
      </trkpt>
      <trkpt lat="42.91469" lon="0.64316">
        <ele>491.874584</ele>
        <time>2021-10-12T20:33:47.043Z</time>
      </trkpt>
      <trkpt lat="42.91447" lon="0.64267">
        <ele>491.891198</ele>
        <time>2021-10-12T20:33:56.247Z</time>
      </trkpt>
      <trkpt lat="42.91429" lon="0.64232">
        <ele>491.903572</ele>
        <time>2021-10-12T20:34:03.059Z</time>
      </trkpt>
      <trkpt lat="42.91419" lon="0.64197">
        <ele>491.74253</ele>
        <time>2021-10-12T20:34:08.877Z</time>
      </trkpt>
      <trkpt lat="42.91419" lon="0.64151">
        <ele>491.531324</ele>
        <time>2021-10-12T20:34:15.720Z</time>
      </trkpt>
      <trkpt lat="42.9143" lon="0.64116">
        <ele>491.352112</ele>
        <time>2021-10-12T20:34:21.361Z</time>
      </trkpt>
      <trkpt lat="42.91443" lon="0.64084">
        <ele>491.1815</ele>
        <time>2021-10-12T20:34:26.737Z</time>
      </trkpt>
      <trkpt lat="42.9145" lon="0.64066">
        <ele>491.089549</ele>
        <time>2021-10-12T20:34:29.605Z</time>
      </trkpt>
      <trkpt lat="42.91451" lon="0.64035">
        <ele>490.946484</ele>
        <time>2021-10-12T20:34:34.041Z</time>
      </trkpt>
      <trkpt lat="42.91453" lon="0.64018">
        <ele>490.865078</ele>
        <time>2021-10-12T20:34:36.530Z</time>
      </trkpt>
      <trkpt lat="42.91461" lon="0.63974">
        <ele>490.756456</ele>
        <time>2021-10-12T20:34:42.787Z</time>
      </trkpt>
      <trkpt lat="42.91469" lon="0.63943">
        <ele>490.735529</ele>
        <time>2021-10-12T20:34:47.812Z</time>
      </trkpt>
      <trkpt lat="42.91483" lon="0.63927">
        <ele>490.719409</ele>
        <time>2021-10-12T20:34:51.688Z</time>
      </trkpt>
      <trkpt lat="42.915" lon="0.63908">
        <ele>490.700942</ele>
        <time>2021-10-12T20:34:57.034Z</time>
      </trkpt>
      <trkpt lat="42.91502" lon="0.63905">
        <ele>490.698345</ele>
        <time>2021-10-12T20:34:57.669Z</time>
      </trkpt>
      <trkpt lat="42.91488" lon="0.639">
        <ele>490.686222</ele>
        <time>2021-10-12T20:35:00.880Z</time>
      </trkpt>
      <trkpt lat="42.91449" lon="0.63882">
        <ele>490.650987</ele>
        <time>2021-10-12T20:35:10.835Z</time>
      </trkpt>
      <trkpt lat="42.91439" lon="0.63879">
        <ele>490.641953</ele>
        <time>2021-10-12T20:35:13.462Z</time>
      </trkpt>
      <trkpt lat="42.91429" lon="0.63875">
        <ele>490.63282</ele>
        <time>2021-10-12T20:35:15.328Z</time>
      </trkpt>
      <trkpt lat="42.91424" lon="0.63875">
        <ele>490.628423</ele>
        <time>2021-10-12T20:35:16.745Z</time>
      </trkpt>
      <trkpt lat="42.91419" lon="0.63875">
        <ele>490.624451</ele>
        <time>2021-10-12T20:35:18.431Z</time>
      </trkpt>
      <trkpt lat="42.91405" lon="0.63876">
        <ele>490.608674</ele>
        <time>2021-10-12T20:35:23.229Z</time>
      </trkpt>
      <trkpt lat="42.91383" lon="0.63868">
        <ele>490.575887</ele>
        <time>2021-10-12T20:35:29.177Z</time>
      </trkpt>
      <trkpt lat="42.91379" lon="0.63858">
        <ele>490.564082</ele>
        <time>2021-10-12T20:35:32.266Z</time>
      </trkpt>
      <trkpt lat="42.91374" lon="0.63851">
        <ele>490.553876</ele>
        <time>2021-10-12T20:35:34.417Z</time>
      </trkpt>
      <trkpt lat="42.91352" lon="0.63839">
        <ele>490.519409</ele>
        <time>2021-10-12T20:35:40.845Z</time>
      </trkpt>
      <trkpt lat="42.91346" lon="0.6384">
        <ele>490.510314</ele>
        <time>2021-10-12T20:35:43.273Z</time>
      </trkpt>
      <trkpt lat="42.91343" lon="0.63841">
        <ele>490.505487</ele>
        <time>2021-10-12T20:35:44.357Z</time>
      </trkpt>
      <trkpt lat="42.91346" lon="0.6384">
        <ele>490.500659</ele>
        <time>2021-10-12T20:35:45.787Z</time>
      </trkpt>
      <trkpt lat="42.91352" lon="0.63839">
        <ele>490.491564</ele>
        <time>2021-10-12T20:35:47.265Z</time>
      </trkpt>
      <trkpt lat="42.91374" lon="0.63851">
        <ele>490.457097</ele>
        <time>2021-10-12T20:35:54.866Z</time>
      </trkpt>
      <trkpt lat="42.91379" lon="0.63858">
        <ele>490.446891</ele>
        <time>2021-10-12T20:35:56.882Z</time>
      </trkpt>
      <trkpt lat="42.91383" lon="0.63868">
        <ele>490.435087</ele>
        <time>2021-10-12T20:35:58.809Z</time>
      </trkpt>
      <trkpt lat="42.91405" lon="0.63876">
        <ele>490.402299</ele>
        <time>2021-10-12T20:36:06.202Z</time>
      </trkpt>
      <trkpt lat="42.91419" lon="0.63875">
        <ele>490.381257</ele>
        <time>2021-10-12T20:36:09.948Z</time>
      </trkpt>
      <trkpt lat="42.91424" lon="0.63875">
        <ele>490.374573</ele>
        <time>2021-10-12T20:36:11.033Z</time>
      </trkpt>
      <trkpt lat="42.91429" lon="0.63875">
        <ele>490.367175</ele>
        <time>2021-10-12T20:36:12.504Z</time>
      </trkpt>
      <trkpt lat="42.91439" lon="0.63879">
        <ele>490.342484</ele>
        <time>2021-10-12T20:36:15.442Z</time>
      </trkpt>
      <trkpt lat="42.91449" lon="0.63882">
        <ele>490.292896</ele>
        <time>2021-10-12T20:36:17.420Z</time>
      </trkpt>
      <trkpt lat="42.91488" lon="0.639">
        <ele>490.099486</ele>
        <time>2021-10-12T20:36:25.117Z</time>
      </trkpt>
      <trkpt lat="42.91502" lon="0.63905">
        <ele>490.032939</ele>
        <time>2021-10-12T20:36:27.818Z</time>
      </trkpt>
      <trkpt lat="42.9153" lon="0.63914">
        <ele>489.89502</ele>
        <time>2021-10-12T20:36:33.237Z</time>
      </trkpt>
      <trkpt lat="42.91535" lon="0.63916">
        <ele>489.867705</ele>
        <time>2021-10-12T20:36:34.430Z</time>
      </trkpt>
      <trkpt lat="42.91557" lon="0.63933">
        <ele>489.750521</ele>
        <time>2021-10-12T20:36:39.523Z</time>
      </trkpt>
      <trkpt lat="42.91562" lon="0.63937">
        <ele>489.724274</ele>
        <time>2021-10-12T20:36:40.582Z</time>
      </trkpt>
      <trkpt lat="42.91577" lon="0.63953">
        <ele>489.634389</ele>
        <time>2021-10-12T20:36:44.590Z</time>
      </trkpt>
      <trkpt lat="42.91643" lon="0.6406">
        <ele>490.848714</ele>
        <time>2021-10-12T20:37:10.539Z</time>
      </trkpt>
      <trkpt lat="42.91652" lon="0.64071">
        <ele>491.060787</ele>
        <time>2021-10-12T20:37:13.828Z</time>
      </trkpt>
      <trkpt lat="42.91653" lon="0.64073">
        <ele>491.08757</ele>
        <time>2021-10-12T20:37:14.347Z</time>
      </trkpt>
      <trkpt lat="42.91666" lon="0.64089">
        <ele>491.403694</ele>
        <time>2021-10-12T20:37:19.433Z</time>
      </trkpt>
      <trkpt lat="42.91669" lon="0.64092">
        <ele>491.476547</ele>
        <time>2021-10-12T20:37:20.756Z</time>
      </trkpt>
      <trkpt lat="42.91679" lon="0.64099">
        <ele>491.671004</ele>
        <time>2021-10-12T20:37:23.921Z</time>
      </trkpt>
      <trkpt lat="42.91688" lon="0.64102">
        <ele>491.834281</ele>
        <time>2021-10-12T20:37:26.953Z</time>
      </trkpt>
      <trkpt lat="42.91699" lon="0.64101">
        <ele>492.036765</ele>
        <time>2021-10-12T20:37:30.443Z</time>
      </trkpt>
      <trkpt lat="42.91704" lon="0.641">
        <ele>492.119203</ele>
        <time>2021-10-12T20:37:32.067Z</time>
      </trkpt>
      <trkpt lat="42.91791" lon="0.64093">
        <ele>494.81539</ele>
        <time>2021-10-12T20:38:04.514Z</time>
      </trkpt>
      <trkpt lat="42.91854" lon="0.6409">
        <ele>497.218719</ele>
        <time>2021-10-12T20:38:29.880Z</time>
      </trkpt>
      <trkpt lat="42.91952" lon="0.64083">
        <ele>500.163171</ele>
        <time>2021-10-12T20:39:06.415Z</time>
      </trkpt>
      <trkpt lat="42.9202" lon="0.6409">
        <ele>501.184446</ele>
        <time>2021-10-12T20:39:28.002Z</time>
      </trkpt>
      <trkpt lat="42.92174" lon="0.64065">
        <ele>501.111518</ele>
        <time>2021-10-12T20:40:00.047Z</time>
      </trkpt>
      <trkpt lat="42.92181" lon="0.64065">
        <ele>501.006453</ele>
        <time>2021-10-12T20:40:01.249Z</time>
      </trkpt>
      <trkpt lat="42.92192" lon="0.64067">
        <ele>500.827562</ele>
        <time>2021-10-12T20:40:03.203Z</time>
      </trkpt>
      <trkpt lat="42.92248" lon="0.64086">
        <ele>499.949365</ele>
        <time>2021-10-12T20:40:13.131Z</time>
      </trkpt>
      <trkpt lat="42.92267" lon="0.641">
        <ele>499.609684</ele>
        <time>2021-10-12T20:40:16.773Z</time>
      </trkpt>
      <trkpt lat="42.92403" lon="0.64231">
        <ele>495.556061</ele>
        <time>2021-10-12T20:40:44.762Z</time>
      </trkpt>
      <trkpt lat="42.92409" lon="0.64237">
        <ele>495.362109</ele>
        <time>2021-10-12T20:40:46.148Z</time>
      </trkpt>
      <trkpt lat="42.92452" lon="0.64279">
        <ele>494.438296</ele>
        <time>2021-10-12T20:40:55.524Z</time>
      </trkpt>
      <trkpt lat="42.92515" lon="0.64339">
        <ele>493.221351</ele>
        <time>2021-10-12T20:41:09.515Z</time>
      </trkpt>
      <trkpt lat="42.92745" lon="0.64561">
        <ele>488.812832</ele>
        <time>2021-10-12T20:42:02.602Z</time>
      </trkpt>
      <trkpt lat="42.92771" lon="0.64589">
        <ele>487.927289</ele>
        <time>2021-10-12T20:42:08.234Z</time>
      </trkpt>
      <trkpt lat="42.92791" lon="0.64633">
        <ele>486.903746</ele>
        <time>2021-10-12T20:42:14.524Z</time>
      </trkpt>
      <trkpt lat="42.92806" lon="0.64691">
        <ele>485.672612</ele>
        <time>2021-10-12T20:42:21.869Z</time>
      </trkpt>
      <trkpt lat="42.92815" lon="0.64765">
        <ele>483.557616</ele>
        <time>2021-10-12T20:42:30.400Z</time>
      </trkpt>
      <trkpt lat="42.92813" lon="0.64879">
        <ele>479.695976</ele>
        <time>2021-10-12T20:42:42.976Z</time>
      </trkpt>
      <trkpt lat="42.92808" lon="0.6496">
        <ele>476.950437</ele>
        <time>2021-10-12T20:42:52.024Z</time>
      </trkpt>
      <trkpt lat="42.92799" lon="0.65002">
        <ele>476.029596</ele>
        <time>2021-10-12T20:42:57.054Z</time>
      </trkpt>
      <trkpt lat="42.92792" lon="0.6504">
        <ele>475.264844</ele>
        <time>2021-10-12T20:43:01.605Z</time>
      </trkpt>
      <trkpt lat="42.92797" lon="0.65059">
        <ele>474.874853</ele>
        <time>2021-10-12T20:43:04.054Z</time>
      </trkpt>
      <trkpt lat="42.92808" lon="0.65075">
        <ele>474.453568</ele>
        <time>2021-10-12T20:43:06.646Z</time>
      </trkpt>
      <trkpt lat="42.92823" lon="0.65083">
        <ele>474.025766</ele>
        <time>2021-10-12T20:43:09.398Z</time>
      </trkpt>
      <trkpt lat="42.92884" lon="0.65081">
        <ele>472.418205</ele>
        <time>2021-10-12T20:43:20.126Z</time>
      </trkpt>
      <trkpt lat="42.9297" lon="0.6505">
        <ele>471.868402</ele>
        <time>2021-10-12T20:43:38.248Z</time>
      </trkpt>
      <trkpt lat="42.93002" lon="0.65018">
        <ele>471.788979</ele>
        <time>2021-10-12T20:43:47.281Z</time>
      </trkpt>
      <trkpt lat="42.9301" lon="0.65014">
        <ele>471.771054</ele>
        <time>2021-10-12T20:43:49.604Z</time>
      </trkpt>
      <trkpt lat="42.93019" lon="0.65017">
        <ele>471.752989</ele>
        <time>2021-10-12T20:43:51.506Z</time>
      </trkpt>
      <trkpt lat="42.93024" lon="0.65021">
        <ele>471.74082</ele>
        <time>2021-10-12T20:43:52.840Z</time>
      </trkpt>
      <trkpt lat="42.93026" lon="0.65028">
        <ele>471.728405</ele>
        <time>2021-10-12T20:43:54.120Z</time>
      </trkpt>
      <trkpt lat="42.93027" lon="0.65045">
        <ele>471.702782</ele>
        <time>2021-10-12T20:43:57.425Z</time>
      </trkpt>
      <trkpt lat="42.93029" lon="0.65053">
        <ele>471.690199</ele>
        <time>2021-10-12T20:43:58.732Z</time>
      </trkpt>
      <trkpt lat="42.93037" lon="0.6505">
        <ele>471.671775</ele>
        <time>2021-10-12T20:44:00.788Z</time>
      </trkpt>
      <trkpt lat="42.93044" lon="0.65047">
        <ele>471.657697</ele>
        <time>2021-10-12T20:44:02.284Z</time>
      </trkpt>
      <trkpt lat="42.93107" lon="0.65022">
        <ele>471.990362</ele>
        <time>2021-10-12T20:44:17.897Z</time>
      </trkpt>
      <trkpt lat="42.93122" lon="0.65016">
        <ele>472.070958</ele>
        <time>2021-10-12T20:44:21.495Z</time>
      </trkpt>
      <trkpt lat="42.93286" lon="0.64949">
        <ele>473.201316</ele>
        <time>2021-10-12T20:45:04.477Z</time>
      </trkpt>
      <trkpt lat="42.93341" lon="0.64924">
        <ele>473.685961</ele>
        <time>2021-10-12T20:45:19.214Z</time>
      </trkpt>
      <trkpt lat="42.93433" lon="0.64866">
        <ele>474.648721</ele>
        <time>2021-10-12T20:45:45.575Z</time>
      </trkpt>
      <trkpt lat="42.9351" lon="0.64804">
        <ele>475.601617</ele>
        <time>2021-10-12T20:46:09.520Z</time>
      </trkpt>
      <trkpt lat="42.93583" lon="0.64733">
        <ele>476.395104</ele>
        <time>2021-10-12T20:46:33.754Z</time>
      </trkpt>
      <trkpt lat="42.93714" lon="0.646">
        <ele>477.093683</ele>
        <time>2021-10-12T20:47:14.461Z</time>
      </trkpt>
      <trkpt lat="42.93745" lon="0.6457">
        <ele>476.778356</ele>
        <time>2021-10-12T20:47:21.966Z</time>
      </trkpt>
      <trkpt lat="42.93769" lon="0.64552">
        <ele>476.548061</ele>
        <time>2021-10-12T20:47:27.264Z</time>
      </trkpt>
      <trkpt lat="42.93805" lon="0.64533">
        <ele>476.222419</ele>
        <time>2021-10-12T20:47:34.526Z</time>
      </trkpt>
      <trkpt lat="42.93821" lon="0.64527">
        <ele>476.084292</ele>
        <time>2021-10-12T20:47:37.437Z</time>
      </trkpt>
      <trkpt lat="42.93839" lon="0.64522">
        <ele>475.933245</ele>
        <time>2021-10-12T20:47:40.829Z</time>
      </trkpt>
      <trkpt lat="42.93849" lon="0.6452">
        <ele>475.840191</ele>
        <time>2021-10-12T20:47:42.581Z</time>
      </trkpt>
      <trkpt lat="42.93889" lon="0.64513">
        <ele>475.264369</ele>
        <time>2021-10-12T20:47:49.836Z</time>
      </trkpt>
      <trkpt lat="42.93923" lon="0.64506">
        <ele>474.79175</ele>
        <time>2021-10-12T20:47:55.720Z</time>
      </trkpt>
      <trkpt lat="42.94004" lon="0.64489">
        <ele>473.623747</ele>
        <time>2021-10-12T20:48:10.951Z</time>
      </trkpt>
      <trkpt lat="42.94184" lon="0.64447">
        <ele>472.543489</ele>
        <time>2021-10-12T20:48:48.651Z</time>
      </trkpt>
      <trkpt lat="42.94222" lon="0.64435">
        <ele>472.524967</ele>
        <time>2021-10-12T20:48:57.236Z</time>
      </trkpt>
      <trkpt lat="42.9427" lon="0.64412">
        <ele>472.711846</ele>
        <time>2021-10-12T20:49:08.294Z</time>
      </trkpt>
      <trkpt lat="42.94375" lon="0.64344">
        <ele>473.186786</ele>
        <time>2021-10-12T20:49:37.214Z</time>
      </trkpt>
      <trkpt lat="42.94394" lon="0.64335">
        <ele>473.392217</ele>
        <time>2021-10-12T20:49:42.629Z</time>
      </trkpt>
      <trkpt lat="42.94403" lon="0.64334">
        <ele>473.482225</ele>
        <time>2021-10-12T20:49:44.743Z</time>
      </trkpt>
      <trkpt lat="42.94402" lon="0.64324">
        <ele>473.550072</ele>
        <time>2021-10-12T20:49:46.657Z</time>
      </trkpt>
      <trkpt lat="42.94404" lon="0.64303">
        <ele>473.71133</ele>
        <time>2021-10-12T20:49:51.230Z</time>
      </trkpt>
      <trkpt lat="42.9441" lon="0.64279">
        <ele>473.897572</ele>
        <time>2021-10-12T20:49:56.062Z</time>
      </trkpt>
      <trkpt lat="42.94419" lon="0.64262">
        <ele>474.052855</ele>
        <time>2021-10-12T20:50:00.527Z</time>
      </trkpt>
      <trkpt lat="42.94495" lon="0.64158">
        <ele>475.014771</ele>
        <time>2021-10-12T20:50:30.184Z</time>
      </trkpt>
      <trkpt lat="42.94511" lon="0.64122">
        <ele>475.149986</ele>
        <time>2021-10-12T20:50:38.393Z</time>
      </trkpt>
      <trkpt lat="42.94526" lon="0.64099">
        <ele>475.249869</ele>
        <time>2021-10-12T20:50:44.340Z</time>
      </trkpt>
      <trkpt lat="42.9465" lon="0.63986">
        <ele>475.542092</ele>
        <time>2021-10-12T20:51:19.550Z</time>
      </trkpt>
      <trkpt lat="42.94652" lon="0.63984">
        <ele>475.534771</ele>
        <time>2021-10-12T20:51:19.947Z</time>
      </trkpt>
      <trkpt lat="42.94666" lon="0.63973">
        <ele>475.474132</ele>
        <time>2021-10-12T20:51:23.531Z</time>
      </trkpt>
      <trkpt lat="42.94673" lon="0.63968">
        <ele>475.443808</ele>
        <time>2021-10-12T20:51:25.323Z</time>
      </trkpt>
      <trkpt lat="42.9469" lon="0.63958">
        <ele>475.374379</ele>
        <time>2021-10-12T20:51:29.320Z</time>
      </trkpt>
      <trkpt lat="42.94722" lon="0.63936">
        <ele>475.239309</ele>
        <time>2021-10-12T20:51:36.954Z</time>
      </trkpt>
      <trkpt lat="42.94733" lon="0.63929">
        <ele>475.19369</ele>
        <time>2021-10-12T20:51:39.541Z</time>
      </trkpt>
      <trkpt lat="42.94754" lon="0.63922">
        <ele>475.115085</ele>
        <time>2021-10-12T20:51:43.892Z</time>
      </trkpt>
      <trkpt lat="42.94816" lon="0.63881">
        <ele>474.729126</ele>
        <time>2021-10-12T20:51:58.367Z</time>
      </trkpt>
      <trkpt lat="42.94841" lon="0.63868">
        <ele>474.562195</ele>
        <time>2021-10-12T20:52:03.881Z</time>
      </trkpt>
      <trkpt lat="42.94844" lon="0.63866">
        <ele>474.53616</ele>
        <time>2021-10-12T20:52:04.693Z</time>
      </trkpt>
      <trkpt lat="42.94938" lon="0.63819">
        <ele>473.898245</ele>
        <time>2021-10-12T20:52:25.844Z</time>
      </trkpt>
      <trkpt lat="42.94953" lon="0.63813">
        <ele>473.834025</ele>
        <time>2021-10-12T20:52:29.009Z</time>
      </trkpt>
      <trkpt lat="42.94982" lon="0.63802">
        <ele>473.720936</ele>
        <time>2021-10-12T20:52:35.414Z</time>
      </trkpt>
      <trkpt lat="42.95041" lon="0.63775">
        <ele>473.486263</ele>
        <time>2021-10-12T20:52:49.001Z</time>
      </trkpt>
      <trkpt lat="42.95081" lon="0.63763">
        <ele>473.332664</ele>
        <time>2021-10-12T20:52:58.052Z</time>
      </trkpt>
      <trkpt lat="42.95154" lon="0.63762">
        <ele>473.257652</ele>
        <time>2021-10-12T20:53:14.765Z</time>
      </trkpt>
      <trkpt lat="42.9516" lon="0.6377">
        <ele>473.2682</ele>
        <time>2021-10-12T20:53:16.519Z</time>
      </trkpt>
      <trkpt lat="42.95253" lon="0.63708">
        <ele>473.401274</ele>
        <time>2021-10-12T20:53:40.321Z</time>
      </trkpt>
      <trkpt lat="42.95387" lon="0.63619">
        <ele>473.847909</ele>
        <time>2021-10-12T20:54:15.766Z</time>
      </trkpt>
      <trkpt lat="42.95463" lon="0.63567">
        <ele>474.191672</ele>
        <time>2021-10-12T20:54:35.328Z</time>
      </trkpt>
      <trkpt lat="42.95493" lon="0.63547">
        <ele>474.383151</ele>
        <time>2021-10-12T20:54:43.430Z</time>
      </trkpt>
      <trkpt lat="42.95568" lon="0.63498">
        <ele>474.847173</ele>
        <time>2021-10-12T20:55:03.794Z</time>
      </trkpt>
      <trkpt lat="42.95583" lon="0.63487">
        <ele>474.942752</ele>
        <time>2021-10-12T20:55:07.851Z</time>
      </trkpt>
      <trkpt lat="42.95582" lon="0.63483">
        <ele>474.962893</ele>
        <time>2021-10-12T20:55:08.994Z</time>
      </trkpt>
      <trkpt lat="42.95574" lon="0.63423">
        <ele>475.303737</ele>
        <time>2021-10-12T20:55:20.796Z</time>
      </trkpt>
      <trkpt lat="42.95574" lon="0.6341">
        <ele>475.391951</ele>
        <time>2021-10-12T20:55:23.337Z</time>
      </trkpt>
      <trkpt lat="42.9558" lon="0.63393">
        <ele>475.516093</ele>
        <time>2021-10-12T20:55:26.886Z</time>
      </trkpt>
      <trkpt lat="42.9559" lon="0.63383">
        <ele>475.627779</ele>
        <time>2021-10-12T20:55:30.607Z</time>
      </trkpt>
      <trkpt lat="42.95609" lon="0.63334">
        <ele>475.993189</ele>
        <time>2021-10-12T20:55:41.810Z</time>
      </trkpt>
      <trkpt lat="42.95608" lon="0.63265">
        <ele>476.456013</ele>
        <time>2021-10-12T20:55:55.647Z</time>
      </trkpt>
      <trkpt lat="42.956" lon="0.63156">
        <ele>476.694491</ele>
        <time>2021-10-12T20:56:15.946Z</time>
      </trkpt>
      <trkpt lat="42.95651" lon="0.63145">
        <ele>476.695612</ele>
        <time>2021-10-12T20:56:27.904Z</time>
      </trkpt>
      <trkpt lat="42.95716" lon="0.63121">
        <ele>476.697051</ele>
        <time>2021-10-12T20:56:42.690Z</time>
      </trkpt>
      <trkpt lat="42.95733" lon="0.63121">
        <ele>476.68275</ele>
        <time>2021-10-12T20:56:46.180Z</time>
      </trkpt>
      <trkpt lat="42.95763" lon="0.63116">
        <ele>476.638762</ele>
        <time>2021-10-12T20:56:52.686Z</time>
      </trkpt>
      <trkpt lat="42.95797" lon="0.63114">
        <ele>476.589594</ele>
        <time>2021-10-12T20:56:59.986Z</time>
      </trkpt>
      <trkpt lat="42.95834" lon="0.63121">
        <ele>476.535583</ele>
        <time>2021-10-12T20:57:08.289Z</time>
      </trkpt>
      <trkpt lat="42.95873" lon="0.63117">
        <ele>476.479842</ele>
        <time>2021-10-12T20:57:17.100Z</time>
      </trkpt>
      <trkpt lat="42.95877" lon="0.63114">
        <ele>476.472797</ele>
        <time>2021-10-12T20:57:18.104Z</time>
      </trkpt>
      <trkpt lat="42.95889" lon="0.63098">
        <ele>476.44897</ele>
        <time>2021-10-12T20:57:22.237Z</time>
      </trkpt>
      <trkpt lat="42.95951" lon="0.63005">
        <ele>477.199475</ele>
        <time>2021-10-12T20:57:46.126Z</time>
      </trkpt>
      <trkpt lat="42.96034" lon="0.62919">
        <ele>478.13829</ele>
        <time>2021-10-12T20:58:15.528Z</time>
      </trkpt>
      <trkpt lat="42.96052" lon="0.62891">
        <ele>478.363638</ele>
        <time>2021-10-12T20:58:23.030Z</time>
      </trkpt>
      <trkpt lat="42.96064" lon="0.62873">
        <ele>478.513869</ele>
        <time>2021-10-12T20:58:27.920Z</time>
      </trkpt>
      <trkpt lat="42.96077" lon="0.62857">
        <ele>478.663992</ele>
        <time>2021-10-12T20:58:32.807Z</time>
      </trkpt>
      <trkpt lat="42.96141" lon="0.62809">
        <ele>479.274307</ele>
        <time>2021-10-12T20:58:52.065Z</time>
      </trkpt>
      <trkpt lat="42.9618" lon="0.62711">
        <ele>479.512962</ele>
        <time>2021-10-12T20:59:12.144Z</time>
      </trkpt>
      <trkpt lat="42.96215" lon="0.62643">
        <ele>479.430286</ele>
        <time>2021-10-12T20:59:26.158Z</time>
      </trkpt>
      <trkpt lat="42.96258" lon="0.62574">
        <ele>479.340071</ele>
        <time>2021-10-12T20:59:40.471Z</time>
      </trkpt>
      <trkpt lat="42.96274" lon="0.62554">
        <ele>479.168498</ele>
        <time>2021-10-12T20:59:45.029Z</time>
      </trkpt>
      <trkpt lat="42.96309" lon="0.62526">
        <ele>478.730043</ele>
        <time>2021-10-12T20:59:53.425Z</time>
      </trkpt>
      <trkpt lat="42.96322" lon="0.62516">
        <ele>478.575783</ele>
        <time>2021-10-12T20:59:56.365Z</time>
      </trkpt>
      <trkpt lat="42.9633" lon="0.62509">
        <ele>478.474139</ele>
        <time>2021-10-12T20:59:58.195Z</time>
      </trkpt>
      <trkpt lat="42.96355" lon="0.62484">
        <ele>478.133668</ele>
        <time>2021-10-12T21:00:04.566Z</time>
      </trkpt>
      <trkpt lat="42.96492" lon="0.62493">
        <ele>476.638514</ele>
        <time>2021-10-12T21:00:31.058Z</time>
      </trkpt>
      <trkpt lat="42.96531" lon="0.62486">
        <ele>476.203672</ele>
        <time>2021-10-12T21:00:38.804Z</time>
      </trkpt>
      <trkpt lat="42.96575" lon="0.62467">
        <ele>475.699143</ele>
        <time>2021-10-12T21:00:48.050Z</time>
      </trkpt>
      <trkpt lat="42.96643" lon="0.62444">
        <ele>475.650526</ele>
        <time>2021-10-12T21:01:03.010Z</time>
      </trkpt>
      <trkpt lat="42.96651" lon="0.62403">
        <ele>475.823153</ele>
        <time>2021-10-12T21:01:09.922Z</time>
      </trkpt>
      <trkpt lat="42.96664" lon="0.62369">
        <ele>475.977314</ele>
        <time>2021-10-12T21:01:16.429Z</time>
      </trkpt>
      <trkpt lat="42.96706" lon="0.6233">
        <ele>476.257644</ele>
        <time>2021-10-12T21:01:29.418Z</time>
      </trkpt>
      <trkpt lat="42.96721" lon="0.62316">
        <ele>476.358958</ele>
        <time>2021-10-12T21:01:34.989Z</time>
      </trkpt>
      <trkpt lat="42.96737" lon="0.62297">
        <ele>477.008945</ele>
        <time>2021-10-12T21:01:41.799Z</time>
      </trkpt>
      <trkpt lat="42.96732" lon="0.62286">
        <ele>477.432782</ele>
        <time>2021-10-12T21:01:44.707Z</time>
      </trkpt>
      <trkpt lat="42.96725" lon="0.62278">
        <ele>477.809338</ele>
        <time>2021-10-12T21:01:47.209Z</time>
      </trkpt>
      <trkpt lat="42.96648" lon="0.62238">
        <ele>481.464007</ele>
        <time>2021-10-12T21:02:19.556Z</time>
      </trkpt>
      <trkpt lat="42.96646" lon="0.62234">
        <ele>481.627789</ele>
        <time>2021-10-12T21:02:21.378Z</time>
      </trkpt>
      <trkpt lat="42.96645" lon="0.62229">
        <ele>481.820935</ele>
        <time>2021-10-12T21:02:23.590Z</time>
      </trkpt>
      <trkpt lat="42.96654" lon="0.62151">
        <ele>484.364415</ele>
        <time>2021-10-12T21:02:50.334Z</time>
      </trkpt>
      <trkpt lat="42.96654" lon="0.6213">
        <ele>485.635312</ele>
        <time>2021-10-12T21:02:58.330Z</time>
      </trkpt>
      <trkpt lat="42.96655" lon="0.62123">
        <ele>486.060801</ele>
        <time>2021-10-12T21:03:02.162Z</time>
      </trkpt>
      <trkpt lat="42.96649" lon="0.6204">
        <ele>491.040309</ele>
        <time>2021-10-12T21:03:34.094Z</time>
      </trkpt>
      <trkpt lat="42.96655" lon="0.61982">
        <ele>494.56347</ele>
        <time>2021-10-12T21:03:59.313Z</time>
      </trkpt>
      <trkpt lat="42.96646" lon="0.6191">
        <ele>498.925503</ele>
        <time>2021-10-12T21:04:32.411Z</time>
      </trkpt>
      <trkpt lat="42.96645" lon="0.6184">
        <ele>502.410421</ele>
        <time>2021-10-12T21:05:02.001Z</time>
      </trkpt>
      <trkpt lat="42.9666" lon="0.61737">
        <ele>507.661657</ele>
        <time>2021-10-12T21:05:46.069Z</time>
      </trkpt>
      <trkpt lat="42.96685" lon="0.61646">
        <ele>511.020287</ele>
        <time>2021-10-12T21:06:12.076Z</time>
      </trkpt>
      <trkpt lat="42.96686" lon="0.61626">
        <ele>510.777929</ele>
        <time>2021-10-12T21:06:16.623Z</time>
      </trkpt>
      <trkpt lat="42.96705" lon="0.61579">
        <ele>510.145695</ele>
        <time>2021-10-12T21:06:25.190Z</time>
      </trkpt>
      <trkpt lat="42.96717" lon="0.61565">
        <ele>509.899409</ele>
        <time>2021-10-12T21:06:28.327Z</time>
      </trkpt>
      <trkpt lat="42.96725" lon="0.61563">
        <ele>509.763083</ele>
        <time>2021-10-12T21:06:30.019Z</time>
      </trkpt>
      <trkpt lat="42.96738" lon="0.61565">
        <ele>509.55388</ele>
        <time>2021-10-12T21:06:32.180Z</time>
      </trkpt>
      <trkpt lat="42.96753" lon="0.61568">
        <ele>509.308515</ele>
        <time>2021-10-12T21:06:34.928Z</time>
      </trkpt>
      <trkpt lat="42.96763" lon="0.61552">
        <ele>509.049456</ele>
        <time>2021-10-12T21:06:37.703Z</time>
      </trkpt>
      <trkpt lat="42.96811" lon="0.61409">
        <ele>506.238299</ele>
        <time>2021-10-12T21:06:55.323Z</time>
      </trkpt>
      <trkpt lat="42.96863" lon="0.61304">
        <ele>503.53333</ele>
        <time>2021-10-12T21:07:12.703Z</time>
      </trkpt>
      <trkpt lat="42.96871" lon="0.61297">
        <ele>503.264281</ele>
        <time>2021-10-12T21:07:14.373Z</time>
      </trkpt>
      <trkpt lat="42.96867" lon="0.61284">
        <ele>503.460227</ele>
        <time>2021-10-12T21:07:17.057Z</time>
      </trkpt>
      <trkpt lat="42.96865" lon="0.61276">
        <ele>503.767213</ele>
        <time>2021-10-12T21:07:19.455Z</time>
      </trkpt>
      <trkpt lat="42.96864" lon="0.61272">
        <ele>503.894227</ele>
        <time>2021-10-12T21:07:20.175Z</time>
      </trkpt>
      <trkpt lat="42.96853" lon="0.61216">
        <ele>505.758903</ele>
        <time>2021-10-12T21:07:33.510Z</time>
      </trkpt>
      <trkpt lat="42.96837" lon="0.61126">
        <ele>508.728985</ele>
        <time>2021-10-12T21:08:01.548Z</time>
      </trkpt>
      <trkpt lat="42.96832" lon="0.61105">
        <ele>509.446674</ele>
        <time>2021-10-12T21:08:09.300Z</time>
      </trkpt>
      <trkpt lat="42.96827" lon="0.61079">
        <ele>510.297626</ele>
        <time>2021-10-12T21:08:19.532Z</time>
      </trkpt>
      <trkpt lat="42.96826" lon="0.61067">
        <ele>510.706247</ele>
        <time>2021-10-12T21:08:24.581Z</time>
      </trkpt>
      <trkpt lat="42.96827" lon="0.6106">
        <ele>510.928773</ele>
        <time>2021-10-12T21:08:27.950Z</time>
      </trkpt>
      <trkpt lat="42.96828" lon="0.61054">
        <ele>511.133473</ele>
        <time>2021-10-12T21:08:30.181Z</time>
      </trkpt>
      <trkpt lat="42.96828" lon="0.61052">
        <ele>511.26898</ele>
        <time>2021-10-12T21:08:31.571Z</time>
      </trkpt>
      <trkpt lat="42.96835" lon="0.60995">
        <ele>514.966849</ele>
        <time>2021-10-12T21:08:54.324Z</time>
      </trkpt>
      <trkpt lat="42.96834" lon="0.60981">
        <ele>515.862505</ele>
        <time>2021-10-12T21:08:59.605Z</time>
      </trkpt>
      <trkpt lat="42.9683" lon="0.60959">
        <ele>517.261319</ele>
        <time>2021-10-12T21:09:09.480Z</time>
      </trkpt>
      <trkpt lat="42.96744" lon="0.60712">
        <ele>535.022149</ele>
        <time>2021-10-12T21:11:06.964Z</time>
      </trkpt>
      <trkpt lat="42.96707" lon="0.60651">
        <ele>540.298551</ele>
        <time>2021-10-12T21:11:40.029Z</time>
      </trkpt>
      <trkpt lat="42.96702" lon="0.60634">
        <ele>541.542086</ele>
        <time>2021-10-12T21:11:49.360Z</time>
      </trkpt>
      <trkpt lat="42.96684" lon="0.60544">
        <ele>547.338794</ele>
        <time>2021-10-12T21:12:29.478Z</time>
      </trkpt>
      <trkpt lat="42.96675" lon="0.60421">
        <ele>554.877465</ele>
        <time>2021-10-12T21:13:21.290Z</time>
      </trkpt>
      <trkpt lat="42.9666" lon="0.60379">
        <ele>557.710989</ele>
        <time>2021-10-12T21:13:37.946Z</time>
      </trkpt>
      <trkpt lat="42.96614" lon="0.60293">
        <ele>562.236553</ele>
        <time>2021-10-12T21:14:14.823Z</time>
      </trkpt>
      <trkpt lat="42.96553" lon="0.60069">
        <ele>571.194645</ele>
        <time>2021-10-12T21:15:29.334Z</time>
      </trkpt>
      <trkpt lat="42.96548" lon="0.59976">
        <ele>574.070799</ele>
        <time>2021-10-12T21:15:55.391Z</time>
      </trkpt>
      <trkpt lat="42.96533" lon="0.59911">
        <ele>576.057271</ele>
        <time>2021-10-12T21:16:13.917Z</time>
      </trkpt>
      <trkpt lat="42.96513" lon="0.59722">
        <ele>579.423378</ele>
        <time>2021-10-12T21:16:59.384Z</time>
      </trkpt>
      <trkpt lat="42.965" lon="0.59656">
        <ele>580.382534</ele>
        <time>2021-10-12T21:17:13.032Z</time>
      </trkpt>
      <trkpt lat="42.96494" lon="0.59626">
        <ele>580.616973</ele>
        <time>2021-10-12T21:17:19.081Z</time>
      </trkpt>
      <trkpt lat="42.96472" lon="0.59559">
        <ele>581.161422</ele>
        <time>2021-10-12T21:17:32.544Z</time>
      </trkpt>
      <trkpt lat="42.96469" lon="0.5947">
        <ele>581.817154</ele>
        <time>2021-10-12T21:17:48.721Z</time>
      </trkpt>
      <trkpt lat="42.96466" lon="0.59457">
        <ele>581.921564</ele>
        <time>2021-10-12T21:17:50.848Z</time>
      </trkpt>
      <trkpt lat="42.96459" lon="0.59443">
        <ele>582.073253</ele>
        <time>2021-10-12T21:17:54.029Z</time>
      </trkpt>
      <trkpt lat="42.96441" lon="0.59413">
        <ele>582.904326</ele>
        <time>2021-10-12T21:18:02.382Z</time>
      </trkpt>
      <trkpt lat="42.96435" lon="0.59386">
        <ele>583.494868</ele>
        <time>2021-10-12T21:18:09.074Z</time>
      </trkpt>
      <trkpt lat="42.96447" lon="0.59317">
        <ele>584.97835</ele>
        <time>2021-10-12T21:18:26.124Z</time>
      </trkpt>
      <trkpt lat="42.96445" lon="0.59308">
        <ele>585.174901</ele>
        <time>2021-10-12T21:18:28.867Z</time>
      </trkpt>
      <trkpt lat="42.96441" lon="0.59297">
        <ele>585.447018</ele>
        <time>2021-10-12T21:18:32.376Z</time>
      </trkpt>
      <trkpt lat="42.96435" lon="0.59287">
        <ele>585.707357</ele>
        <time>2021-10-12T21:18:35.039Z</time>
      </trkpt>
      <trkpt lat="42.96402" lon="0.59262">
        <ele>586.812498</ele>
        <time>2021-10-12T21:18:49.516Z</time>
      </trkpt>
      <trkpt lat="42.96391" lon="0.5925">
        <ele>587.223305</ele>
        <time>2021-10-12T21:18:55.408Z</time>
      </trkpt>
      <trkpt lat="42.96379" lon="0.59229">
        <ele>588.022443</ele>
        <time>2021-10-12T21:19:02.757Z</time>
      </trkpt>
      <trkpt lat="42.96376" lon="0.59208">
        <ele>588.667285</ele>
        <time>2021-10-12T21:19:09.441Z</time>
      </trkpt>
      <trkpt lat="42.96386" lon="0.59114">
        <ele>591.480695</ele>
        <time>2021-10-12T21:19:37.870Z</time>
      </trkpt>
      <trkpt lat="42.96378" lon="0.59092">
        <ele>592.211023</ele>
        <time>2021-10-12T21:19:44.762Z</time>
      </trkpt>
      <trkpt lat="42.96358" lon="0.59078">
        <ele>593.113976</ele>
        <time>2021-10-12T21:19:53.836Z</time>
      </trkpt>
      <trkpt lat="42.96312" lon="0.5907">
        <ele>594.773575</ele>
        <time>2021-10-12T21:20:10.160Z</time>
      </trkpt>
      <trkpt lat="42.96278" lon="0.59051">
        <ele>595.544205</ele>
        <time>2021-10-12T21:20:22.226Z</time>
      </trkpt>
      <trkpt lat="42.96208" lon="0.59086">
        <ele>597.115078</ele>
        <time>2021-10-12T21:20:44.815Z</time>
      </trkpt>
      <trkpt lat="42.96175" lon="0.59073">
        <ele>597.833631</ele>
        <time>2021-10-12T21:20:54.339Z</time>
      </trkpt>
      <trkpt lat="42.96164" lon="0.59071">
        <ele>598.072077</ele>
        <time>2021-10-12T21:20:57.353Z</time>
      </trkpt>
      <trkpt lat="42.96171" lon="0.59063">
        <ele>598.26918</ele>
        <time>2021-10-12T21:20:59.837Z</time>
      </trkpt>
      <trkpt lat="42.96201" lon="0.59073">
        <ele>599.096761</ele>
        <time>2021-10-12T21:21:07.913Z</time>
      </trkpt>
      <trkpt lat="42.96213" lon="0.59071">
        <ele>599.41764</ele>
        <time>2021-10-12T21:21:11.319Z</time>
      </trkpt>
      <trkpt lat="42.96232" lon="0.59058">
        <ele>600.007854</ele>
        <time>2021-10-12T21:21:17.126Z</time>
      </trkpt>
      <trkpt lat="42.96271" lon="0.59027">
        <ele>601.239048</ele>
        <time>2021-10-12T21:21:30.915Z</time>
      </trkpt>
      <trkpt lat="42.96313" lon="0.5902">
        <ele>602.382523</ele>
        <time>2021-10-12T21:21:44.324Z</time>
      </trkpt>
      <trkpt lat="42.96334" lon="0.5901">
        <ele>602.977825</ele>
        <time>2021-10-12T21:21:52.848Z</time>
      </trkpt>
      <trkpt lat="42.9635" lon="0.58994">
        <ele>604.299019</ele>
        <time>2021-10-12T21:22:01.832Z</time>
      </trkpt>
      <trkpt lat="42.9639" lon="0.58981">
        <ele>607.907988</ele>
        <time>2021-10-12T21:22:22.711Z</time>
      </trkpt>
      <trkpt lat="42.96396" lon="0.58977">
        <ele>608.539647</ele>
        <time>2021-10-12T21:22:26.774Z</time>
      </trkpt>
      <trkpt lat="42.96401" lon="0.58975">
        <ele>608.950096</ele>
        <time>2021-10-12T21:22:30.044Z</time>
      </trkpt>
      <trkpt lat="42.96409" lon="0.58972">
        <ele>609.740669</ele>
        <time>2021-10-12T21:22:36.017Z</time>
      </trkpt>
      <trkpt lat="42.96416" lon="0.58972">
        <ele>610.372066</ele>
        <time>2021-10-12T21:22:39.861Z</time>
      </trkpt>
      <trkpt lat="42.96445" lon="0.58986">
        <ele>613.112131</ele>
        <time>2021-10-12T21:22:58.922Z</time>
      </trkpt>
      <trkpt lat="42.96453" lon="0.5899">
        <ele>613.867118</ele>
        <time>2021-10-12T21:23:04.509Z</time>
      </trkpt>
      <trkpt lat="42.96459" lon="0.5899">
        <ele>614.391912</ele>
        <time>2021-10-12T21:23:08.348Z</time>
      </trkpt>
      <trkpt lat="42.96468" lon="0.58989">
        <ele>615.12495</ele>
        <time>2021-10-12T21:23:13.357Z</time>
      </trkpt>
      <trkpt lat="42.96473" lon="0.58986">
        <ele>615.638146</ele>
        <time>2021-10-12T21:23:18.534Z</time>
      </trkpt>
      <trkpt lat="42.96508" lon="0.58964">
        <ele>619.067963</ele>
        <time>2021-10-12T21:23:44.002Z</time>
      </trkpt>
      <trkpt lat="42.96524" lon="0.58954">
        <ele>620.34362</ele>
        <time>2021-10-12T21:23:55.084Z</time>
      </trkpt>
      <trkpt lat="42.96544" lon="0.58947">
        <ele>621.833964</ele>
        <time>2021-10-12T21:24:08.623Z</time>
      </trkpt>
      <trkpt lat="42.96562" lon="0.58941">
        <ele>623.154099</ele>
        <time>2021-10-12T21:24:20.154Z</time>
      </trkpt>
      <trkpt lat="42.96582" lon="0.58944">
        <ele>624.552173</ele>
        <time>2021-10-12T21:24:30.865Z</time>
      </trkpt>
      <trkpt lat="42.96588" lon="0.58947">
        <ele>624.990374</ele>
        <time>2021-10-12T21:24:34.720Z</time>
      </trkpt>
      <trkpt lat="42.96593" lon="0.58949">
        <ele>625.35593</ele>
        <time>2021-10-12T21:24:37.149Z</time>
      </trkpt>
      <trkpt lat="42.96594" lon="0.58949">
        <ele>625.474036</ele>
        <time>2021-10-12T21:24:38.323Z</time>
      </trkpt>
      <trkpt lat="42.96606" lon="0.58949">
        <ele>626.335937</ele>
        <time>2021-10-12T21:24:44.898Z</time>
      </trkpt>
      <trkpt lat="42.96622" lon="0.58948">
        <ele>627.440529</ele>
        <time>2021-10-12T21:24:53.540Z</time>
      </trkpt>
      <trkpt lat="42.96634" lon="0.58943">
        <ele>628.309859</ele>
        <time>2021-10-12T21:24:59.611Z</time>
      </trkpt>
      <trkpt lat="42.96641" lon="0.58941">
        <ele>628.841335</ele>
        <time>2021-10-12T21:25:02.510Z</time>
      </trkpt>
      <trkpt lat="42.96647" lon="0.58939">
        <ele>629.268451</ele>
        <time>2021-10-12T21:25:04.433Z</time>
      </trkpt>
      <trkpt lat="42.96706" lon="0.58908">
        <ele>631.596763</ele>
        <time>2021-10-12T21:25:26.314Z</time>
      </trkpt>
      <trkpt lat="42.96726" lon="0.58896">
        <ele>631.255777</ele>
        <time>2021-10-12T21:25:31.271Z</time>
      </trkpt>
      <trkpt lat="42.9673" lon="0.58893">
        <ele>631.188691</ele>
        <time>2021-10-12T21:25:32.043Z</time>
      </trkpt>
      <trkpt lat="42.96765" lon="0.58869">
        <ele>630.590072</ele>
        <time>2021-10-12T21:25:39.050Z</time>
      </trkpt>
      <trkpt lat="42.96824" lon="0.58861">
        <ele>629.682959</ele>
        <time>2021-10-12T21:25:48.676Z</time>
      </trkpt>
      <trkpt lat="42.96832" lon="0.58857">
        <ele>629.562583</ele>
        <time>2021-10-12T21:25:49.873Z</time>
      </trkpt>
      <trkpt lat="42.96846" lon="0.58846">
        <ele>629.312711</ele>
        <time>2021-10-12T21:25:52.427Z</time>
      </trkpt>
      <trkpt lat="42.96886" lon="0.58789">
        <ele>626.51135</ele>
        <time>2021-10-12T21:26:01.471Z</time>
      </trkpt>
      <trkpt lat="42.96924" lon="0.58722">
        <ele>623.34371</ele>
        <time>2021-10-12T21:26:10.793Z</time>
      </trkpt>
      <trkpt lat="42.96933" lon="0.58691">
        <ele>622.081884</ele>
        <time>2021-10-12T21:26:14.368Z</time>
      </trkpt>
      <trkpt lat="42.96938" lon="0.58651">
        <ele>620.559524</ele>
        <time>2021-10-12T21:26:18.758Z</time>
      </trkpt>
      <trkpt lat="42.96948" lon="0.58634">
        <ele>619.682615</ele>
        <time>2021-10-12T21:26:21.074Z</time>
      </trkpt>
      <trkpt lat="42.97026" lon="0.58576">
        <ele>613.800036</ele>
        <time>2021-10-12T21:26:34.120Z</time>
      </trkpt>
      <trkpt lat="42.97062" lon="0.5857">
        <ele>611.441684</ele>
        <time>2021-10-12T21:26:39.289Z</time>
      </trkpt>
      <trkpt lat="42.97074" lon="0.58559">
        <ele>610.498463</ele>
        <time>2021-10-12T21:26:41.354Z</time>
      </trkpt>
      <trkpt lat="42.97097" lon="0.58495">
        <ele>606.904773</ele>
        <time>2021-10-12T21:26:48.755Z</time>
      </trkpt>
      <trkpt lat="42.97092" lon="0.58416">
        <ele>602.442863</ele>
        <time>2021-10-12T21:26:57.066Z</time>
      </trkpt>
      <trkpt lat="42.97098" lon="0.58389">
        <ele>600.831056</ele>
        <time>2021-10-12T21:27:00.079Z</time>
      </trkpt>
      <trkpt lat="42.97175" lon="0.58334">
        <ele>594.086392</ele>
        <time>2021-10-12T21:27:12.238Z</time>
      </trkpt>
      <trkpt lat="42.97239" lon="0.58273">
        <ele>586.217569</ele>
        <time>2021-10-12T21:27:22.920Z</time>
      </trkpt>
      <trkpt lat="42.97258" lon="0.58261">
        <ele>584.094147</ele>
        <time>2021-10-12T21:27:25.764Z</time>
      </trkpt>
      <trkpt lat="42.97288" lon="0.58237">
        <ele>580.596474</ele>
        <time>2021-10-12T21:27:30.435Z</time>
      </trkpt>
      <trkpt lat="42.97332" lon="0.58185">
        <ele>574.566565</ele>
        <time>2021-10-12T21:27:38.213Z</time>
      </trkpt>
      <trkpt lat="42.97343" lon="0.58145">
        <ele>571.039477</ele>
        <time>2021-10-12T21:27:42.389Z</time>
      </trkpt>
      <trkpt lat="42.97394" lon="0.58115">
        <ele>564.79981</ele>
        <time>2021-10-12T21:27:49.730Z</time>
      </trkpt>
      <trkpt lat="42.97404" lon="0.58099">
        <ele>563.08352</ele>
        <time>2021-10-12T21:27:51.766Z</time>
      </trkpt>
      <trkpt lat="42.9744" lon="0.57916">
        <ele>550.237573</ele>
        <time>2021-10-12T21:28:10.571Z</time>
      </trkpt>
      <trkpt lat="42.97445" lon="0.57883">
        <ele>548.375738</ele>
        <time>2021-10-12T21:28:14.002Z</time>
      </trkpt>
      <trkpt lat="42.9744" lon="0.57868">
        <ele>547.468531</ele>
        <time>2021-10-12T21:28:15.796Z</time>
      </trkpt>
      <trkpt lat="42.97457" lon="0.57847">
        <ele>545.740081</ele>
        <time>2021-10-12T21:28:19.058Z</time>
      </trkpt>
      <trkpt lat="42.97499" lon="0.57788">
        <ele>542.042037</ele>
        <time>2021-10-12T21:28:28.207Z</time>
      </trkpt>
      <trkpt lat="42.97534" lon="0.57739">
        <ele>541.186286</ele>
        <time>2021-10-12T21:28:36.232Z</time>
      </trkpt>
      <trkpt lat="42.97616" lon="0.57627">
        <ele>539.223813</ele>
        <time>2021-10-12T21:29:00.672Z</time>
      </trkpt>
      <trkpt lat="42.97629" lon="0.57609">
        <ele>539.417876</ele>
        <time>2021-10-12T21:29:04.792Z</time>
      </trkpt>
      <trkpt lat="42.97651" lon="0.57588">
        <ele>539.711722</ele>
        <time>2021-10-12T21:29:10.815Z</time>
      </trkpt>
      <trkpt lat="42.97662" lon="0.57582">
        <ele>539.834991</ele>
        <time>2021-10-12T21:29:13.783Z</time>
      </trkpt>
      <trkpt lat="42.9768" lon="0.57578">
        <ele>540.030724</ele>
        <time>2021-10-12T21:29:18.081Z</time>
      </trkpt>
      <trkpt lat="42.97682" lon="0.57578">
        <ele>540.051331</ele>
        <time>2021-10-12T21:29:18.582Z</time>
      </trkpt>
      <trkpt lat="42.97706" lon="0.57575">
        <ele>540.308523</ele>
        <time>2021-10-12T21:29:24.989Z</time>
      </trkpt>
      <trkpt lat="42.9771" lon="0.57575">
        <ele>540.356784</ele>
        <time>2021-10-12T21:29:26.121Z</time>
      </trkpt>
      <trkpt lat="42.97713" lon="0.57576">
        <ele>540.391406</ele>
        <time>2021-10-12T21:29:27.016Z</time>
      </trkpt>
      <trkpt lat="42.97722" lon="0.5758">
        <ele>540.492849</ele>
        <time>2021-10-12T21:29:29.711Z</time>
      </trkpt>
      <trkpt lat="42.97727" lon="0.57578">
        <ele>540.540418</ele>
        <time>2021-10-12T21:29:31.175Z</time>
      </trkpt>
      <trkpt lat="42.9775" lon="0.57584">
        <ele>540.79878</ele>
        <time>2021-10-12T21:29:38.300Z</time>
      </trkpt>
      <trkpt lat="42.97777" lon="0.5758">
        <ele>541.088022</ele>
        <time>2021-10-12T21:29:47.004Z</time>
      </trkpt>
      <trkpt lat="42.97808" lon="0.57593">
        <ele>542.058174</ele>
        <time>2021-10-12T21:29:57.668Z</time>
      </trkpt>
      <trkpt lat="42.97851" lon="0.57581">
        <ele>543.489252</ele>
        <time>2021-10-12T21:30:12.997Z</time>
      </trkpt>
      <trkpt lat="42.97852" lon="0.57569">
        <ele>543.771696</ele>
        <time>2021-10-12T21:30:16.296Z</time>
      </trkpt>
      <trkpt lat="42.97847" lon="0.57558">
        <ele>544.096087</ele>
        <time>2021-10-12T21:30:19.758Z</time>
      </trkpt>
      <trkpt lat="42.9781" lon="0.57538">
        <ele>545.399729</ele>
        <time>2021-10-12T21:30:34.885Z</time>
      </trkpt>
      <trkpt lat="42.97779" lon="0.57481">
        <ele>547.141203</ele>
        <time>2021-10-12T21:30:52.819Z</time>
      </trkpt>
      <trkpt lat="42.97763" lon="0.57467">
        <ele>548.144874</ele>
        <time>2021-10-12T21:31:02.406Z</time>
      </trkpt>
      <trkpt lat="42.9775" lon="0.57484">
        <ele>549.080864</ele>
        <time>2021-10-12T21:31:09.223Z</time>
      </trkpt>
      <trkpt lat="42.97737" lon="0.57487">
        <ele>549.764523</ele>
        <time>2021-10-12T21:31:18.209Z</time>
      </trkpt>
      <trkpt lat="42.97735" lon="0.57487">
        <ele>549.854161</ele>
        <time>2021-10-12T21:31:18.626Z</time>
      </trkpt>
      <trkpt lat="42.97735" lon="0.57466">
        <ele>550.657682</ele>
        <time>2021-10-12T21:31:26.658Z</time>
      </trkpt>
      <trkpt lat="42.97733" lon="0.57451">
        <ele>551.246747</ele>
        <time>2021-10-12T21:31:31.440Z</time>
      </trkpt>
      <trkpt lat="42.97732" lon="0.57444">
        <ele>551.529274</ele>
        <time>2021-10-12T21:31:36.343Z</time>
      </trkpt>
      <trkpt lat="42.97733" lon="0.57451">
        <ele>551.811801</ele>
        <time>2021-10-12T21:31:39.191Z</time>
      </trkpt>
      <trkpt lat="42.97735" lon="0.57466">
        <ele>552.400866</ele>
        <time>2021-10-12T21:31:44.994Z</time>
      </trkpt>
      <trkpt lat="42.97735" lon="0.57487">
        <ele>553.204387</ele>
        <time>2021-10-12T21:31:51.589Z</time>
      </trkpt>
      <trkpt lat="42.97737" lon="0.57487">
        <ele>553.294025</ele>
        <time>2021-10-12T21:31:53.607Z</time>
      </trkpt>
      <trkpt lat="42.9775" lon="0.57484">
        <ele>553.977684</ele>
        <time>2021-10-12T21:32:01.156Z</time>
      </trkpt>
      <trkpt lat="42.97763" lon="0.57467">
        <ele>554.913675</ele>
        <time>2021-10-12T21:32:08.892Z</time>
      </trkpt>
      <trkpt lat="42.97765" lon="0.5746">
        <ele>555.214028</ele>
        <time>2021-10-12T21:32:12.694Z</time>
      </trkpt>
      <trkpt lat="42.9777" lon="0.57455">
        <ele>555.531124</ele>
        <time>2021-10-12T21:32:15.934Z</time>
      </trkpt>
      <trkpt lat="42.97792" lon="0.57429">
        <ele>556.72549</ele>
        <time>2021-10-12T21:32:27.108Z</time>
      </trkpt>
      <trkpt lat="42.97797" lon="0.57422">
        <ele>556.889412</ele>
        <time>2021-10-12T21:32:30.370Z</time>
      </trkpt>
      <trkpt lat="42.97813" lon="0.57399">
        <ele>557.398289</ele>
        <time>2021-10-12T21:32:38.748Z</time>
      </trkpt>
      <trkpt lat="42.97835" lon="0.57369">
        <ele>558.080386</ele>
        <time>2021-10-12T21:32:50.717Z</time>
      </trkpt>
      <trkpt lat="42.97867" lon="0.5735">
        <ele>558.861027</ele>
        <time>2021-10-12T21:33:03.477Z</time>
      </trkpt>
      <trkpt lat="42.97904" lon="0.5729">
        <ele>560.134672</ele>
        <time>2021-10-12T21:33:19.561Z</time>
      </trkpt>
      <trkpt lat="42.97907" lon="0.57284">
        <ele>560.258146</ele>
        <time>2021-10-12T21:33:20.467Z</time>
      </trkpt>
      <trkpt lat="42.97912" lon="0.5729">
        <ele>560.402826</ele>
        <time>2021-10-12T21:33:21.993Z</time>
      </trkpt>
      <trkpt lat="42.97922" lon="0.57316">
        <ele>559.124182</ele>
        <time>2021-10-12T21:33:25.807Z</time>
      </trkpt>
      <trkpt lat="42.97933" lon="0.57324">
        <ele>558.249491</ele>
        <time>2021-10-12T21:33:27.612Z</time>
      </trkpt>
      <trkpt lat="42.97952" lon="0.57316">
        <ele>556.757156</ele>
        <time>2021-10-12T21:33:30.796Z</time>
      </trkpt>
      <trkpt lat="42.98021" lon="0.57322">
        <ele>551.703348</ele>
        <time>2021-10-12T21:33:40.399Z</time>
      </trkpt>
      <trkpt lat="42.9803" lon="0.57329">
        <ele>550.89413</ele>
        <time>2021-10-12T21:33:41.951Z</time>
      </trkpt>
      <trkpt lat="42.9805" lon="0.57369">
        <ele>548.331275</ele>
        <time>2021-10-12T21:33:46.639Z</time>
      </trkpt>
      <trkpt lat="42.98069" lon="0.57381">
        <ele>546.542825</ele>
        <time>2021-10-12T21:33:49.424Z</time>
      </trkpt>
      <trkpt lat="42.98093" lon="0.57405">
        <ele>543.408</ele>
        <time>2021-10-12T21:33:53.347Z</time>
      </trkpt>
      <trkpt lat="42.98114" lon="0.5741">
        <ele>541.176602</ele>
        <time>2021-10-12T21:33:56.368Z</time>
      </trkpt>
      <trkpt lat="42.9812" lon="0.57417">
        <ele>540.335733</ele>
        <time>2021-10-12T21:33:57.376Z</time>
      </trkpt>
      <trkpt lat="42.98122" lon="0.5742">
        <ele>539.967666</ele>
        <time>2021-10-12T21:33:57.817Z</time>
      </trkpt>
      <trkpt lat="42.9813" lon="0.57446">
        <ele>537.772147</ele>
        <time>2021-10-12T21:34:00.716Z</time>
      </trkpt>
      <trkpt lat="42.98116" lon="0.57561">
        <ele>528.744291</ele>
        <time>2021-10-12T21:34:12.179Z</time>
      </trkpt>
      <trkpt lat="42.98122" lon="0.57576">
        <ele>527.910104</ele>
        <time>2021-10-12T21:34:13.933Z</time>
      </trkpt>
      <trkpt lat="42.98148" lon="0.57581">
        <ele>526.86298</ele>
        <time>2021-10-12T21:34:17.421Z</time>
      </trkpt>
      <trkpt lat="42.98152" lon="0.57581">
        <ele>526.66367</ele>
        <time>2021-10-12T21:34:18.087Z</time>
      </trkpt>
      <trkpt lat="42.9817" lon="0.57584">
        <ele>525.9173</ele>
        <time>2021-10-12T21:34:21.141Z</time>
      </trkpt>
      <trkpt lat="42.98209" lon="0.57601">
        <ele>524.249418</ele>
        <time>2021-10-12T21:34:27.856Z</time>
      </trkpt>
      <trkpt lat="42.9824" lon="0.57579">
        <ele>522.817041</ele>
        <time>2021-10-12T21:34:33.748Z</time>
      </trkpt>
      <trkpt lat="42.98269" lon="0.57568">
        <ele>521.5638</ele>
        <time>2021-10-12T21:34:39.019Z</time>
      </trkpt>
      <trkpt lat="42.98275" lon="0.57572">
        <ele>521.296245</ele>
        <time>2021-10-12T21:34:40.276Z</time>
      </trkpt>
      <trkpt lat="42.98285" lon="0.57565">
        <ele>520.831141</ele>
        <time>2021-10-12T21:34:42.254Z</time>
      </trkpt>
      <trkpt lat="42.9842" lon="0.57528">
        <ele>520.20822</ele>
        <time>2021-10-12T21:35:11.301Z</time>
      </trkpt>
      <trkpt lat="42.98534" lon="0.57468">
        <ele>520.010126</ele>
        <time>2021-10-12T21:35:38.359Z</time>
      </trkpt>
      <trkpt lat="42.98666" lon="0.57407">
        <ele>520.000012</ele>
        <time>2021-10-12T21:36:09.381Z</time>
      </trkpt>
      <trkpt lat="42.9871" lon="0.57377">
        <ele>520.000012</ele>
        <time>2021-10-12T21:36:20.361Z</time>
      </trkpt>
      <trkpt lat="42.98783" lon="0.57301">
        <ele>520.000012</ele>
        <time>2021-10-12T21:36:40.717Z</time>
      </trkpt>
      <trkpt lat="42.9883" lon="0.57283">
        <ele>520.000012</ele>
        <time>2021-10-12T21:36:51.578Z</time>
      </trkpt>
      <trkpt lat="42.98877" lon="0.57273">
        <ele>520.000012</ele>
        <time>2021-10-12T21:37:02.293Z</time>
      </trkpt>
      <trkpt lat="42.98946" lon="0.57276">
        <ele>520.000012</ele>
        <time>2021-10-12T21:37:17.661Z</time>
      </trkpt>
      <trkpt lat="42.98955" lon="0.57277">
        <ele>520.000012</ele>
        <time>2021-10-12T21:37:19.601Z</time>
      </trkpt>
      <trkpt lat="42.98973" lon="0.57279">
        <ele>520.000012</ele>
        <time>2021-10-12T21:37:23.607Z</time>
      </trkpt>
      <trkpt lat="42.99037" lon="0.57286">
        <ele>520.000012</ele>
        <time>2021-10-12T21:37:37.906Z</time>
      </trkpt>
      <trkpt lat="42.99061" lon="0.57293">
        <ele>520.000012</ele>
        <time>2021-10-12T21:37:43.338Z</time>
      </trkpt>
      <trkpt lat="42.99071" lon="0.57299">
        <ele>520.000012</ele>
        <time>2021-10-12T21:37:45.699Z</time>
      </trkpt>
      <trkpt lat="42.99075" lon="0.57301">
        <ele>520.000012</ele>
        <time>2021-10-12T21:37:46.760Z</time>
      </trkpt>
      <trkpt lat="42.99111" lon="0.5732">
        <ele>520.000012</ele>
        <time>2021-10-12T21:37:55.323Z</time>
      </trkpt>
      <trkpt lat="42.99178" lon="0.57342">
        <ele>520.000012</ele>
        <time>2021-10-12T21:38:10.581Z</time>
      </trkpt>
      <trkpt lat="42.992" lon="0.57345">
        <ele>520.000012</ele>
        <time>2021-10-12T21:38:15.529Z</time>
      </trkpt>
      <trkpt lat="42.99284" lon="0.57339">
        <ele>520.000012</ele>
        <time>2021-10-12T21:38:34.348Z</time>
      </trkpt>
      <trkpt lat="42.99341" lon="0.57339">
        <ele>519.939817</ele>
        <time>2021-10-12T21:38:46.966Z</time>
      </trkpt>
      <trkpt lat="42.994" lon="0.57374">
        <ele>519.799726</ele>
        <time>2021-10-12T21:39:01.262Z</time>
      </trkpt>
      <trkpt lat="42.99503" lon="0.57433">
        <ele>519.16147</ele>
        <time>2021-10-12T21:39:24.599Z</time>
      </trkpt>
      <trkpt lat="42.99511" lon="0.57438">
        <ele>519.004344</ele>
        <time>2021-10-12T21:39:26.293Z</time>
      </trkpt>
      <trkpt lat="42.99538" lon="0.57468">
        <ele>518.354636</ele>
        <time>2021-10-12T21:39:33.160Z</time>
      </trkpt>
      <trkpt lat="42.99567" lon="0.57502">
        <ele>517.638127</ele>
        <time>2021-10-12T21:39:40.334Z</time>
      </trkpt>
      <trkpt lat="42.9966" lon="0.57607">
        <ele>514.50428</ele>
        <time>2021-10-12T21:40:00.018Z</time>
      </trkpt>
      <trkpt lat="42.99708" lon="0.57658">
        <ele>512.216243</ele>
        <time>2021-10-12T21:40:09.208Z</time>
      </trkpt>
      <trkpt lat="42.99739" lon="0.57678">
        <ele>510.918121</ele>
        <time>2021-10-12T21:40:14.565Z</time>
      </trkpt>
      <trkpt lat="42.99766" lon="0.57694">
        <ele>509.788983</ele>
        <time>2021-10-12T21:40:19.340Z</time>
      </trkpt>
      <trkpt lat="42.99795" lon="0.57714">
        <ele>509.228012</ele>
        <time>2021-10-12T21:40:24.693Z</time>
      </trkpt>
      <trkpt lat="42.9984" lon="0.57736">
        <ele>508.771402</ele>
        <time>2021-10-12T21:40:33.113Z</time>
      </trkpt>
      <trkpt lat="42.99873" lon="0.57759">
        <ele>508.411787</ele>
        <time>2021-10-12T21:40:41.097Z</time>
      </trkpt>
      <trkpt lat="42.99919" lon="0.57775">
        <ele>507.950242</ele>
        <time>2021-10-12T21:40:55.744Z</time>
      </trkpt>
      <trkpt lat="42.99964" lon="0.57831">
        <ele>506.5704</ele>
        <time>2021-10-12T21:41:06.982Z</time>
      </trkpt>
      <trkpt lat="42.99993" lon="0.57854">
        <ele>505.525751</ele>
        <time>2021-10-12T21:41:12.869Z</time>
      </trkpt>
      <trkpt lat="43.00009" lon="0.57859">
        <ele>505.031847</ele>
        <time>2021-10-12T21:41:16.805Z</time>
      </trkpt>
      <trkpt lat="43.00083" lon="0.57885">
        <ele>502.658687</ele>
        <time>2021-10-12T21:41:28.489Z</time>
      </trkpt>
      <trkpt lat="43.00119" lon="0.5788">
        <ele>501.232675</ele>
        <time>2021-10-12T21:41:33.810Z</time>
      </trkpt>
      <trkpt lat="43.00208" lon="0.57827">
        <ele>496.581209</ele>
        <time>2021-10-12T21:41:47.816Z</time>
      </trkpt>
      <trkpt lat="43.00344" lon="0.57795">
        <ele>493.279162</ele>
        <time>2021-10-12T21:42:12.422Z</time>
      </trkpt>
      <trkpt lat="43.00412" lon="0.57773">
        <ele>493.004746</ele>
        <time>2021-10-12T21:42:30.460Z</time>
      </trkpt>
      <trkpt lat="43.00479" lon="0.57761">
        <ele>492.620322</ele>
        <time>2021-10-12T21:42:47.676Z</time>
      </trkpt>
      <trkpt lat="43.00585" lon="0.57774">
        <ele>491.793019</ele>
        <time>2021-10-12T21:43:09.054Z</time>
      </trkpt>
      <trkpt lat="43.00611" lon="0.57773">
        <ele>491.595103</ele>
        <time>2021-10-12T21:43:13.857Z</time>
      </trkpt>
      <trkpt lat="43.00627" lon="0.57771">
        <ele>491.450041</ele>
        <time>2021-10-12T21:43:16.481Z</time>
      </trkpt>
      <trkpt lat="43.00685" lon="0.57752">
        <ele>489.818314</ele>
        <time>2021-10-12T21:43:26.502Z</time>
      </trkpt>
      <trkpt lat="43.00761" lon="0.57712">
        <ele>487.557824</ele>
        <time>2021-10-12T21:43:39.559Z</time>
      </trkpt>
      <trkpt lat="43.00816" lon="0.57693">
        <ele>486.404761</ele>
        <time>2021-10-12T21:43:49.135Z</time>
      </trkpt>
      <trkpt lat="43.00849" lon="0.57687">
        <ele>486.240546</ele>
        <time>2021-10-12T21:43:55.123Z</time>
      </trkpt>
      <trkpt lat="43.00909" lon="0.57699">
        <ele>485.938216</ele>
        <time>2021-10-12T21:44:07.411Z</time>
      </trkpt>
      <trkpt lat="43.00939" lon="0.57713">
        <ele>485.783605</ele>
        <time>2021-10-12T21:44:14.787Z</time>
      </trkpt>
      <trkpt lat="43.00964" lon="0.5773">
        <ele>485.642469</ele>
        <time>2021-10-12T21:44:22.237Z</time>
      </trkpt>
      <trkpt lat="43.01096" lon="0.57826">
        <ele>487.882462</ele>
        <time>2021-10-12T21:45:07.423Z</time>
      </trkpt>
      <trkpt lat="43.01132" lon="0.57852">
        <ele>488.486406</ele>
        <time>2021-10-12T21:45:19.350Z</time>
      </trkpt>
      <trkpt lat="43.01154" lon="0.57878">
        <ele>488.35732</ele>
        <time>2021-10-12T21:45:25.658Z</time>
      </trkpt>
      <trkpt lat="43.01156" lon="0.57886">
        <ele>488.330241</ele>
        <time>2021-10-12T21:45:28.329Z</time>
      </trkpt>
      <trkpt lat="43.01156" lon="0.57897">
        <ele>488.296963</ele>
        <time>2021-10-12T21:45:29.574Z</time>
      </trkpt>
      <trkpt lat="43.01145" lon="0.57959">
        <ele>488.088424</ele>
        <time>2021-10-12T21:45:39.712Z</time>
      </trkpt>
      <trkpt lat="43.01145" lon="0.57983">
        <ele>488.009714</ele>
        <time>2021-10-12T21:45:44.274Z</time>
      </trkpt>
      <trkpt lat="43.01173" lon="0.58198">
        <ele>486.125928</ele>
        <time>2021-10-12T21:46:12.573Z</time>
      </trkpt>
      <trkpt lat="43.01183" lon="0.5822">
        <ele>485.795669</ele>
        <time>2021-10-12T21:46:15.897Z</time>
      </trkpt>
      <trkpt lat="43.01289" lon="0.5837">
        <ele>483.069693</ele>
        <time>2021-10-12T21:46:43.494Z</time>
      </trkpt>
      <trkpt lat="43.01302" lon="0.58403">
        <ele>482.583169</ele>
        <time>2021-10-12T21:46:48.418Z</time>
      </trkpt>
      <trkpt lat="43.01303" lon="0.58444">
        <ele>482.037018</ele>
        <time>2021-10-12T21:46:53.903Z</time>
      </trkpt>
      <trkpt lat="43.01267" lon="0.58518">
        <ele>480.698798</ele>
        <time>2021-10-12T21:47:05.448Z</time>
      </trkpt>
      <trkpt lat="43.01263" lon="0.5855">
        <ele>480.120457</ele>
        <time>2021-10-12T21:47:09.456Z</time>
      </trkpt>
      <trkpt lat="43.01288" lon="0.58645">
        <ele>478.304573</ele>
        <time>2021-10-12T21:47:21.961Z</time>
      </trkpt>
      <trkpt lat="43.01304" lon="0.58678">
        <ele>477.602583</ele>
        <time>2021-10-12T21:47:26.816Z</time>
      </trkpt>
      <trkpt lat="43.01325" lon="0.58705">
        <ele>476.886393</ele>
        <time>2021-10-12T21:47:31.723Z</time>
      </trkpt>
      <trkpt lat="43.01342" lon="0.58723">
        <ele>476.364173</ele>
        <time>2021-10-12T21:47:35.340Z</time>
      </trkpt>
      <trkpt lat="43.014" lon="0.58785">
        <ele>474.571309</ele>
        <time>2021-10-12T21:47:47.753Z</time>
      </trkpt>
      <trkpt lat="43.01475" lon="0.58826">
        <ele>472.597374</ele>
        <time>2021-10-12T21:48:01.517Z</time>
      </trkpt>
      <trkpt lat="43.01543" lon="0.5893">
        <ele>470.845503</ele>
        <time>2021-10-12T21:48:19.817Z</time>
      </trkpt>
      <trkpt lat="43.01567" lon="0.58944">
        <ele>470.403119</ele>
        <time>2021-10-12T21:48:24.782Z</time>
      </trkpt>
      <trkpt lat="43.01579" lon="0.58947">
        <ele>470.207331</ele>
        <time>2021-10-12T21:48:26.780Z</time>
      </trkpt>
      <trkpt lat="43.01584" lon="0.58946">
        <ele>470.116208</ele>
        <time>2021-10-12T21:48:27.855Z</time>
      </trkpt>
      <trkpt lat="43.01629" lon="0.58939">
        <ele>469.376044</ele>
        <time>2021-10-12T21:48:36.220Z</time>
      </trkpt>
      <trkpt lat="43.01682" lon="0.58918">
        <ele>468.674018</ele>
        <time>2021-10-12T21:48:46.229Z</time>
      </trkpt>
      <trkpt lat="43.01732" lon="0.589">
        <ele>468.004198</ele>
        <time>2021-10-12T21:48:56.152Z</time>
      </trkpt>
      <trkpt lat="43.01777" lon="0.58895">
        <ele>467.435319</ele>
        <time>2021-10-12T21:49:04.684Z</time>
      </trkpt>
      <trkpt lat="43.018" lon="0.58898">
        <ele>467.1319</ele>
        <time>2021-10-12T21:49:09.239Z</time>
      </trkpt>
      <trkpt lat="43.0189" lon="0.58934">
        <ele>466.058214</ele>
        <time>2021-10-12T21:49:26.511Z</time>
      </trkpt>
      <trkpt lat="43.01917" lon="0.58945">
        <ele>465.732973</ele>
        <time>2021-10-12T21:49:31.908Z</time>
      </trkpt>
      <trkpt lat="43.0193" lon="0.58958">
        <ele>465.546821</ele>
        <time>2021-10-12T21:49:34.962Z</time>
      </trkpt>
      <trkpt lat="43.01937" lon="0.58963">
        <ele>465.460824</ele>
        <time>2021-10-12T21:49:36.412Z</time>
      </trkpt>
      <trkpt lat="43.01938" lon="0.58969">
        <ele>465.411965</ele>
        <time>2021-10-12T21:49:37.284Z</time>
      </trkpt>
      <trkpt lat="43.0194" lon="0.58974">
        <ele>465.362874</ele>
        <time>2021-10-12T21:49:38.156Z</time>
      </trkpt>
      <trkpt lat="43.01943" lon="0.58977">
        <ele>465.31456</ele>
        <time>2021-10-12T21:49:38.956Z</time>
      </trkpt>
      <trkpt lat="43.01946" lon="0.58978">
        <ele>465.279805</ele>
        <time>2021-10-12T21:49:39.528Z</time>
      </trkpt>
      <trkpt lat="43.01949" lon="0.58978">
        <ele>465.244234</ele>
        <time>2021-10-12T21:49:40.117Z</time>
      </trkpt>
      <trkpt lat="43.01952" lon="0.58977">
        <ele>465.209478</ele>
        <time>2021-10-12T21:49:40.695Z</time>
      </trkpt>
      <trkpt lat="43.01955" lon="0.58973">
        <ele>465.159638</ele>
        <time>2021-10-12T21:49:41.557Z</time>
      </trkpt>
      <trkpt lat="43.01957" lon="0.58968">
        <ele>465.11036</ele>
        <time>2021-10-12T21:49:42.418Z</time>
      </trkpt>
      <trkpt lat="43.01958" lon="0.58963">
        <ele>465.093471</ele>
        <time>2021-10-12T21:49:43.147Z</time>
      </trkpt>
      <trkpt lat="43.01957" lon="0.58958">
        <ele>465.095647</ele>
        <time>2021-10-12T21:49:43.869Z</time>
      </trkpt>
      <trkpt lat="43.01955" lon="0.58954">
        <ele>465.097817</ele>
        <time>2021-10-12T21:49:44.662Z</time>
      </trkpt>
      <trkpt lat="43.01966" lon="0.58944">
        <ele>465.106362</ele>
        <time>2021-10-12T21:49:47.401Z</time>
      </trkpt>
      <trkpt lat="43.02027" lon="0.58905">
        <ele>465.147513</ele>
        <time>2021-10-12T21:50:01.556Z</time>
      </trkpt>
      <trkpt lat="43.02044" lon="0.58886">
        <ele>465.160552</ele>
        <time>2021-10-12T21:50:06.201Z</time>
      </trkpt>
      <trkpt lat="43.02056" lon="0.58871">
        <ele>465.170962</ele>
        <time>2021-10-12T21:50:10.103Z</time>
      </trkpt>
      <trkpt lat="43.02182" lon="0.58687">
        <ele>466.755788</ele>
        <time>2021-10-12T21:50:58.812Z</time>
      </trkpt>
      <trkpt lat="43.02204" lon="0.58668">
        <ele>467.059422</ele>
        <time>2021-10-12T21:51:06.382Z</time>
      </trkpt>
      <trkpt lat="43.02325" lon="0.58589">
        <ele>468.499439</ele>
        <time>2021-10-12T21:51:43.879Z</time>
      </trkpt>
      <trkpt lat="43.02341" lon="0.58576">
        <ele>468.69462</ele>
        <time>2021-10-12T21:51:48.814Z</time>
      </trkpt>
      <trkpt lat="43.02347" lon="0.5857">
        <ele>468.774564</ele>
        <time>2021-10-12T21:51:50.701Z</time>
      </trkpt>
      <trkpt lat="43.02353" lon="0.5856">
        <ele>468.869018</ele>
        <time>2021-10-12T21:51:52.972Z</time>
      </trkpt>
      <trkpt lat="43.0247" lon="0.58295">
        <ele>469.248769</ele>
        <time>2021-10-12T21:52:43.902Z</time>
      </trkpt>
      <trkpt lat="43.02541" lon="0.58128">
        <ele>468.571785</ele>
        <time>2021-10-12T21:53:13.104Z</time>
      </trkpt>
      <trkpt lat="43.02589" lon="0.57939">
        <ele>466.828849</ele>
        <time>2021-10-12T21:53:41.064Z</time>
      </trkpt>
      <trkpt lat="43.02609" lon="0.57856">
        <ele>465.945395</ele>
        <time>2021-10-12T21:53:52.554Z</time>
      </trkpt>
      <trkpt lat="43.02649" lon="0.57744">
        <ele>464.360967</ele>
        <time>2021-10-12T21:54:08.437Z</time>
      </trkpt>
      <trkpt lat="43.02719" lon="0.57641">
        <ele>462.855384</ele>
        <time>2021-10-12T21:54:27.158Z</time>
      </trkpt>
      <trkpt lat="43.02726" lon="0.57633">
        <ele>462.817212</ele>
        <time>2021-10-12T21:54:28.946Z</time>
      </trkpt>
      <trkpt lat="43.02729" lon="0.57631">
        <ele>462.803122</ele>
        <time>2021-10-12T21:54:29.619Z</time>
      </trkpt>
      <trkpt lat="43.02736" lon="0.57627">
        <ele>462.771404</ele>
        <time>2021-10-12T21:54:31.121Z</time>
      </trkpt>
      <trkpt lat="43.02743" lon="0.57623">
        <ele>462.740333</ele>
        <time>2021-10-12T21:54:32.591Z</time>
      </trkpt>
      <trkpt lat="43.02777" lon="0.57595">
        <ele>462.574872</ele>
        <time>2021-10-12T21:54:40.827Z</time>
      </trkpt>
      <trkpt lat="43.02879" lon="0.57482">
        <ele>462.245012</ele>
        <time>2021-10-12T21:55:10.293Z</time>
      </trkpt>
      <trkpt lat="43.02897" lon="0.57448">
        <ele>462.289324</ele>
        <time>2021-10-12T21:55:17.856Z</time>
      </trkpt>
      <trkpt lat="43.0293" lon="0.57371">
        <ele>462.382562</ele>
        <time>2021-10-12T21:55:33.298Z</time>
      </trkpt>
      <trkpt lat="43.0293" lon="0.57358">
        <ele>462.396417</ele>
        <time>2021-10-12T21:55:35.707Z</time>
      </trkpt>
      <trkpt lat="43.02919" lon="0.57322">
        <ele>462.437167</ele>
        <time>2021-10-12T21:55:41.819Z</time>
      </trkpt>
      <trkpt lat="43.02913" lon="0.57313">
        <ele>462.428129</ele>
        <time>2021-10-12T21:55:43.836Z</time>
      </trkpt>
      <trkpt lat="43.02944" lon="0.57232">
        <ele>461.953795</ele>
        <time>2021-10-12T21:55:57.912Z</time>
      </trkpt>
      <trkpt lat="43.02973" lon="0.5715">
        <ele>461.480102</ele>
        <time>2021-10-12T21:56:11.958Z</time>
      </trkpt>
      <trkpt lat="43.02979" lon="0.57139">
        <ele>461.402629</ele>
        <time>2021-10-12T21:56:14.359Z</time>
      </trkpt>
      <trkpt lat="43.02986" lon="0.57129">
        <ele>461.334067</ele>
        <time>2021-10-12T21:56:16.105Z</time>
      </trkpt>
      <trkpt lat="43.0302" lon="0.57136">
        <ele>460.998636</ele>
        <time>2021-10-12T21:56:22.868Z</time>
      </trkpt>
      <trkpt lat="43.03033" lon="0.57137">
        <ele>460.777032</ele>
        <time>2021-10-12T21:56:25.586Z</time>
      </trkpt>
      <trkpt lat="43.03048" lon="0.57133">
        <ele>460.534286</ele>
        <time>2021-10-12T21:56:28.591Z</time>
      </trkpt>
      <trkpt lat="43.03052" lon="0.57125">
        <ele>460.425107</ele>
        <time>2021-10-12T21:56:29.761Z</time>
      </trkpt>
      <trkpt lat="43.03067" lon="0.57119">
        <ele>460.173731</ele>
        <time>2021-10-12T21:56:32.742Z</time>
      </trkpt>
      <trkpt lat="43.03112" lon="0.57125">
        <ele>459.449284</ele>
        <time>2021-10-12T21:56:41.280Z</time>
      </trkpt>
      <trkpt lat="43.03173" lon="0.57104">
        <ele>458.449017</ele>
        <time>2021-10-12T21:56:52.942Z</time>
      </trkpt>
      <trkpt lat="43.03242" lon="0.57071">
        <ele>457.42139</ele>
        <time>2021-10-12T21:57:06.839Z</time>
      </trkpt>
      <trkpt lat="43.0326" lon="0.57059">
        <ele>457.149368</ele>
        <time>2021-10-12T21:57:10.728Z</time>
      </trkpt>
      <trkpt lat="43.03294" lon="0.57021">
        <ele>456.550071</ele>
        <time>2021-10-12T21:57:19.426Z</time>
      </trkpt>
      <trkpt lat="43.0331" lon="0.57008">
        <ele>456.303483</ele>
        <time>2021-10-12T21:57:22.833Z</time>
      </trkpt>
      <trkpt lat="43.03323" lon="0.57">
        <ele>456.102957</ele>
        <time>2021-10-12T21:57:26.047Z</time>
      </trkpt>
      <trkpt lat="43.03355" lon="0.56977">
        <ele>455.747464</ele>
        <time>2021-10-12T21:57:33.356Z</time>
      </trkpt>
      <trkpt lat="43.03393" lon="0.56948">
        <ele>455.52026</ele>
        <time>2021-10-12T21:57:42.360Z</time>
      </trkpt>
      <trkpt lat="43.03409" lon="0.56932">
        <ele>455.414882</ele>
        <time>2021-10-12T21:57:46.431Z</time>
      </trkpt>
      <trkpt lat="43.03421" lon="0.5692">
        <ele>455.336582</ele>
        <time>2021-10-12T21:57:49.830Z</time>
      </trkpt>
      <trkpt lat="43.03429" lon="0.56905">
        <ele>455.265169</ele>
        <time>2021-10-12T21:57:52.517Z</time>
      </trkpt>
      <trkpt lat="43.03432" lon="0.56887">
        <ele>455.193893</ele>
        <time>2021-10-12T21:57:55.746Z</time>
      </trkpt>
      <trkpt lat="43.03434" lon="0.56838">
        <ele>455.005038</ele>
        <time>2021-10-12T21:58:03.827Z</time>
      </trkpt>
      <trkpt lat="43.03443" lon="0.56792">
        <ele>454.96666</ele>
        <time>2021-10-12T21:58:11.556Z</time>
      </trkpt>
      <trkpt lat="43.03478" lon="0.56724">
        <ele>455.378288</ele>
        <time>2021-10-12T21:58:25.598Z</time>
      </trkpt>
      <trkpt lat="43.03496" lon="0.56673">
        <ele>455.657431</ele>
        <time>2021-10-12T21:58:36.128Z</time>
      </trkpt>
      <trkpt lat="43.03533" lon="0.56608">
        <ele>456.067629</ele>
        <time>2021-10-12T21:58:52.621Z</time>
      </trkpt>
      <trkpt lat="43.03536" lon="0.56575">
        <ele>456.669529</ele>
        <time>2021-10-12T21:58:59.631Z</time>
      </trkpt>
      <trkpt lat="43.0353" lon="0.56479">
        <ele>458.76162</ele>
        <time>2021-10-12T21:59:25.037Z</time>
      </trkpt>
      <trkpt lat="43.03577" lon="0.56398">
        <ele>461.039378</ele>
        <time>2021-10-12T21:59:54.137Z</time>
      </trkpt>
      <trkpt lat="43.03582" lon="0.56371">
        <ele>461.60641</ele>
        <time>2021-10-12T22:00:00.128Z</time>
      </trkpt>
      <trkpt lat="43.03581" lon="0.56363">
        <ele>461.761205</ele>
        <time>2021-10-12T22:00:03.250Z</time>
      </trkpt>
      <trkpt lat="43.0358" lon="0.56358">
        <ele>461.860662</ele>
        <time>2021-10-12T22:00:04.940Z</time>
      </trkpt>
      <trkpt lat="43.03566" lon="0.56302">
        <ele>462.970806</ele>
        <time>2021-10-12T22:00:19.954Z</time>
      </trkpt>
      <trkpt lat="43.03573" lon="0.56267">
        <ele>463.661102</ele>
        <time>2021-10-12T22:00:28.696Z</time>
      </trkpt>
      <trkpt lat="43.03579" lon="0.56251">
        <ele>464.005393</ele>
        <time>2021-10-12T22:00:33.400Z</time>
      </trkpt>
      <trkpt lat="43.03634" lon="0.56217">
        <ele>465.563121</ele>
        <time>2021-10-12T22:00:53.215Z</time>
      </trkpt>
      <trkpt lat="43.03687" lon="0.56198">
        <ele>466.471931</ele>
        <time>2021-10-12T22:01:08.549Z</time>
      </trkpt>
      <trkpt lat="43.03708" lon="0.56184">
        <ele>466.721636</ele>
        <time>2021-10-12T22:01:14.389Z</time>
      </trkpt>
      <trkpt lat="43.03724" lon="0.56171">
        <ele>466.926283</ele>
        <time>2021-10-12T22:01:19.268Z</time>
      </trkpt>
      <trkpt lat="43.03776" lon="0.56119">
        <ele>467.634486</ele>
        <time>2021-10-12T22:01:35.258Z</time>
      </trkpt>
      <trkpt lat="43.03864" lon="0.56035">
        <ele>468.510106</ele>
        <time>2021-10-12T22:02:03.724Z</time>
      </trkpt>
      <trkpt lat="43.03897" lon="0.56024">
        <ele>468.734006</ele>
        <time>2021-10-12T22:02:12.391Z</time>
      </trkpt>
      <trkpt lat="43.03984" lon="0.56014">
        <ele>469.219568</ele>
        <time>2021-10-12T22:02:33.054Z</time>
      </trkpt>
      <trkpt lat="43.04019" lon="0.56004">
        <ele>469.14635</ele>
        <time>2021-10-12T22:02:41.257Z</time>
      </trkpt>
      <trkpt lat="43.04056" lon="0.5598">
        <ele>469.063645</ele>
        <time>2021-10-12T22:02:50.315Z</time>
      </trkpt>
      <trkpt lat="43.04081" lon="0.55945">
        <ele>468.990168</ele>
        <time>2021-10-12T22:02:58.217Z</time>
      </trkpt>
      <trkpt lat="43.04224" lon="0.55602">
        <ele>466.373122</ele>
        <time>2021-10-12T22:03:54.813Z</time>
      </trkpt>
      <trkpt lat="43.0423" lon="0.55592">
        <ele>466.206551</ele>
        <time>2021-10-12T22:03:56.438Z</time>
      </trkpt>
      <trkpt lat="43.04249" lon="0.55572">
        <ele>465.777148</ele>
        <time>2021-10-12T22:04:00.591Z</time>
      </trkpt>
      <trkpt lat="43.04307" lon="0.55536">
        <ele>464.619967</ele>
        <time>2021-10-12T22:04:11.700Z</time>
      </trkpt>
      <trkpt lat="43.04334" lon="0.55536">
        <ele>464.136949</ele>
        <time>2021-10-12T22:04:16.304Z</time>
      </trkpt>
      <trkpt lat="43.04389" lon="0.55556">
        <ele>463.308503</ele>
        <time>2021-10-12T22:04:26.019Z</time>
      </trkpt>
      <trkpt lat="43.04406" lon="0.55554">
        <ele>463.059515</ele>
        <time>2021-10-12T22:04:29.162Z</time>
      </trkpt>
      <trkpt lat="43.04433" lon="0.55519">
        <ele>462.527183</ele>
        <time>2021-10-12T22:04:36.014Z</time>
      </trkpt>
      <trkpt lat="43.04523" lon="0.55485">
        <ele>461.406182</ele>
        <time>2021-10-12T22:04:54.317Z</time>
      </trkpt>
      <trkpt lat="43.04679" lon="0.55397">
        <ele>460.95296</ele>
        <time>2021-10-12T22:05:30.781Z</time>
      </trkpt>
      <trkpt lat="43.04715" lon="0.55357">
        <ele>461.128068</ele>
        <time>2021-10-12T22:05:40.617Z</time>
      </trkpt>
      <trkpt lat="43.04738" lon="0.55305">
        <ele>461.298775</ele>
        <time>2021-10-12T22:05:51.070Z</time>
      </trkpt>
      <trkpt lat="43.04747" lon="0.55292">
        <ele>461.345631</ele>
        <time>2021-10-12T22:05:53.779Z</time>
      </trkpt>
      <trkpt lat="43.04752" lon="0.55288">
        <ele>461.369185</ele>
        <time>2021-10-12T22:05:55.495Z</time>
      </trkpt>
      <trkpt lat="43.04778" lon="0.55276">
        <ele>461.47473</ele>
        <time>2021-10-12T22:06:02.634Z</time>
      </trkpt>
      <trkpt lat="43.04807" lon="0.55264">
        <ele>461.589138</ele>
        <time>2021-10-12T22:06:10.681Z</time>
      </trkpt>
      <trkpt lat="43.04815" lon="0.55263">
        <ele>461.629464</ele>
        <time>2021-10-12T22:06:12.549Z</time>
      </trkpt>
      <trkpt lat="43.04842" lon="0.5527">
        <ele>461.82629</ele>
        <time>2021-10-12T22:06:19.735Z</time>
      </trkpt>
      <trkpt lat="43.04851" lon="0.55271">
        <ele>461.894998</ele>
        <time>2021-10-12T22:06:21.925Z</time>
      </trkpt>
      <trkpt lat="43.04863" lon="0.55269">
        <ele>461.981468</ele>
        <time>2021-10-12T22:06:25.577Z</time>
      </trkpt>
      <trkpt lat="43.04878" lon="0.55262">
        <ele>462.096766</ele>
        <time>2021-10-12T22:06:29.049Z</time>
      </trkpt>
      <trkpt lat="43.04928" lon="0.55224">
        <ele>462.5096</ele>
        <time>2021-10-12T22:06:43.815Z</time>
      </trkpt>
      <trkpt lat="43.05083" lon="0.55114">
        <ele>463.643069</ele>
        <time>2021-10-12T22:07:25.613Z</time>
      </trkpt>
      <trkpt lat="43.05099" lon="0.55132">
        <ele>463.772017</ele>
        <time>2021-10-12T22:07:30.459Z</time>
      </trkpt>
      <trkpt lat="43.05122" lon="0.55153">
        <ele>463.938482</ele>
        <time>2021-10-12T22:07:36.976Z</time>
      </trkpt>
      <trkpt lat="43.05229" lon="0.55227">
        <ele>465.457887</ele>
        <time>2021-10-12T22:08:11.699Z</time>
      </trkpt>
      <trkpt lat="43.05376" lon="0.55334">
        <ele>465.999502</ele>
        <time>2021-10-12T22:08:56.290Z</time>
      </trkpt>
      <trkpt lat="43.05384" lon="0.5534">
        <ele>465.96039</ele>
        <time>2021-10-12T22:08:57.921Z</time>
      </trkpt>
      <trkpt lat="43.0542" lon="0.55365">
        <ele>465.785044</ele>
        <time>2021-10-12T22:09:05.113Z</time>
      </trkpt>
      <trkpt lat="43.05463" lon="0.55425">
        <ele>464.815005</ele>
        <time>2021-10-12T22:09:15.680Z</time>
      </trkpt>
      <trkpt lat="43.05486" lon="0.55448">
        <ele>463.899781</ele>
        <time>2021-10-12T22:09:20.357Z</time>
      </trkpt>
      <trkpt lat="43.05524" lon="0.55466">
        <ele>462.607754</ele>
        <time>2021-10-12T22:09:26.675Z</time>
      </trkpt>
      <trkpt lat="43.05529" lon="0.55464">
        <ele>462.431807</ele>
        <time>2021-10-12T22:09:27.435Z</time>
      </trkpt>
      <trkpt lat="43.05531" lon="0.55461">
        <ele>462.323846</ele>
        <time>2021-10-12T22:09:27.922Z</time>
      </trkpt>
      <trkpt lat="43.05556" lon="0.55425">
        <ele>461.159154</ele>
        <time>2021-10-12T22:09:33.731Z</time>
      </trkpt>
      <trkpt lat="43.05583" lon="0.55413">
        <ele>460.236713</ele>
        <time>2021-10-12T22:09:38.615Z</time>
      </trkpt>
      <trkpt lat="43.05645" lon="0.55398">
        <ele>458.930963</ele>
        <time>2021-10-12T22:09:49.014Z</time>
      </trkpt>
      <trkpt lat="43.0565" lon="0.55396">
        <ele>458.842161</ele>
        <time>2021-10-12T22:09:49.880Z</time>
      </trkpt>
      <trkpt lat="43.05677" lon="0.55388">
        <ele>458.35964</ele>
        <time>2021-10-12T22:09:54.351Z</time>
      </trkpt>
      <trkpt lat="43.0574" lon="0.55372">
        <ele>457.207385</ele>
        <time>2021-10-12T22:10:06.739Z</time>
      </trkpt>
      <trkpt lat="43.05815" lon="0.55335">
        <ele>456.629321</ele>
        <time>2021-10-12T22:10:23.263Z</time>
      </trkpt>
      <trkpt lat="43.05913" lon="0.55304">
        <ele>456.625547</ele>
        <time>2021-10-12T22:10:46.603Z</time>
      </trkpt>
      <trkpt lat="43.05951" lon="0.55283">
        <ele>456.569633</ele>
        <time>2021-10-12T22:10:56.014Z</time>
      </trkpt>
      <trkpt lat="43.06004" lon="0.55234">
        <ele>456.148596</ele>
        <time>2021-10-12T22:11:10.253Z</time>
      </trkpt>
      <trkpt lat="43.06022" lon="0.55228">
        <ele>456.025568</ele>
        <time>2021-10-12T22:11:14.119Z</time>
      </trkpt>
      <trkpt lat="43.06073" lon="0.55233">
        <ele>455.687824</ele>
        <time>2021-10-12T22:11:24.210Z</time>
      </trkpt>
      <trkpt lat="43.06119" lon="0.55219">
        <ele>455.273033</ele>
        <time>2021-10-12T22:11:32.780Z</time>
      </trkpt>
      <trkpt lat="43.06223" lon="0.55162">
        <ele>453.240901</ele>
        <time>2021-10-12T22:11:52.381Z</time>
      </trkpt>
      <trkpt lat="43.06288" lon="0.55105">
        <ele>452.112034</ele>
        <time>2021-10-12T22:12:06.225Z</time>
      </trkpt>
      <trkpt lat="43.06299" lon="0.55096">
        <ele>452.059315</ele>
        <time>2021-10-12T22:12:08.436Z</time>
      </trkpt>
      <trkpt lat="43.06306" lon="0.55091">
        <ele>452.02677</ele>
        <time>2021-10-12T22:12:10.357Z</time>
      </trkpt>
      <trkpt lat="43.06329" lon="0.55088">
        <ele>451.931831</ele>
        <time>2021-10-12T22:12:14.706Z</time>
      </trkpt>
      <trkpt lat="43.06394" lon="0.55108">
        <ele>451.659062</ele>
        <time>2021-10-12T22:12:28.785Z</time>
      </trkpt>
      <trkpt lat="43.06425" lon="0.55126">
        <ele>451.520869</ele>
        <time>2021-10-12T22:12:36.710Z</time>
      </trkpt>
      <trkpt lat="43.06448" lon="0.55132">
        <ele>451.544938</ele>
        <time>2021-10-12T22:12:42.450Z</time>
      </trkpt>
      <trkpt lat="43.06525" lon="0.55107">
        <ele>452.644094</ele>
        <time>2021-10-12T22:13:04.755Z</time>
      </trkpt>
      <trkpt lat="43.06539" lon="0.55106">
        <ele>452.834091</ele>
        <time>2021-10-12T22:13:09.432Z</time>
      </trkpt>
      <trkpt lat="43.06604" lon="0.55127">
        <ele>453.750173</ele>
        <time>2021-10-12T22:13:28.620Z</time>
      </trkpt>
      <trkpt lat="43.06633" lon="0.55125">
        <ele>453.912873</ele>
        <time>2021-10-12T22:13:36.130Z</time>
      </trkpt>
      <trkpt lat="43.06647" lon="0.55119">
        <ele>453.89646</ele>
        <time>2021-10-12T22:13:40.571Z</time>
      </trkpt>
      <trkpt lat="43.06677" lon="0.55106">
        <ele>453.863164</ele>
        <time>2021-10-12T22:13:48.524Z</time>
      </trkpt>
      <trkpt lat="43.06716" lon="0.5509">
        <ele>453.819165</ele>
        <time>2021-10-12T22:13:58.289Z</time>
      </trkpt>
      <trkpt lat="43.06775" lon="0.55087">
        <ele>453.756818</ele>
        <time>2021-10-12T22:14:10.201Z</time>
      </trkpt>
      <trkpt lat="43.06891" lon="0.55108">
        <ele>450.833835</ele>
        <time>2021-10-12T22:14:30.006Z</time>
      </trkpt>
      <trkpt lat="43.0691" lon="0.55113">
        <ele>450.276358</ele>
        <time>2021-10-12T22:14:33.138Z</time>
      </trkpt>
      <trkpt lat="43.06915" lon="0.55114">
        <ele>450.144087</ele>
        <time>2021-10-12T22:14:33.923Z</time>
      </trkpt>
      <trkpt lat="43.06947" lon="0.55127">
        <ele>449.153158</ele>
        <time>2021-10-12T22:14:39.486Z</time>
      </trkpt>
      <trkpt lat="43.06953" lon="0.55125">
        <ele>448.978836</ele>
        <time>2021-10-12T22:14:40.530Z</time>
      </trkpt>
      <trkpt lat="43.06957" lon="0.55123">
        <ele>448.847027</ele>
        <time>2021-10-12T22:14:41.263Z</time>
      </trkpt>
      <trkpt lat="43.06959" lon="0.55118">
        <ele>448.732954</ele>
        <time>2021-10-12T22:14:41.855Z</time>
      </trkpt>
      <trkpt lat="43.06943" lon="0.55025">
        <ele>444.918741</ele>
        <time>2021-10-12T22:14:52.534Z</time>
      </trkpt>
      <trkpt lat="43.06906" lon="0.54929">
        <ele>440.258669</ele>
        <time>2021-10-12T22:15:03.957Z</time>
      </trkpt>
      <trkpt lat="43.06909" lon="0.54906">
        <ele>439.261604</ele>
        <time>2021-10-12T22:15:06.468Z</time>
      </trkpt>
      <trkpt lat="43.06916" lon="0.54898">
        <ele>438.749128</ele>
        <time>2021-10-12T22:15:07.716Z</time>
      </trkpt>
      <trkpt lat="43.06918" lon="0.54896">
        <ele>438.625711</ele>
        <time>2021-10-12T22:15:08.020Z</time>
      </trkpt>
      <trkpt lat="43.0692" lon="0.54893">
        <ele>438.430883</ele>
        <time>2021-10-12T22:15:08.508Z</time>
      </trkpt>
      <trkpt lat="43.06926" lon="0.54888">
        <ele>438.036509</ele>
        <time>2021-10-12T22:15:09.498Z</time>
      </trkpt>
      <trkpt lat="43.06961" lon="0.54851">
        <ele>435.853074</ele>
        <time>2021-10-12T22:15:15.954Z</time>
      </trkpt>
      <trkpt lat="43.06982" lon="0.54827">
        <ele>434.500027</ele>
        <time>2021-10-12T22:15:19.995Z</time>
      </trkpt>
      <trkpt lat="43.06988" lon="0.54821">
        <ele>434.146758</ele>
        <time>2021-10-12T22:15:21.049Z</time>
      </trkpt>
      <trkpt lat="43.0699" lon="0.54819">
        <ele>434.006335</ele>
        <time>2021-10-12T22:15:21.476Z</time>
      </trkpt>
      <trkpt lat="43.06993" lon="0.54818">
        <ele>433.874228</ele>
        <time>2021-10-12T22:15:21.889Z</time>
      </trkpt>
      <trkpt lat="43.06998" lon="0.54811">
        <ele>433.513493</ele>
        <time>2021-10-12T22:15:22.999Z</time>
      </trkpt>
      <trkpt lat="43.07058" lon="0.54745">
        <ele>429.717707</ele>
        <time>2021-10-12T22:15:35.132Z</time>
      </trkpt>
      <trkpt lat="43.07195" lon="0.54675">
        <ele>428.453599</ele>
        <time>2021-10-12T22:16:06.708Z</time>
      </trkpt>
      <trkpt lat="43.07161" lon="0.54556">
        <ele>428.685714</ele>
        <time>2021-10-12T22:16:31.073Z</time>
      </trkpt>
      <trkpt lat="43.07123" lon="0.54476">
        <ele>429.363432</ele>
        <time>2021-10-12T22:16:49.155Z</time>
      </trkpt>
      <trkpt lat="43.07117" lon="0.54455">
        <ele>429.530209</ele>
        <time>2021-10-12T22:16:53.880Z</time>
      </trkpt>
      <trkpt lat="43.07108" lon="0.54417">
        <ele>429.811186</ele>
        <time>2021-10-12T22:17:01.485Z</time>
      </trkpt>
      <trkpt lat="43.07104" lon="0.544">
        <ele>429.935466</ele>
        <time>2021-10-12T22:17:04.887Z</time>
      </trkpt>
      <trkpt lat="43.07103" lon="0.54394">
        <ele>429.975585</ele>
        <time>2021-10-12T22:17:06.162Z</time>
      </trkpt>
      <trkpt lat="43.07102" lon="0.54373">
        <ele>429.975585</ele>
        <time>2021-10-12T22:17:10.191Z</time>
      </trkpt>
      <trkpt lat="43.07103" lon="0.5435">
        <ele>429.975585</ele>
        <time>2021-10-12T22:17:14.669Z</time>
      </trkpt>
      <trkpt lat="43.07103" lon="0.54347">
        <ele>429.975585</ele>
        <time>2021-10-12T22:17:15.117Z</time>
      </trkpt>
      <trkpt lat="43.07104" lon="0.54332">
        <ele>429.975585</ele>
        <time>2021-10-12T22:17:17.989Z</time>
      </trkpt>
      <trkpt lat="43.07108" lon="0.54313">
        <ele>429.975585</ele>
        <time>2021-10-12T22:17:21.786Z</time>
      </trkpt>
      <trkpt lat="43.07111" lon="0.54306">
        <ele>429.975585</ele>
        <time>2021-10-12T22:17:23.290Z</time>
      </trkpt>
      <trkpt lat="43.07114" lon="0.543">
        <ele>429.975585</ele>
        <time>2021-10-12T22:17:24.670Z</time>
      </trkpt>
      <trkpt lat="43.07116" lon="0.5429">
        <ele>429.975585</ele>
        <time>2021-10-12T22:17:26.398Z</time>
      </trkpt>
      <trkpt lat="43.07116" lon="0.54281">
        <ele>429.975585</ele>
        <time>2021-10-12T22:17:28.195Z</time>
      </trkpt>
      <trkpt lat="43.07116" lon="0.54276">
        <ele>429.975585</ele>
        <time>2021-10-12T22:17:29.136Z</time>
      </trkpt>
      <trkpt lat="43.07115" lon="0.54251">
        <ele>429.975585</ele>
        <time>2021-10-12T22:17:33.704Z</time>
      </trkpt>
      <trkpt lat="43.07111" lon="0.54199">
        <ele>429.975585</ele>
        <time>2021-10-12T22:17:42.979Z</time>
      </trkpt>
      <trkpt lat="43.07113" lon="0.54167">
        <ele>429.975585</ele>
        <time>2021-10-12T22:17:48.421Z</time>
      </trkpt>
    </trkseg>
  </trk>
</gpx>